[[{"header":{"parameterUnit":"m.s-1","parameterCategory":1,"la1":30.6,"la2":29.2853,"lo1":-89.7004,"lo2":-87.6739,"dy":0.0162,"dx":0.0183,"nx":112,"ny":82,"refTime":"2023-03-14T18:00:00:Z","depth":0,"parameterNumber":2,"parameterNumberName":"U-component_of_WINDS"},"data":[0.0,0.0,0.0,0.0,0.0,0.0,0.0,0.0,0.0,0.0,0.0,0.0,0.0,0.0,0.0,0.0,0.0,0.0,0.0,0.0,0.0,0.0,0.0,0.0,0.0,0.0,0.0,0.0,0.0,0.0,0.0,0.0,0.0,0.0,0.0,0.0,0.0,0.0,0.0,0.0,0.0,0.0,0.0,0.0,0.0,0.0,0.0,0.0,0.0,0.0,0.0,0.0,0.0,0.0,0.0,0.0,0.0,0.0,0.0,0.0,0.0,0.0,0.0,0.0,0.0,0.0,0.0,0.0,0.0,0.0,0.0,0.0,0.0,0.0,0.0,0.0,0.0,0.0,0.0,0.0,0.0,0.0,0.0,0.0,0.0,0.0,0.0,0.0,0.0,0.0,0.0,-1.1364,-1.3295,-1.4359,-1.4011,-1.3186,-1.1451,-0.8588,0.0,0.0,0.0,0.0,0.0,0.0,0.0,0.0,0.0,0.0,0.0,0.0,0.0,0.0,0.0,0.0,0.0,0.0,0.0,0.0,0.0,0.0,0.0,0.0,0.0,0.0,0.0,0.0,0.0,0.0,0.0,0.0,0.0,0.0,0.0,0.0,0.0,0.0,0.0,0.0,0.0,0.0,0.0,0.0,0.0,0.0,0.0,0.0,0.0,0.0,0.0,0.0,0.0,0.0,0.0,0.0,0.0,0.0,0.0,0.0,0.0,0.0,0.0,0.0,0.0,0.0,0.0,0.0,0.0,0.0,0.0,0.0,0.0,0.0,0.0,0.0,0.0,0.0,0.0,0.0,0.0,0.0,0.0,0.0,0.0,0.0,0.0,0.0,0.0,0.0,0.0,0.0,0.0,0.0,0.0,0.0,0.0,0.0,0.0,0.0,0.0,0.0,0.0,0.0,-1.1375,-1.2803,-1.3891,-1.4488,-1.4414,-1.2661,-1.092,-0.9481,0.0,0.0,0.0,0.0,0.0,0.0,0.0,0.0,0.0,0.0,0.0,0.0,0.0,0.0,0.0,0.0,0.0,0.0,0.0,0.0,0.0,0.0,0.0,0.0,0.0,0.0,0.0,0.0,0.0,0.0,0.0,0.0,0.0,0.0,0.0,0.0,0.0,0.0,0.0,0.0,0.0,0.0,0.0,0.0,0.0,0.0,0.0,0.0,0.0,0.0,0.0,0.0,0.0,0.0,0.0,0.0,0.0,0.0,0.0,0.0,0.0,0.0,0.0,0.0,0.0,0.0,0.0,0.0,0.0,0.0,0.0,0.0,0.0,0.0,0.0,0.0,0.0,0.0,0.0,0.0,0.0,0.0,0.0,0.0,0.0,0.0,0.0,0.0,0.0,0.0,0.0,0.0,0.0,0.0,0.0,0.0,0.0,0.0,0.0,0.0,0.0,0.0,0.0,-1.0962,-1.1853,-1.3442,-1.4157,-1.4476,-1.4387,-1.2549,-1.0782,-0.9311,-0.7499,0.0,0.0,0.0,0.0,0.0,0.0,0.0,0.0,0.0,0.0,0.0,0.0,0.0,0.0,0.0,0.0,0.0,0.0,0.0,0.0,0.0,0.0,0.0,0.0,0.0,0.0,0.0,0.0,0.0,0.0,0.0,0.0,0.0,0.0,0.0,0.0,0.0,0.0,0.0,0.0,0.0,0.0,0.0,0.0,0.0,0.0,0.0,0.0,0.0,0.0,0.0,0.0,0.0,0.0,0.0,0.0,0.0,0.0,0.0,0.0,0.0,0.0,0.0,0.0,0.0,0.0,0.0,0.0,0.0,0.0,0.0,0.0,0.0,0.0,0.0,0.0,0.0,0.0,0.0,0.0,0.0,0.0,0.0,0.0,0.0,0.0,0.0,0.0,0.0,0.0,0.0,0.0,0.0,0.0,0.0,0.0,0.0,0.0,0.0,0.0,0.0,0.0,-1.2005,-1.2418,-1.3921,-1.4352,-1.441,-1.423,-1.2374,-1.0591,-0.9032,-0.6825,0.0,0.0,0.0,0.0,0.0,0.0,0.0,0.0,0.0,0.0,0.0,0.0,0.0,0.0,0.0,0.0,0.0,0.0,0.0,0.0,0.0,0.0,0.0,0.0,0.0,0.0,0.0,0.0,0.0,0.0,0.0,0.0,0.0,0.0,0.0,0.0,0.0,0.0,0.0,0.0,0.0,0.0,0.0,0.0,0.0,0.0,0.0,0.0,0.0,0.0,0.0,0.0,0.0,0.0,0.0,0.0,0.0,0.0,0.0,0.0,0.0,0.0,0.0,0.0,0.0,0.0,0.0,0.0,0.0,0.0,0.0,0.0,0.0,0.0,0.0,0.0,0.0,0.0,0.0,0.0,0.0,0.0,0.0,0.0,0.0,0.0,0.0,0.0,0.0,0.0,0.0,0.0,0.0,0.0,0.0,0.0,0.0,0.0,0.0,0.0,0.0,0.0,-1.2386,-1.3271,-1.4509,-1.4577,-1.4359,-1.3956,-1.1802,-1.0052,-0.9053,-0.6403,0.0,0.0,0.0,0.0,0.0,0.0,0.0,0.0,0.0,0.0,0.0,0.0,0.0,0.0,0.0,0.0,0.0,0.0,0.0,0.0,0.0,0.0,0.0,0.0,0.0,0.0,0.0,0.0,0.0,0.0,0.0,0.0,0.0,0.0,0.0,0.0,0.0,0.0,0.0,0.0,0.0,0.0,0.0,0.0,0.0,0.0,0.0,0.0,0.0,0.0,0.0,0.0,0.0,0.0,0.0,0.0,0.0,0.0,0.0,0.0,0.0,0.0,0.0,0.0,0.0,0.0,0.0,0.0,0.0,0.0,0.0,0.0,0.0,0.0,0.0,0.0,0.0,0.0,0.0,0.0,0.0,0.0,0.0,0.0,0.0,0.0,0.0,0.0,0.0,0.0,0.0,0.0,0.0,0.0,0.0,0.0,0.0,0.0,0.0,0.0,0.0,0.0,-1.2978,-1.37,0.0,-1.4355,-1.4019,-1.374,-1.1965,-1.027,-0.8792,0.0,0.0,0.0,0.0,0.0,0.0,0.0,0.0,0.0,0.0,0.0,0.0,0.0,0.0,0.0,0.0,0.0,0.0,0.0,0.0,0.0,0.0,0.0,0.0,0.0,0.0,0.0,0.0,0.0,0.0,0.0,0.0,0.0,0.0,0.0,0.0,0.0,0.0,0.0,0.0,0.0,0.0,0.0,0.0,0.0,0.0,0.0,0.0,0.0,0.0,0.0,0.0,0.0,0.0,0.0,0.0,0.0,0.0,0.0,0.0,0.0,0.0,0.0,0.0,0.0,0.0,0.0,0.0,0.0,0.0,0.0,0.0,0.0,0.0,0.0,0.0,0.0,0.0,0.0,0.0,0.0,0.0,0.0,0.0,0.0,0.0,0.0,0.0,0.0,0.0,0.0,0.0,0.0,0.0,0.0,0.0,0.0,0.0,0.0,0.0,0.0,0.0,-1.2944,-1.36,-1.4235,0.0,-1.441,-1.3827,-1.3512,-1.1929,-1.0254,-0.8602,0.0,0.0,0.0,0.0,0.0,0.0,0.0,0.0,0.0,0.0,0.0,0.0,0.0,0.0,0.0,0.0,0.0,0.0,0.0,0.0,0.0,0.0,0.0,0.0,0.0,0.0,0.0,0.0,0.0,0.0,0.0,0.0,0.0,0.0,0.0,0.0,0.0,0.0,0.0,0.0,0.0,0.0,0.0,0.0,0.0,0.0,0.0,0.0,0.0,0.0,0.0,0.0,0.0,0.0,0.0,0.0,0.0,0.0,0.0,0.0,0.0,0.0,0.0,0.0,0.0,0.0,0.0,0.0,0.0,0.0,0.0,0.0,0.0,0.0,0.0,0.0,0.0,0.0,0.0,0.0,0.0,0.0,0.0,0.0,0.0,0.0,0.0,0.0,0.0,0.0,0.0,0.0,0.0,0.0,0.0,0.0,0.0,0.0,0.0,0.0,0.0,0.0,-1.3431,-1.4244,-1.5002,-1.5802,-1.4792,-1.3886,-1.3341,-1.1521,-0.9857,0.0,0.0,0.0,0.0,0.0,0.0,0.0,0.0,0.0,0.0,0.0,0.0,0.0,0.0,0.0,0.0,0.0,0.0,0.0,0.0,0.0,0.0,0.0,0.0,0.0,0.0,0.0,0.0,0.0,0.0,0.0,0.0,0.0,0.0,0.0,0.0,0.0,0.0,0.0,0.0,0.0,0.0,0.0,0.0,0.0,0.0,0.0,0.0,0.0,0.0,0.0,0.0,0.0,0.0,0.0,0.0,0.0,0.0,0.0,0.0,0.0,0.0,0.0,0.0,0.0,0.0,0.0,0.0,0.0,0.0,0.0,0.0,0.0,0.0,0.0,0.0,0.0,0.0,0.0,0.0,0.0,0.0,0.0,0.0,0.0,0.0,0.0,0.0,0.0,0.0,0.0,0.0,0.0,0.0,0.0,0.0,0.0,0.0,0.0,0.0,0.0,0.0,0.0,-1.4212,-1.4834,-1.5279,-1.5462,-1.4396,-1.3459,-1.2919,-1.1729,-1.03,-0.854,0.0,0.0,0.0,0.0,0.0,0.0,0.0,0.0,0.0,0.0,0.0,0.0,0.0,0.0,0.0,0.0,0.0,0.0,0.0,0.0,0.0,0.0,0.0,0.0,0.0,0.0,0.0,0.0,0.0,0.0,0.0,0.0,0.0,0.0,0.0,0.0,0.0,0.0,0.0,0.0,0.0,0.0,0.0,0.0,0.0,0.0,0.0,0.0,0.0,0.0,0.0,0.0,0.0,0.0,0.0,0.0,0.0,0.0,0.0,0.0,0.0,0.0,0.0,0.0,0.0,0.0,0.0,0.0,0.0,0.0,0.0,0.0,0.0,0.0,0.0,0.0,0.0,0.0,0.0,0.0,0.0,0.0,0.0,0.0,0.0,0.0,0.0,0.0,0.0,0.0,0.0,0.0,0.0,0.0,0.0,0.0,0.0,0.0,0.0,0.0,0.0,0.0,-1.5006,-1.5343,-1.5531,-1.5696,-1.4449,-1.338,-1.2839,-1.1861,-1.0682,-0.9251,0.0,0.0,0.0,0.0,0.0,0.0,0.0,0.0,0.0,0.0,0.0,0.0,0.0,0.0,0.0,0.0,0.0,0.0,0.0,0.0,0.0,0.0,0.0,0.0,0.0,0.0,0.0,0.0,0.0,0.0,0.0,0.0,0.0,0.0,0.0,0.0,0.0,0.0,0.0,0.0,0.0,0.0,0.0,0.0,0.0,0.0,0.0,0.0,0.0,0.0,0.0,0.0,0.0,0.0,0.0,0.0,0.0,0.0,0.0,0.0,0.0,0.0,0.0,0.0,0.0,0.0,0.0,0.0,0.0,0.0,0.0,0.0,0.0,0.0,0.0,0.0,0.0,0.0,0.0,0.0,0.0,0.0,0.0,0.0,0.0,0.0,0.0,0.0,0.0,0.0,0.0,0.0,0.0,0.0,0.0,0.0,0.0,0.0,0.0,0.0,0.0,0.0,-1.5722,-1.5789,-1.5856,-1.6245,-1.4814,-1.3567,-1.2943,-1.1976,-1.1071,-1.0333,0.0,0.0,0.0,0.0,0.0,0.0,0.0,0.0,0.0,0.0,0.0,0.0,0.0,0.0,0.0,0.0,0.0,0.0,0.0,0.0,0.0,0.0,0.0,0.0,0.0,0.0,0.0,0.0,0.0,0.0,0.0,0.0,0.0,0.0,0.0,0.0,0.0,0.0,0.0,0.0,0.0,0.0,0.0,0.0,0.0,0.0,0.0,0.0,0.0,0.0,0.0,0.0,0.0,0.0,0.0,0.0,0.0,0.0,0.0,0.0,-1.1576,0.0,0.0,0.0,0.0,0.0,0.0,0.0,0.0,0.0,0.0,0.0,0.0,0.0,0.0,0.0,0.0,0.0,0.0,0.0,0.0,0.0,0.0,0.0,0.0,0.0,0.0,0.0,0.0,0.0,0.0,0.0,0.0,0.0,0.0,0.0,0.0,0.0,0.0,0.0,0.0,0.0,-1.6212,-1.628,-1.6255,-1.6363,-1.4941,-1.3674,-1.2969,-1.2406,-1.159,-1.0381,-0.9305,0.0,0.0,0.0,0.0,0.0,0.0,0.0,0.0,0.0,0.0,0.0,0.0,0.0,0.0,0.0,0.0,0.0,0.0,0.0,0.0,0.0,0.0,0.0,0.0,0.0,0.0,0.0,0.0,0.0,0.0,0.0,0.0,0.0,0.0,0.0,0.0,0.0,0.0,0.0,0.0,0.0,0.0,0.0,0.0,0.0,0.0,0.0,0.0,0.0,0.0,0.0,0.0,0.0,0.0,0.0,0.0,0.0,0.0,0.0,0.0,-1.2317,0.0,0.0,0.0,0.0,0.0,0.0,0.0,0.0,0.0,0.0,0.0,0.0,0.0,0.0,0.0,0.0,0.0,0.0,0.0,0.0,0.0,0.0,0.0,0.0,0.0,0.0,0.0,0.0,0.0,0.0,0.0,0.0,0.0,0.0,0.0,0.0,0.0,0.0,0.0,0.0,-1.5984,-1.6264,-1.6305,-1.609,-1.5008,-1.4061,-1.348,-1.2959,-1.2443,-1.1874,-1.0252,0.0,0.0,0.0,0.0,0.0,0.0,0.0,0.0,0.0,0.0,0.0,0.0,0.0,0.0,0.0,0.0,0.0,0.0,0.0,0.0,0.0,0.0,0.0,0.0,0.0,0.0,0.0,0.0,0.0,0.0,0.0,0.0,0.0,0.0,0.0,0.0,0.0,0.0,0.0,0.0,0.0,0.0,0.0,0.0,0.0,0.0,0.0,0.0,0.0,0.0,0.0,0.0,0.0,0.0,-2.0365,-2.0885,-2.1077,-2.1241,-2.1183,-1.7022,-1.5332,-1.5281,0.0,0.0,0.0,0.0,0.0,0.0,0.0,0.0,0.0,0.0,0.0,0.0,0.0,0.0,0.0,0.0,0.0,0.0,0.0,0.0,0.0,0.0,0.0,0.0,0.0,-1.5989,-1.6484,0.0,0.0,0.0,0.0,0.0,0.0,0.0,0.0,0.0,0.0,0.0,0.0,-1.6015,-1.6449,-1.6542,-1.6027,-1.525,-1.4601,-1.4134,-1.3578,-1.3351,-1.3549,-1.1464,-1.0072,0.0,0.0,0.0,0.0,0.0,0.0,0.0,0.0,0.0,0.0,0.0,0.0,0.0,0.0,0.0,0.0,0.0,0.0,0.0,0.0,0.0,0.0,0.0,0.0,0.0,0.0,0.0,0.0,0.0,0.0,0.0,0.0,-1.5358,-1.4099,0.0,0.0,0.0,0.0,0.0,0.0,0.0,0.0,0.0,0.0,0.0,0.0,0.0,0.0,-2.2692,-2.4715,-2.5513,-2.5099,-2.6442,-2.6795,-2.6268,-2.558,-2.5297,-2.5248,-2.3332,0.0,-1.7737,-1.6105,0.0,0.0,0.0,0.0,0.0,0.0,0.0,0.0,0.0,0.0,0.0,0.0,0.0,0.0,0.0,0.0,0.0,0.0,0.0,0.0,0.0,0.0,-1.8701,-1.8455,-1.9597,-2.0308,0.0,-1.5965,-1.3589,-1.2941,0.0,0.0,0.0,0.0,0.0,0.0,0.0,0.0,-1.7659,-1.7941,-1.7784,-1.7076,-1.6126,-1.5272,-1.4596,-1.4127,-1.3842,-1.3765,-1.2824,-1.1637,-1.018,-0.9248,0.0,0.0,0.0,0.0,0.0,0.0,0.0,0.0,0.0,0.0,0.0,0.0,0.0,0.0,0.0,0.0,0.0,0.0,0.0,0.0,0.0,0.0,0.0,0.0,0.0,0.0,0.0,0.0,0.0,-1.8595,-1.8857,-1.6847,-1.8152,-1.8542,0.0,0.0,0.0,0.0,0.0,0.0,0.0,0.0,0.0,-2.5425,-2.6128,-2.692,-2.779,-2.9673,-3.0622,-3.0736,-3.1067,-3.1348,-3.1529,-3.0293,-2.9643,-2.9442,-2.7983,-2.5824,-2.3119,-1.9591,-1.7573,-1.6589,0.0,0.0,0.0,0.0,0.0,-1.5369,-1.5868,0.0,0.0,0.0,0.0,0.0,0.0,0.0,0.0,0.0,0.0,0.0,0.0,0.0,0.0,-2.1241,-2.1719,-2.1966,-2.1083,-1.9474,-1.7548,0.0,-1.4657,-1.4127,-1.375,0.0,0.0,0.0,0.0,0.0,-1.7697,-1.7768,-1.7545,-1.6877,-1.6033,-1.5402,-1.5079,-1.4662,-1.4499,-1.4582,-1.3543,-1.2464,-1.1418,-1.0108,-0.8596,0.0,0.0,0.0,0.0,0.0,0.0,0.0,0.0,0.0,0.0,0.0,0.0,0.0,0.0,0.0,0.0,0.0,0.0,0.0,0.0,0.0,0.0,0.0,0.0,0.0,0.0,0.0,0.0,-2.1994,-2.2313,-1.9732,-2.1786,-2.2485,0.0,0.0,0.0,0.0,0.0,0.0,-2.7555,-2.8127,-2.9111,-3.0622,-3.1301,-3.2063,-3.2811,-3.4048,-3.4911,-3.542,-3.4796,-3.4854,-3.5531,-3.4096,-3.3219,-3.2795,-3.1436,-3.0102,-2.8495,-2.3092,-2.0557,-1.9935,-1.8255,-1.7603,0.0,-1.7946,-1.8221,-1.8548,-1.9332,-1.9793,-1.994,-1.9393,0.0,-1.8751,-1.7407,0.0,0.0,0.0,0.0,-2.1828,-2.2404,0.0,-2.3915,-2.3537,-2.3675,-2.3715,-2.2887,-2.2371,-2.112,0.0,-1.6649,-1.5751,-1.4867,0.0,0.0,0.0,0.0,-1.8263,-1.8154,-1.8057,-1.764,-1.6842,-1.6136,-1.5642,-1.5488,-1.5165,-1.5021,-1.5235,-1.4232,-1.3389,-1.2831,-1.1297,-0.9918,-0.8767,0.0,0.0,0.0,0.0,0.0,0.0,0.0,0.0,0.0,0.0,0.0,0.0,0.0,0.0,0.0,0.0,0.0,0.0,0.0,0.0,0.0,0.0,0.0,0.0,0.0,0.0,0.0,0.0,0.0,-2.2267,-2.606,0.0,0.0,0.0,0.0,-2.7233,-2.9719,-3.1407,-3.178,-3.2229,-3.352,-3.5653,-3.5264,-3.5859,-3.7547,-3.7625,-3.7938,-3.8486,-3.7753,-3.7419,-3.7445,-3.615,-3.5203,-3.4593,-3.3564,-3.309,-3.2548,-2.6725,-2.4072,-2.3536,-2.2544,-2.2441,-2.2853,-2.2873,-2.2854,-2.2813,-2.242,-2.2335,-2.2379,-2.2811,-2.2606,-2.2217,-2.1932,-2.1983,0.0,0.0,-2.3863,-2.511,-2.4971,-2.5997,-2.6717,-2.5242,-2.6009,-2.6561,-2.4754,-2.4226,-2.3127,0.0,-1.8934,-1.8183,-1.7033,0.0,0.0,-1.8509,-1.8538,-1.8826,-2.0013,-1.9757,-1.8973,-1.7592,-1.6919,-1.6324,-1.572,-1.5497,-1.5391,-1.5381,-1.5187,-1.4787,-1.4118,-1.3292,-1.201,-1.0216,-0.9401,0.0,0.0,0.0,0.0,0.0,0.0,0.0,0.0,0.0,0.0,0.0,0.0,0.0,0.0,0.0,0.0,0.0,0.0,0.0,0.0,0.0,0.0,0.0,0.0,0.0,0.0,0.0,0.0,-2.8492,-3.1544,0.0,-2.9328,-3.0696,-3.1862,-3.2162,-3.3988,-3.5624,-3.6851,-3.7397,-3.8037,-3.8847,-3.9077,-3.9277,-3.952,-3.9913,-4.02,-4.0383,-3.9699,-3.9214,-3.8877,-3.7998,-3.7032,-3.6006,-3.5336,-3.4579,-3.3642,-3.1194,-2.9249,-2.773,-2.655,-2.5998,-2.5931,-2.6244,-2.6356,-2.6378,-2.6512,-2.6557,-2.649,-2.6043,-2.539,-2.4783,-2.4714,-2.4476,-2.4407,-2.5342,-2.6056,-2.6651,-2.7334,-2.7953,-2.8175,-2.7655,-2.768,-2.7523,-2.6526,-2.5965,-2.5093,-2.3181,-2.16,-2.0228,-1.917,-1.936,-1.9668,-1.9678,-2.0083,-2.0548,-2.0997,-2.0141,-1.9166,-1.836,-1.726,-1.6372,-1.5876,-1.5662,-1.5575,-1.5575,-1.543,-1.5001,-1.4243,-1.3914,-1.3017,-1.1418,-1.1102,-0.9923,0.0,0.0,0.0,0.0,0.0,0.0,0.0,0.0,0.0,0.0,0.0,0.0,0.0,0.0,0.0,0.0,0.0,0.0,0.0,0.0,0.0,0.0,0.0,0.0,0.0,0.0,-3.4208,-3.3296,-3.6032,-3.6954,-3.435,-3.5234,-3.6115,-3.6411,-3.7886,-3.9259,-4.0409,-4.101,-4.1298,-4.1298,-4.1507,-4.1402,-4.101,-4.1219,-4.1324,-4.1298,-4.0906,-4.0435,-3.986,-3.9468,-3.8584,-3.7365,-3.7073,-3.6328,-3.531,-3.4693,-3.3576,-3.2079,-2.9997,-2.8908,-2.8491,-2.873,-2.8826,-2.8872,-2.9175,-2.9291,-2.9196,-2.8701,-2.7953,-2.7249,-2.7403,-2.7175,-2.704,-2.7864,-2.8334,-2.8691,-2.9313,-2.9465,-2.9364,-2.8988,-2.8612,-2.8222,-2.767,-2.7268,-2.6737,-2.5714,-2.3794,-2.2013,-2.0956,-2.1256,-2.1397,-2.0682,-2.1398,-2.1897,-2.1525,-2.0623,-1.9711,-1.8802,-1.7484,-1.6495,-1.5992,-1.5691,-1.5575,-1.5711,-1.543,-1.5059,-1.4628,-1.4183,-1.3507,-1.2535,-1.2089,-1.0843,-0.8782,0.0,0.0,0.0,0.0,0.0,0.0,0.0,0.0,0.0,0.0,0.0,0.0,0.0,0.0,0.0,0.0,0.0,0.0,0.0,0.0,0.0,0.0,0.0,-3.1235,-3.4633,-3.6959,-3.6384,-3.9364,-4.0331,-3.7482,-3.9233,-4.0305,-3.9782,-4.1272,-4.229,-4.229,-4.2762,-4.3075,-4.3049,-4.25,-4.2264,-4.2238,-4.1638,-4.135,-4.135,-4.1324,-4.101,-4.0409,-4.0409,-3.9808,-3.8736,-3.871,-3.8423,-3.7874,-3.7072,-3.6722,-3.6341,-3.2849,-3.1155,-3.0598,-3.0396,-3.0306,-3.0306,-3.0306,-3.0306,-3.0348,-3.0763,-3.0312,-2.9695,-3.0061,-3.017,-3.0145,-3.0145,-3.077,-3.126,-3.0758,-3.0608,-3.0331,-2.9189,-2.8913,-2.8762,-2.8247,-2.8122,-2.7971,-2.7394,-2.5453,-2.355,-2.2423,-2.2199,-2.2069,-2.1651,-2.2448,0.0,-2.1596,-2.136,-2.0623,-1.8915,-1.7576,-1.6655,-1.6185,-1.5575,-1.5371,-1.5711,-1.5274,-1.5137,-1.541,-1.4213,-1.3541,-1.3541,-1.229,-1.1216,-1.035,0.0,0.0,0.0,0.0,0.0,0.0,0.0,0.0,0.0,0.0,0.0,0.0,0.0,0.0,0.0,0.0,0.0,0.0,0.0,0.0,0.0,0.0,-3.5887,-3.4842,-3.8187,-4.0827,-4.1089,-4.3075,-4.3781,-4.2134,-4.2552,-4.2866,-4.2709,-4.3127,-4.3572,-4.399,-4.4173,-4.4068,-4.365,-4.3493,-4.3206,-4.2788,-4.2213,-4.1925,-4.1925,-4.1507,-4.101,-4.0409,-4.0409,-4.0043,-3.9337,-3.8893,-3.8632,-3.8449,-3.7854,-3.7313,-3.6701,-3.4565,-3.3639,-3.3396,-3.2779,-3.2413,-3.2307,-3.2307,-3.2307,-3.2326,-3.2438,-3.2302,-3.2148,-3.2258,-3.1978,-3.163,-3.163,-3.1522,-3.126,-3.0758,-3.0608,-3.0432,-2.9729,-2.9553,-2.9402,-2.8825,-2.8662,-2.8423,-2.7469,-2.6776,-2.5955,-2.4821,-2.464,-2.4444,-2.3983,0.0,0.0,-2.2647,-2.1609,-2.0477,-1.9328,-1.8103,-1.7201,-1.6794,-1.6168,-1.5851,0.0,-1.5691,-1.5537,-1.5604,-1.5147,-1.4677,-1.4231,-1.2976,-1.2211,0.0,0.0,0.0,0.0,0.0,0.0,0.0,0.0,0.0,0.0,0.0,0.0,0.0,0.0,0.0,0.0,0.0,0.0,0.0,0.0,0.0,0.0,-3.6959,-3.9416,-3.9703,-4.1768,-4.3572,-4.4382,-4.5375,-4.5715,-4.5036,-4.5012,-4.4853,-4.4617,-4.4617,-4.4643,-4.4722,-4.4668,-4.4565,-4.4225,-4.399,-4.3702,-4.3389,-4.2814,-4.2396,-4.2211,-4.1821,-4.135,-4.0801,-4.0801,-4.0488,0.0,-3.9573,-3.9155,-3.8684,-3.837,-3.79,0.0,0.0,0.0,0.0,0.0,-3.3326,-3.3197,-3.3111,-3.3111,-3.3111,-3.3111,-3.3111,-3.3111,-3.3111,-3.2842,-3.2566,-3.2566,-3.234,-3.1964,-3.1436,-3.1286,-3.116,-3.0608,-3.0306,-3.0055,-2.9704,-2.9453,-2.8912,-2.7681,0.0,0.0,-2.5779,-2.5516,-2.5324,-2.4905,-2.4545,-2.3963,0.0,-2.2203,-2.1152,-1.9854,-1.8646,-1.7743,-1.7327,-1.6567,0.0,0.0,0.0,-1.5596,-1.5654,-1.5476,0.0,0.0,0.0,-1.3703,0.0,0.0,0.0,0.0,-0.9837,-0.9635,0.0,0.0,0.0,0.0,0.0,0.0,0.0,0.0,0.0,0.0,0.0,0.0,0.0,0.0,0.0,0.0,-4.0331,-4.2631,-4.4774,-4.5166,-4.5558,-4.6369,-4.6525,-4.6552,-4.6499,-4.6473,-4.6238,-4.5663,-4.5581,-4.5375,-4.4694,0.0,0.0,0.0,0.0,-4.3964,-4.3964,-4.3415,-4.2866,-4.2395,-4.229,-4.1899,-4.1402,-4.135,-4.1036,-4.0514,-4.0435,-3.9834,-3.8893,-3.8762,-3.8397,-3.7802,-3.702,-3.5997,-3.4779,-3.3879,-3.3504,0.0,0.0,0.0,0.0,-3.3111,-3.3111,-3.3111,-3.3111,-3.3111,-3.3111,-3.3111,-3.3111,-3.2943,-3.2365,-3.2215,-3.2064,-3.1512,-3.0904,-3.0448,-3.0448,-2.9959,-2.9075,-2.7714,-2.7439,-2.704,-2.5739,-2.5349,-2.5157,-2.4909,-2.4965,0.0,-2.3017,-2.2674,-2.1947,-2.026,0.0,0.0,-1.7812,-1.6971,-1.6747,-1.7482,-1.6357,-1.5693,-1.5789,-1.5624,-1.5794,-1.6395,-1.5605,-1.558,-1.6292,-1.5573,-1.5001,-1.4533,-1.1393,-1.0464,0.0,0.0,0.0,0.0,0.0,0.0,0.0,0.0,0.0,0.0,0.0,0.0,0.0,0.0,0.0,-4.0148,-4.3363,-4.5794,-4.6708,-4.7649,-4.7806,-4.663,-4.6891,-4.6996,-4.6525,-4.6473,-4.6238,-4.5663,-4.5581,-4.5375,-4.4694,-4.4668,0.0,-4.4668,-4.4617,-4.4565,-4.4565,-4.399,-4.365,-4.3572,0.0,0.0,-4.1977,-4.1533,-4.1246,-4.1115,-4.0618,-4.0278,-4.0017,-3.9076,-3.8397,-3.7848,-3.7201,-3.6129,-3.4874,-3.4659,-3.4093,-3.3386,-3.3368,-3.324,-3.3111,-3.3111,-3.3111,-3.3111,-3.3111,-3.3111,0.0,-3.3111,-3.3111,-3.2943,-3.2365,-3.2215,-3.2064,-3.1512,-3.0474,-2.9553,-2.9553,-2.8552,-2.7405,-2.6695,-2.654,-2.6339,-2.5622,-2.5179,-2.489,-2.4835,-2.4045,-2.3186,-2.2479,-2.184,-2.1012,-1.9968,-1.9233,-1.8677,-1.8287,-1.7696,-1.744,-1.7647,-1.7308,-1.7062,-1.6968,-1.6925,-1.6965,-1.7108,-1.7612,-1.7935,-1.8102,-1.7894,-1.7823,-1.7823,-1.4653,-1.3435,0.0,0.0,0.0,0.0,0.0,0.0,0.0,0.0,0.0,0.0,0.0,-3.3584,0.0,0.0,-4.0775,-4.3101,-4.5401,-4.71,-4.7675,-4.8277,-4.8303,-4.744,-4.7597,-4.7649,-4.7362,-4.7336,-4.697,-4.6107,-4.6055,-4.5663,-4.4774,-4.4668,-4.4668,-4.4668,-4.4668,-4.4668,-4.4668,-4.4434,-4.4147,-4.3912,-4.3337,-4.2761,-4.2211,-4.1873,-4.1585,-4.1298,-4.101,-4.054,-3.9913,-3.8789,-3.8135,-3.7874,-3.756,-3.659,-3.5305,-3.4916,-3.4195,-3.3386,-3.3283,-3.3197,-3.3111,-3.3111,-3.3111,-3.3111,-3.3111,-3.3111,-3.3111,-3.3111,-3.3111,-3.3061,-3.2717,-3.2641,-3.2439,-3.1674,-3.0785,-2.9912,-2.9423,-2.8495,-2.7619,-2.6867,-2.6579,-2.6168,-2.5452,-2.4781,-2.4442,-2.4732,-2.3973,-2.3176,-2.2695,-2.2084,-2.1364,-2.0564,-1.9772,-1.9287,-1.9106,-1.8627,-1.8153,-1.7719,-1.7864,-1.8027,-1.8189,-1.8112,-1.8316,-1.8831,-1.9109,-1.9298,-1.9422,-1.9278,-1.9076,-1.8764,-1.7189,-1.6225,0.0,0.0,0.0,0.0,0.0,0.0,0.0,0.0,-3.2458,-3.3781,-3.5757,-3.79,-3.9913,-4.2134,-4.4225,-4.5872,-4.7179,-4.8094,-4.8329,-4.846,-4.8381,-4.8068,-4.812,-4.8172,-4.8172,-4.8068,-4.7597,-4.6552,-4.6369,-4.5846,-4.4774,-4.4668,-4.4668,-4.4668,-4.4668,-4.4668,-4.4668,-4.4668,-4.4487,-4.4042,-4.3807,-4.3232,-4.2317,-4.2108,-4.1742,-4.1324,-4.1324,-4.0723,-3.9677,-3.8658,-3.8161,-3.8057,-3.7906,-3.702,-3.583,-3.5087,-3.4305,-3.3606,-3.329,-3.3111,-3.3111,-3.3111,-3.3111,-3.3111,-3.3111,-3.3111,-3.3068,-3.2853,-3.281,-3.2766,-3.2568,-3.2525,-3.2351,-3.1536,-3.0778,-3.0027,-2.9212,-2.8518,-2.7787,-2.7106,-2.667,-2.615,-2.5446,-2.4674,-2.426,-2.4581,-2.3963,-2.334,-2.2972,-2.2496,-2.1895,-2.1188,-2.0452,-2.0031,-1.9927,-1.9575,-1.9023,-1.8267,-1.8589,-1.894,-1.9347,-1.9199,-1.9514,-2.0374,-2.0226,-2.0195,-2.038,-2.026,-1.9916,-1.9401,-1.9364,-1.8561,-2.7568,-2.6817,-2.768,-3.0637,-3.1381,-3.2501,0.0,0.0,-3.7984,-3.8684,-4.0252,-4.1716,-4.25,-4.4539,-4.6499,-4.7702,-4.9322,-5.008,-4.9113,-4.9401,-4.9139,-4.7597,-4.7885,-4.8172,-4.8172,-4.7728,-4.7153,-4.6525,-4.6003,-4.5428,-4.4774,-4.4668,-4.4668,-4.4668,-4.4668,-4.4668,-4.4668,-4.4668,-4.4696,-4.4617,-4.3598,-4.3049,-4.2892,-4.1873,-4.1376,-4.1324,-4.1324,-4.0932,-4.0278,-3.9677,-3.9102,-3.8533,-3.7852,-3.7025,-3.6199,-3.5786,-3.5156,-3.4356,-3.3606,-3.324,-3.3111,-3.3111,-3.3111,-3.3111,-3.3111,-3.3111,-3.2896,-3.2021,-3.1757,-3.1581,-3.0756,-3.0531,-3.0486,-3.0396,-2.9286,-2.8252,-2.8162,-2.7117,-2.619,-2.6055,-2.6014,-2.5927,-2.5858,-2.5399,-2.4821,-2.4096,-2.3219,-2.2637,-2.2535,-2.2157,-2.1645,-2.1155,-2.1031,-2.0803,-2.0389,-2.0271,-2.0189,-2.0085,-2.0127,-2.0189,-2.023,-2.023,-2.0292,-2.0395,-2.0751,-2.0958,-2.1015,-2.122,-2.1387,-2.1463,-2.1273,-1.9961,-3.0163,-2.9928,-3.0764,-3.3247,-3.48,-3.6515,-3.9102,-4.0226,-4.0984,-4.1899,-4.3206,-4.446,-4.5375,-4.6891,-4.8146,0.0,-4.9584,-5.0002,-4.9191,-4.8982,-4.8381,-4.6996,-4.7048,-4.7179,-4.7179,-4.7283,-4.6913,-4.6055,-4.6081,-4.5715,-4.4774,-4.4668,-4.4668,-4.4668,-4.4668,-4.4668,-4.4668,-4.4668,-4.4668,-4.4668,-4.4251,-4.3833,-4.3493,-4.2683,-4.1951,-4.1298,-4.0958,-4.0644,-4.0357,-3.9442,-3.8945,-3.8658,-3.797,-3.7422,-3.6928,-3.6154,-3.5321,-3.4616,-3.4275,-3.3909,-3.3458,-3.2882,-3.2509,-3.2133,-3.1581,-3.138,-3.1315,-3.089,-3.08,-3.0666,-3.0306,-3.0215,-3.0034,-2.9441,-2.8848,-2.8234,-2.77,-2.7133,-2.6729,-2.6729,-2.6501,-2.6335,-2.6335,-2.5916,-2.5482,-2.5109,-2.4095,-2.3205,-2.2936,-2.2729,-2.2335,-2.159,-2.1507,-2.1217,-2.0457,-2.0395,-2.0395,-2.0395,-2.0395,-2.0498,-2.0824,-2.0824,-2.0948,-2.1217,-2.1424,-2.1507,-2.1507,-2.1638,-2.1721,-2.1797,-2.1703,-2.0946,-3.1771,-3.2489,-3.3744,-3.6123,-3.8318,-4.0252,-4.1559,-4.2762,-4.3781,-4.446,-4.5401,-4.6316,-4.697,-4.8041,-4.8878,-4.9061,-4.9531,-4.9688,-4.9165,-4.8564,-4.7571,-4.595,-4.5767,-4.5689,-4.5532,-4.6342,-4.6469,-4.5634,-4.5846,-4.5611,-4.4774,-4.4668,-4.4668,-4.4668,-4.4668,-4.4668,-4.4668,-4.4668,-4.4668,-4.4668,-4.4565,-4.4199,-4.3624,-4.2892,-4.2108,-4.1298,-4.0853,-4.0671,-4.0592,-3.9599,-3.9102,-3.8893,-3.8298,-3.7846,-3.7407,-3.6463,-3.5679,-3.5017,-3.4776,-3.4449,-3.392,-3.2804,-3.213,-3.1615,-3.0532,-3.0215,-3.0125,-2.9852,-2.9806,-2.9715,-2.9486,-2.9395,-2.9211,-2.8491,-2.8305,-2.8139,-2.7452,-2.7309,-2.7309,-2.7309,-2.704,-2.6812,-2.6812,-2.6418,-2.6107,-2.6107,-2.5174,-2.4219,-2.3639,-2.335,-2.2936,-2.2252,-2.2066,-2.1735,-2.1052,-2.0886,-2.0803,-2.0803,-2.0803,-2.0948,-2.13,-2.13,-2.1466,-2.1797,-2.1797,-2.1797,-2.1797,-2.1797,-2.1797,-2.1797,-2.1797,-2.1568,0.0,0.0,-3.5286,-3.9259,-4.1585,-4.3337,-4.5033,-4.6369,-4.7022,-4.6499,-4.6865,-4.7127,-4.6604,-4.744,-4.8407,-4.8982,-4.9531,-4.9688,-4.9165,-4.8564,-4.7127,-4.4331,-4.4017,-4.3729,0.0,-4.467,-4.5663,-4.5581,-4.5088,-4.4774,-4.4668,-4.4668,-4.4668,-4.4668,-4.4668,-4.4668,-4.4668,-4.4668,-4.4668,-4.4668,-4.4173,-4.3598,-4.2997,-4.1873,-4.135,-4.1324,-4.1298,-4.1298,-4.1246,-4.0618,-4.0043,-3.9473,-3.8709,-3.8044,-3.7413,-3.6896,-3.6328,-3.575,-3.4947,-3.468,-3.442,-3.2925,-3.2391,-3.2115,-3.0625,-3.0215,-2.9988,-2.9048,-2.8771,-2.8538,-2.762,-2.7404,-2.7404,-2.7357,-2.7357,-2.7309,-2.7309,-2.7309,-2.7309,-2.7309,-2.7289,-2.7289,-2.7289,-2.6895,-2.6604,-2.6604,-2.6169,-2.5502,-2.4569,-2.3722,-2.3184,-2.3143,-2.2749,-2.2459,-2.2439,-2.2025,-2.1756,-2.1756,-2.1756,-2.1776,-2.1776,-2.1776,-2.1797,-2.1797,-2.1797,-2.1797,-2.1797,-2.1797,-2.1797,-2.1797,-2.1797,-2.1797,0.0,0.0,-3.8135,-4.1794,-4.3729,-4.5192,-4.6917,-4.7336,-4.7226,-4.7074,-4.5976,-4.5088,-4.5271,-4.5637,-4.6212,-4.7205,-4.8773,-4.9688,-4.9165,-4.8904,-4.7702,-4.4826,-4.4514,0.0,0.0,0.0,0.0,-4.5009,-4.5558,-4.5558,-4.472,-4.5114,-4.5085,-4.4694,-4.4668,-4.4668,-4.4668,-4.4668,-4.4668,-4.4668,-4.4539,-4.3938,-4.3023,-4.2631,-4.203,-4.1324,-4.1324,-4.1324,-4.1272,-4.0671,-4.0305,-4.0095,-3.9425,-3.8756,-3.8101,-3.8082,-3.7384,-3.6265,-3.5127,-3.4503,-3.3928,-3.2009,-3.0934,-3.0182,-2.9037,-2.8494,-2.8211,-2.7857,-2.7762,-2.7752,-2.771,-2.7696,-2.7779,-2.809,-2.8152,-2.8152,-2.8152,-2.7924,-2.7696,-2.7696,-2.7469,-2.7309,-2.7309,-2.7185,-2.6978,-2.6667,-2.621,-2.5771,-2.5461,-2.4902,-2.4426,-2.4115,-2.3681,-2.3287,-2.2977,-2.2811,-2.2729,-2.2729,-2.2729,-2.2729,-2.2729,-2.2418,-2.2273,-2.2273,-2.1963,-2.1797,-2.1797,-2.2108,-2.2273,-2.2273,-2.2273,-2.2273,0.0,-3.8684,-4.1324,-4.4591,-4.5976,-4.6787,-4.7675,-4.744,-4.6865,-4.6212,-4.4434,-4.2944,-4.2918,-4.2735,-4.3101,-4.467,-4.6159,-4.7362,-4.8068,-4.7806,-4.6787,-4.4696,-4.4514,-4.3938,0.0,0.0,0.0,-4.4382,-4.5506,-4.5846,-4.5033,-4.5373,-4.5399,-4.5007,-4.4826,-4.4668,-4.4668,-4.4668,-4.4668,-4.4668,-4.4513,-4.3938,-4.3023,-4.2814,-4.2213,-4.1324,-4.1324,-4.1324,-4.1298,-4.0906,-4.0618,-4.0334,-3.9677,-3.8991,-3.8287,-3.7888,-3.7046,-3.601,-3.5357,-3.4703,-3.3887,-3.1654,-3.045,-2.9732,-2.8509,-2.7966,-2.7738,-2.7738,-2.7738,-2.7821,-2.809,-2.8173,-2.8235,-2.8545,-2.8607,-2.8566,-2.84,-2.8131,-2.7883,-2.7717,-2.7496,-2.7309,-2.7309,-2.7309,-2.7206,-2.6915,-2.6604,-2.6293,-2.5916,-2.5627,-2.5295,-2.4797,-2.4385,-2.3929,-2.3474,-2.3287,-2.3184,-2.3184,-2.3184,-2.3184,-2.3184,-2.2894,-2.2749,-2.2749,-2.2294,-2.2045,-2.2045,-2.219,-2.2252,-2.2252,-2.2252,-2.2136,-4.0252,-4.2735,-4.4722,-4.7571,-4.8198,-4.7989,-4.7466,-4.6787,-4.582,-4.4095,-4.2291,-4.0697,0.0,0.0,-3.939,-4.1793,-4.2316,-4.3415,-4.6133,-4.5637,-4.4748,0.0,0.0,0.0,0.0,0.0,0.0,-4.4017,0.0,-4.5663,-4.5663,-4.5663,-4.5663,-4.5581,-4.4981,-4.4668,-4.4668,-4.4668,-4.4668,-4.4668,-4.4173,-4.3624,-4.3049,-4.25,-4.1925,-4.135,-4.135,-4.135,-4.1324,-4.1324,-4.0934,-4.0314,-3.9546,-3.8866,-3.8064,-3.6512,-3.5521,-3.5146,-3.5394,-3.5084,-3.4193,-3.1689,-3.0815,-3.0578,-2.9074,-2.8628,-2.8607,-2.8607,-2.8607,-2.8628,-2.8649,-2.8649,-2.8649,-2.8669,-2.869,-2.8566,-2.8131,-2.8007,-2.7862,-2.7475,-2.733,-2.7309,-2.7309,-2.7309,-2.7309,-2.7309,-2.7309,-2.6978,-2.6107,-2.5937,-2.5751,-2.5316,-2.4817,-2.4363,-2.395,-2.3515,-2.3267,-2.3267,-2.3267,-2.3267,-2.3267,-2.3246,-2.3225,-2.3225,-2.277,-2.2542,-2.2522,-2.2108,-2.1901,-2.188,-2.188,-2.1553,-4.3075,-4.514,-4.6944,-4.8956,-4.8486,-4.7519,-4.7304,-4.5558,-4.3546,-4.2239,-3.9233,-3.7011,0.0,0.0,0.0,-4.1089,-4.3702,0.0,-4.6944,-4.7623,0.0,-4.6578,0.0,-4.5584,-4.5009,-4.5088,0.0,0.0,-4.5846,-4.6264,-4.6264,-4.6264,-4.6055,-4.5637,-4.4981,-4.4668,-4.4668,-4.4668,-4.4668,-4.4668,-4.4591,-4.4199,-4.365,-4.3546,-4.2944,-4.1951,-4.1951,-4.1716,-4.1324,-4.1324,-4.0869,-4.0159,-3.9956,-3.9094,-3.7935,-3.7292,-3.6212,-3.497,-3.4038,-3.3144,-3.2151,-3.0687,-2.9971,-2.9627,-2.9268,-2.8897,-2.8607,-2.8607,-2.8607,-2.869,-2.9042,-2.9125,-2.9208,-2.9559,-2.9642,-2.9622,-2.9497,-2.9187,-2.8814,-2.8359,-2.7717,-2.7309,-2.7309,-2.7309,-2.7309,-2.7309,-2.7309,-2.7226,-2.6978,-2.6646,-2.6252,-2.5751,-2.5316,-2.4817,-2.4363,-2.4218,-2.4156,-2.4156,-2.4156,-2.4156,-2.4156,-2.3867,-2.3701,-2.3701,-2.3246,-2.3018,-2.3018,-2.3246,-2.3163,-2.2832,-2.2832,-2.2567,-4.595,-4.7362,-4.8329,-4.9296,-4.8224,-4.663,-4.5349,-4.3232,-4.0984,-3.9076,-3.607,0.0,-3.4591,-3.4946,0.0,0.0,0.0,0.0,-4.6316,-4.7362,-4.7885,0.0,-4.7414,0.0,-4.6365,-4.6369,-4.6369,0.0,-4.6682,-4.6865,-4.6865,-4.6604,-4.6316,-4.6003,-4.5166,-4.4668,-4.4668,-4.4668,-4.4668,-4.4668,-4.4668,-4.4434,-4.3912,-4.3912,-4.3311,-4.2211,0.0,-4.1847,-4.1324,-4.1324,-4.0846,-4.0032,-3.9364,-3.8362,-3.7202,-3.6171,-3.4956,-3.3682,-3.2673,-3.1731,-3.0785,-3.0203,-2.9829,-2.9601,-2.9601,-2.9415,-2.9228,-2.9228,-2.9228,-2.929,-2.9539,-2.9601,-2.9684,-2.9932,-2.9994,-2.9932,-2.9746,-2.9497,-2.9104,-2.8442,-2.7903,-2.7489,-2.7351,-2.7309,-2.7309,-2.7309,-2.7309,-2.7309,-2.7309,-2.7081,-2.675,-2.6273,-2.5958,-2.5627,-2.5171,-2.513,-2.5047,-2.4817,-2.4797,-2.4714,-2.4507,-2.4302,-2.4157,-2.4157,-2.3722,-2.3494,-2.3494,-2.3536,-2.3432,-2.3184,-2.2859,-2.2413,-4.8564,-4.9244,-4.9165,-4.9113,-4.7649,-4.5506,-4.2735,-4.0488,-3.824,-3.5417,0.0,-3.138,-3.1562,-3.2202,-3.3692,-3.6724,0.0,-4.1847,-4.5271,-4.629,-4.71,-4.8172,-4.8355,-4.8224,-4.7728,-4.7597,-4.7571,-4.7571,-4.7435,-4.744,-4.744,-4.6891,-4.6525,-4.6369,-4.5297,-4.4668,-4.4668,-4.4668,-4.4668,-4.4668,-4.4668,-4.446,-4.399,-4.399,-4.3336,-4.2215,0.0,0.0,-4.1076,-4.1149,-4.0593,-3.9647,-3.8271,-3.721,-3.6185,-3.4323,-3.3061,-3.2187,-3.16,-3.0822,-3.0077,-3.0015,-3.0036,-3.0098,-3.0098,-3.0098,-3.0098,-3.0098,-3.0036,-2.9994,-2.9994,-2.9994,-2.9994,-2.9994,-2.9994,-2.9891,-2.9477,-2.9352,-2.9063,-2.8255,-2.8048,-2.7883,-2.7558,-2.7496,-2.7475,-2.7413,-2.7392,-2.7372,-2.7309,-2.7309,-2.7123,-2.6667,-2.6625,-2.6418,-2.5962,-2.5875,-2.5709,-2.5292,-2.521,-2.5003,-2.4611,-2.4528,-2.4507,-2.4507,-2.4157,-2.3971,-2.3971,-2.3557,-2.3329,-2.3287,-2.2531,-2.1853,-4.9949,-5.0132,-4.9636,-4.9191,-4.7048,-4.4434,-4.2004,-3.8658,0.0,0.0,-3.0581,-2.9274,-3.0205,-3.1679,-3.3953,-3.7795,-4.0357,-4.2918,-4.5898,-4.7231,-4.8146,0.0,-4.9322,-4.9557,0.0,0.0,0.0,0.0,0.0,0.0,-4.8041,-4.7492,-4.6761,-4.582,-4.5088,-4.4668,-4.4668,-4.4668,-4.4668,-4.4668,-4.4668,-4.467,-4.4591,-4.4591,-4.3823,-4.2483,0.0,0.0,-3.9957,-4.0209,-3.9389,-3.7873,-3.7103,-3.6317,-3.5411,-3.4121,-3.3274,-3.2632,-3.1725,-3.1029,-3.0512,-3.0118,-3.0243,-3.0574,-3.0574,-3.0574,-3.0574,-3.0574,-3.0284,-2.9994,-2.9994,-2.9994,-2.9994,-2.9994,-2.9994,-2.9973,-2.9891,-2.958,-2.9249,-2.9104,-2.8752,-2.8462,-2.84,-2.838,-2.8255,-2.7862,-2.78,-2.7676,-2.7351,-2.7309,-2.7123,-2.6667,-2.6625,-2.6418,-2.5962,-2.5875,-2.5899,-2.5771,-2.544,-2.5148,-2.5065,-2.4693,-2.4507,-2.4507,-2.4425,-2.4383,-2.4383,-2.4301,-2.4115,-2.3764,-2.3034,-2.2397,-5.0394,-5.0342,-4.9688,-4.8826,-4.6212,-4.2944,-3.9416,0.0,0.0,0.0,-2.8255,-2.7758,-2.8586,-3.0424,-3.2725,-3.5574,-3.7978,-4.0592,-4.3781,-4.548,-4.6944,-4.8433,-4.9374,-4.9793,0.0,0.0,0.0,0.0,0.0,0.0,-4.8172,-4.7649,-4.66,-4.5218,-4.5192,-4.5036,-4.4668,-4.4668,-4.4668,-4.4668,-4.4668,-4.4668,-4.4668,-4.4232,-4.346,-4.2493,0.0,0.0,-3.9603,-3.9457,-3.8687,-3.7447,-3.6834,-3.5936,-3.4825,-3.3952,-3.2944,-3.2036,-3.1553,-3.1071,-3.0657,-3.0429,-3.0512,-3.0677,-3.0677,-3.0677,-3.0677,-3.0677,-3.0532,-3.0346,-3.0346,-3.0346,-3.0346,-3.0346,-3.018,-2.9994,-2.9994,-2.9829,-2.9601,-2.9352,-2.9125,-2.8897,-2.8649,-2.8607,-2.8545,-2.8317,-2.809,-2.7841,-2.7634,-2.7455,-2.7226,-2.6998,-2.6978,-2.6895,-2.6667,-2.6646,-2.6542,-2.6293,-2.6041,-2.5813,-2.5585,-2.5357,-2.5233,-2.5233,-2.4962,-2.4859,-2.4859,-2.4611,-2.4383,-2.4177,-2.3113,-2.2481,-5.008,-5.008,-4.9453,-4.8303,-4.5401,-4.1664,-3.7142,-3.3651,0.0,-2.7183,-2.6431,-2.6562,-2.721,-2.9039,-3.113,-3.3247,-3.5312,-3.7926,-4.1688,-4.365,-4.5558,0.0,-4.9113,0.0,0.0,0.0,0.0,0.0,0.0,0.0,-4.8172,-4.7649,-4.6656,-4.514,-4.5454,-4.5294,-4.4694,-4.4505,-4.4396,-4.4396,-4.4232,-4.4097,-4.4097,-4.3436,-4.274,-4.2068,0.0,0.0,0.0,-3.8693,-3.8003,-3.7203,-3.6588,-3.5608,-3.4435,-3.384,-3.2777,-3.165,-3.1547,-3.1278,-3.0967,-3.0864,-3.0905,-3.0967,-3.0967,-3.0967,-3.0967,-3.0967,-3.0905,-3.0843,-3.0843,-3.076,-3.0657,-3.0553,-3.0346,-3.0118,-3.0015,-2.9994,-2.9891,-2.9518,-2.9456,-2.9332,-2.898,-2.8918,-2.8876,-2.8773,-2.8442,-2.8152,-2.7945,-2.7614,-2.7413,-2.7309,-2.7309,-2.7309,-2.7309,-2.7309,-2.7143,-2.6791,-2.6667,-2.6459,-2.6086,-2.5937,-2.5875,-2.5875,-2.5544,-2.5228,-2.5013,-2.4702,-2.4431,-2.4155,-2.2986,-2.2445,-4.8773,-4.9191,-4.8878,-4.7702,-4.48,-4.1167,-3.7037,0.0,-2.9422,-2.6472,-2.5484,-2.5489,-2.6588,-2.7818,-2.9755,-3.3064,-3.4633,-3.7037,-4.1583,-4.3729,-4.5428,-4.7205,0.0,0.0,0.0,0.0,0.0,0.0,0.0,0.0,0.0,-4.7649,-4.7022,-4.6342,-4.5872,-4.5294,-4.4694,-4.3878,-4.3517,-4.3517,-4.2656,-4.2238,-4.2238,-4.2182,-4.1647,-4.0832,0.0,0.0,0.0,-3.7713,-3.715,-3.6363,-3.5763,-3.508,-3.4435,-3.384,-3.3176,-3.254,-3.207,-3.1884,-3.1802,-3.1443,-3.1588,-3.1864,-3.1864,-3.1864,-3.1864,-3.1864,-3.1629,-3.1319,-3.1319,-3.1008,-3.0574,-3.016,-3.0346,-3.0512,-3.0077,-2.9994,-2.9973,-2.9932,-2.9932,-2.9911,-2.987,-2.987,-2.9725,-2.9311,-2.9208,-2.8876,-2.8028,-2.7883,-2.7696,-2.7351,-2.7309,-2.7309,-2.7309,-2.7309,-2.7289,-2.7247,-2.6853,-2.6604,-2.6563,-2.6148,-2.5875,-2.5875,-2.5834,-2.5337,-2.4306,-2.4575,-2.4127,-2.3126,-2.2676,-2.2514,-4.7283,-4.8041,-4.7911,-4.7383,-4.4199,-4.0043,-3.5992,0.0,-2.8699,-2.5458,-2.4883,-2.5358,-2.651,-2.7085,-2.8255,-3.1052,-3.1601,-3.3169,-3.7429,-3.9547,-4.1794,-4.4879,-4.7074,0.0,0.0,0.0,0.0,0.0,0.0,0.0,0.0,-4.7963,-4.7414,-4.6499,-4.5731,-4.5037,-4.4472,-4.3224,-4.2544,-4.2544,-4.2182,-4.2012,-4.1955,-4.1468,-4.1009,-4.0616,0.0,0.0,0.0,-3.7052,-3.658,-3.6223,-3.5653,-3.5046,-3.4435,-3.384,-3.305,-3.2235,-3.205,-3.1857,-3.165,-3.1754,-3.1899,-3.1988,-3.1988,-3.1857,-3.1692,-3.1905,-3.1712,-3.1443,-3.1712,-3.1629,-3.1381,-3.0926,-3.0967,-3.105,-3.0864,-3.0822,-3.0739,-3.047,-3.0408,-3.0325,-3.0036,-2.9994,-2.9932,-2.9746,-2.9477,-2.9166,-2.8794,-2.8504,-2.8276,-2.809,-2.7641,-2.7309,-2.7309,-2.7309,-2.7309,-2.7309,-2.7123,-2.704,-2.704,-2.6853,-2.675,-2.675,-2.648,-2.5885,-2.4901,-2.4544,-2.3926,-2.3002,-2.2181,-2.1825,-4.4905,-4.6316,-4.673,-4.6547,-4.3101,-3.873,0.0,0.0,-2.7728,-2.4602,-2.451,-2.528,-2.6274,-2.6687,-2.7523,-2.9327,-2.9849,-3.1171,-3.4386,-3.6493,-3.8891,0.0,0.0,0.0,0.0,0.0,0.0,0.0,0.0,0.0,0.0,-4.7782,-4.734,-4.6761,-4.5674,-4.4859,-4.4325,-4.2535,-4.1639,-4.1639,-4.1329,-4.1215,-4.1182,-4.0571,-4.0281,0.0,0.0,0.0,0.0,-3.6691,-3.62,-3.5982,-3.5543,-3.4936,-3.4155,-3.3727,-3.3029,-3.2173,-3.2029,-3.1836,-3.1609,-3.1795,-3.1836,-3.1836,-3.1836,-3.1712,-3.1671,-3.207,-3.2023,-3.1816,-3.1946,-3.2091,-3.2106,-3.1526,-3.1485,-3.1547,-3.1402,-3.1381,-3.1278,-3.0946,-3.0884,-3.0739,-3.0284,-3.0201,-3.016,-3.0015,-2.9725,-2.9456,-2.9332,-2.9021,-2.8773,-2.8628,-2.8048,-2.7662,-2.7469,-2.7392,-2.7309,-2.7309,-2.7309,-2.7309,-2.7309,-2.7309,-2.7309,-2.7309,-2.6978,-2.6376,-2.5436,-2.4618,-2.3763,-2.2851,-2.1889,-2.1397,-4.1479,-4.3885,-4.5451,-4.485,-4.1438,-3.7341,0.0,-2.9968,-2.6378,-2.409,-2.4361,-2.5175,-2.572,-2.6733,-2.7673,-2.8307,-3.032,-3.2214,-3.3537,-3.5718,-3.7702,0.0,0.0,0.0,0.0,0.0,0.0,0.0,0.0,0.0,0.0,-4.6836,-4.6385,-4.7252,-4.5879,-4.4859,-4.4325,-4.1931,-4.0745,-4.0687,-3.9755,-3.9308,-3.9308,-3.9308,0.0,0.0,0.0,0.0,0.0,-3.6691,-3.5927,-3.5433,-3.5378,-3.4658,-3.3636,-3.3636,-3.3239,-3.2664,-3.2132,-3.1988,-3.1905,-3.1526,-3.1381,-3.1381,-3.1381,-3.1692,-3.207,-3.2545,-3.2669,-3.2545,-3.2112,-3.2318,-3.2499,-3.1588,-3.1712,-3.1864,-3.1485,-3.1381,-3.1381,-3.136,-3.136,-3.1215,-3.076,-3.0677,-3.0532,-3.0056,-2.9994,-2.9829,-2.9352,-2.929,-2.9125,-2.8669,-2.8607,-2.8421,-2.7945,-2.751,-2.7309,-2.7309,-2.7309,-2.7309,-2.7309,-2.7309,-2.7309,-2.7309,-2.7309,-2.6683,-2.5511,-2.4707,-2.3738,-2.2593,-2.1787,-2.1405,-3.6201,-3.7554,-3.8173,-3.7992,-3.555,-3.2612,-3.033,-2.8068,-2.589,-2.3983,-2.402,-2.4674,-2.561,-2.6425,-2.7654,-2.9859,-3.1444,-3.2722,0.0,0.0,0.0,0.0,0.0,0.0,0.0,0.0,0.0,0.0,0.0,0.0,0.0,0.0,-4.6152,-4.6385,-4.3937,-4.2555,-4.2409,-4.0657,-3.9755,-3.9755,-3.9426,-3.9308,-3.9308,-3.9308,0.0,0.0,0.0,0.0,0.0,-3.6304,-3.5543,-3.5323,-3.4513,-3.3952,-3.3579,-3.3126,-3.2841,-3.2649,-3.2504,-3.2106,-3.1609,-3.1774,-3.1402,-3.0967,-3.1278,-3.1257,-3.1153,-3.1298,-3.1774,-3.2173,-3.2029,-3.2339,-3.2664,-3.2375,-3.2416,-3.2421,-3.2333,-3.2292,-3.2209,-3.1899,-3.1836,-3.1692,-3.1236,-3.0884,-3.0636,-3.0491,-3.0201,-2.9953,-2.9787,-2.9766,-2.9725,-2.958,-2.927,-2.8897,-2.8442,-2.7986,-2.7475,-2.6988,-2.6657,-2.6235,-2.5684,-2.5684,-2.5684,-2.5684,-2.5684,-2.5217,-2.4275,-2.3802,-2.2799,-2.1421,-2.1186,-2.0908,-3.1668,-3.3411,-3.4384,-3.405,-3.1996,0.0,0.0,-2.6442,-2.4792,-2.3523,-2.3688,-2.4288,-2.4983,-2.5942,-2.7129,-2.8702,-3.0788,0.0,0.0,0.0,0.0,0.0,0.0,0.0,0.0,0.0,0.0,0.0,0.0,0.0,0.0,0.0,-4.4491,-4.4293,-4.249,-4.1507,-4.1507,-4.0011,-3.9308,-3.9308,-3.9124,-3.9033,-3.9033,0.0,0.0,0.0,0.0,0.0,0.0,-3.5992,-3.5268,-3.4991,-3.4009,-3.3466,-3.3239,-3.2841,-3.2566,-3.2401,-3.2271,-3.1733,-3.1133,-3.1236,-3.0884,-3.047,-3.076,-3.0905,-3.0905,-3.0739,-3.134,-3.1988,-3.1988,-3.2339,-3.2669,-3.2669,-3.2669,-3.2669,-3.2669,-3.2669,-3.2587,-3.2297,-3.2235,-3.2106,-3.1485,-3.1133,-3.0822,-3.047,-3.018,-2.9889,-2.9554,-2.9501,-2.9501,-2.9501,-2.9257,-2.9075,-2.9115,-2.8545,-2.7828,-2.7033,-2.6586,-2.5986,-2.5131,-2.4979,-2.4884,-2.4884,-2.4884,-2.4639,-2.4165,-2.3517,-2.2481,-2.1079,-2.1079,-2.0942,0.0,-3.0828,-3.2947,-3.2123,-2.9991,-2.7854,-2.6887,-2.492,0.0,-2.2788,-2.3368,-2.396,-2.4035,-2.535,-2.6307,-2.5921,0.0,0.0,0.0,-3.4703,0.0,0.0,0.0,0.0,0.0,0.0,0.0,0.0,0.0,0.0,0.0,0.0,0.0,-4.1413,-4.1365,-4.1342,-4.1342,-3.9965,-3.9262,-3.9239,-3.8757,-3.8527,-3.8527,0.0,0.0,0.0,0.0,0.0,0.0,-3.5801,-3.4991,-3.4379,-3.3784,-3.3182,-3.2727,-3.2628,-3.2359,-3.1926,-3.1526,-3.1071,-3.0615,-3.0139,-2.9994,-2.9994,-2.9994,-3.0594,-3.1195,-3.076,-3.1298,-3.1946,-3.1946,-3.2297,-3.2669,-3.2669,-3.2669,-3.2669,-3.2669,-3.2669,-3.2669,-3.2669,-3.2669,-3.2457,-3.1609,-3.1422,-3.1091,-3.0169,-2.9931,-2.9606,-2.8741,-2.8635,-2.8635,-2.8635,-2.8635,-2.8953,-2.9837,-2.9115,-2.8248,-2.7317,-2.6922,-2.6337,-2.5434,-2.497,-2.4794,-2.4794,-2.4756,-2.4737,-2.4737,-2.3682,-2.2593,-2.1456,-2.1456,-2.1439,-2.3186,0.0,-2.5802,-2.5203,-2.4353,-2.3652,0.0,-2.3074,-2.2837,-2.2714,-2.3039,-2.3547,-2.4399,-2.5234,-2.6348,-2.7943,0.0,0.0,-3.2634,0.0,0.0,0.0,0.0,0.0,0.0,0.0,0.0,0.0,0.0,0.0,0.0,0.0,0.0,-4.0462,-4.0032,-3.9823,-3.9823,-3.9104,-3.8757,-3.8757,-3.8229,-3.7976,-3.7976,0.0,0.0,0.0,0.0,0.0,0.0,-3.5135,-3.4379,-3.3727,-3.3126,-3.2841,-3.2685,-3.2277,-3.207,-3.1926,-3.1526,-3.1071,-3.0615,-3.0139,-2.9994,-2.9994,-2.9994,-3.0139,-3.0305,-3.0201,-3.0822,-3.1526,-3.1526,-3.2126,-3.2669,-3.2669,-3.2669,-3.2669,-3.2669,-3.2669,-3.2669,-3.2669,-3.2669,-3.2607,-3.2457,-3.1836,-3.1079,-3.0178,-2.9447,-2.8688,-2.7814,-2.7707,-2.7707,-2.7707,-2.7707,-2.8048,-2.89,-2.9095,-2.8512,-2.6993,-2.6557,-2.5661,-2.421,-2.3737,-2.3526,-2.3526,-2.3296,-2.3138,-2.3138,-2.285,-2.2425,-2.1867,-2.1867,-2.1696,-2.1898,-2.2792,-2.3698,-2.3025,-2.2715,-2.2558,-2.2558,-2.2522,-2.2475,-2.2475,-2.2769,-2.3237,-2.3828,-2.4567,-2.5719,0.0,-3.0438,0.0,0.0,0.0,0.0,0.0,0.0,0.0,0.0,0.0,0.0,0.0,0.0,0.0,0.0,0.0,0.0,0.0,-3.9446,-3.9193,-3.8964,-3.8711,-3.8459,-3.8206,-3.7701,-3.7448,-3.7448,0.0,0.0,0.0,0.0,0.0,-3.5703,-3.4544,-3.3896,-3.3501,-3.2726,-3.2359,-3.2297,-3.1899,-3.1609,-3.1381,-3.1133,-3.076,-3.0325,-3.0077,-2.9994,-2.9994,-2.9994,-2.9994,-2.9994,-2.9994,-3.0512,-3.1112,-3.1319,-3.1899,-3.2401,-3.2628,-3.2669,-3.2669,-3.2669,-3.2669,-3.2669,-3.2669,-3.2669,-3.2545,-3.2188,-3.1523,-3.0651,-2.961,-2.8941,-2.8148,-2.6954,-2.6956,-2.7012,-2.6808,-2.6789,-2.7168,-2.8028,-2.8311,-2.8068,-2.7115,-2.6296,-2.5285,-2.3975,-2.358,-2.3306,-2.3117,-2.2791,-2.2603,-2.2603,-2.2603,-2.25,-2.2294,-2.2294,-2.2191,-2.239,-2.3474,-2.428,-2.3168,-2.3023,-2.3119,-2.3023,-2.2702,-2.2438,-2.2438,-2.283,-2.3192,-2.3304,-2.4121,0.0,0.0,0.0,0.0,0.0,0.0,0.0,0.0,0.0,0.0,0.0,0.0,0.0,0.0,0.0,0.0,0.0,0.0,0.0,0.0,-3.9239,-3.8964,-3.8459,-3.8459,-3.8206,-3.7655,-3.715,-3.692,-3.692,-3.692,0.0,0.0,0.0,0.0,-3.5046,-3.4009,-3.3537,-3.3261,-3.2357,-3.1946,-3.1878,-3.1443,-3.1029,-3.0677,-3.0615,-3.0325,-2.9994,-2.9994,-2.9994,-2.9994,-2.9994,-2.9994,-2.9994,-2.9994,-3.0325,-3.0781,-3.1174,-3.165,-3.2091,-3.2483,-3.2628,-3.2669,-3.2669,-3.2669,-3.2669,-3.2669,-3.2669,-3.2401,-3.1443,-3.0858,-3.0043,-2.8667,-2.8344,-2.766,-2.6207,-2.6274,-2.6328,-2.5916,-2.5935,-2.6245,-2.7114,-2.706,-2.706,-2.7168,-2.6206,-2.5201,-2.423,-2.3939,-2.3597,-2.3203,-2.2826,-2.2688,-2.2688,-2.262,-2.2603,-2.2603,-2.2603,-2.2603,-2.3312,-2.4627,-2.5197,-2.2902,-2.3023,-2.3577,-2.3119,-2.3288,-2.3553,-2.3553,-2.3625,-2.3938,-2.4795,-2.5444,-2.6505,0.0,0.0,0.0,0.0,0.0,0.0,0.0,0.0,0.0,0.0,0.0,0.0,0.0,0.0,0.0,0.0,0.0,0.0,0.0,0.0,-3.8436,-3.7907,-3.7907,-3.7655,-3.715,-3.6645,-3.6392,-3.6392,-3.6392,-3.6073,0.0,0.0,0.0,-3.384,-3.3671,-3.3043,-3.2238,-3.2064,-3.1816,-3.1422,-3.0967,-3.0739,-3.0636,-3.0243,-3.0056,-2.9994,-2.9994,-2.9994,-2.9994,-2.9994,-2.9994,-2.9994,-2.9994,-3.0325,-3.0698,-3.0781,-3.1422,-3.2008,-3.207,-3.2401,-3.2669,-3.2669,-3.2669,-3.2669,-3.2669,-3.2669,-3.2276,-3.1047,-3.0482,-2.957,-2.7807,-2.7193,-2.6637,-2.5631,-2.5552,-2.5449,-2.5013,-2.4979,-2.5348,-2.6245,-2.5624,-2.5514,-2.6245,-2.6136,-2.5467,-2.4247,-2.4125,-2.3973,-2.358,-2.322,-2.3032,-2.3032,-2.2757,-2.2603,-2.2603,-2.2603,-2.2603,-2.2775,-2.3853,-2.4652,-2.3977,-2.5256,-2.6505,-2.5961,-2.601,-2.6138,-2.5776,-2.5888,-2.6154,-2.6415,0.0,-3.0212,-3.3921,0.0,0.0,0.0,0.0,0.0,0.0,0.0,0.0,0.0,0.0,0.0,0.0,0.0,0.0,0.0,0.0,0.0,0.0,0.0,-3.8206,-3.7379,-3.7379,-3.7127,-3.6622,-3.6392,-3.6332,-3.6277,-3.5927,-3.5653,0.0,0.0,-3.4121,-3.3558,-3.2966,-3.2455,-3.1926,-3.1505,-3.1174,-3.0946,-3.0491,-3.047,-3.0615,-3.016,-3.016,-3.0367,-3.0367,-3.0367,-3.0367,-3.0367,-3.0367,-3.0325,-3.0056,-3.0139,-3.0367,-3.0615,-3.1174,-3.1754,-3.1926,-3.2339,-3.2669,-3.2669,-3.2669,-3.2555,-3.2076,-3.2363,-3.2105,-3.0197,-2.9929,-2.9317,-2.73,-2.6782,-2.6197,-2.5211,-2.5241,-2.5223,-2.4864,-2.4812,-2.4979,-2.5348,-2.5034,-2.4979,-2.5348,-2.5404,-2.5113,-2.4556,-2.435,-2.4145,-2.3973,-2.3597,-2.3323,-2.3117,-2.2946,-2.2791,-2.2603,-2.2603,-2.2603,-2.2486,-2.3425,-2.4618,-2.5787,-2.7301,-2.8586,-2.8761,-2.8961,-2.895,-2.8499,-2.8709,-2.8785,0.0,-3.0257,0.0,-3.7686,0.0,0.0,0.0,0.0,0.0,0.0,0.0,0.0,0.0,0.0,0.0,0.0,0.0,0.0,0.0,0.0,0.0,0.0,0.0,0.0,-3.6979,-3.692,-3.6668,-3.6332,-3.6332,-3.6332,-3.6277,-3.5653,-3.5256,-3.4979,-3.3892,-3.3353,-3.3163,-3.2357,-3.1926,-3.1816,-3.1112,-3.0719,-3.0491,-3.0243,-3.0387,-3.0657,-3.0408,-3.0553,-3.0822,-3.0719,-3.0677,-3.0677,-3.0553,-3.0532,-3.045,-3.0098,-2.9994,-3.0077,-3.0429,-3.0756,-3.1045,-3.1441,-3.162,-3.1832,-3.2035,-3.1994,-3.1724,-3.1091,-3.1536,-3.1339,-2.9258,-2.9175,-2.8772,-2.6939,-2.658,-2.6148,-2.5206,-2.5326,-2.5326,-2.4864,-2.4812,-2.4812,-2.4812,-2.4812,-2.4812,-2.4812,-2.4812,-2.4812,-2.4812,-2.4484,-2.4313,-2.4313,-2.399,-2.3665,-2.3374,-2.3288,-2.31,-2.286,-2.2774,-2.2774,-2.3433,-2.474,-2.6297,-2.8261,-2.7802,-2.7532,-3.0021,-3.1023,-3.1436,-3.1681,-3.184,-3.1417,0.0,-3.2326,-3.5037,-3.6236,0.0,0.0,0.0,0.0,0.0,0.0,0.0,0.0,0.0,0.0,0.0,0.0,0.0,0.0,0.0,0.0,0.0,0.0,0.0,0.0,-3.6979,-3.6553,-3.63,-3.6332,-3.6332,-3.6332,-3.6277,-3.5653,-3.4857,-3.389,-3.3253,-3.2643,-3.2085,-3.2043,-3.1795,-3.1422,-3.136,-3.0801,-3.0098,-3.0491,-3.0657,-3.0739,-3.1133,-3.1298,-3.1257,-3.0822,-3.0677,-3.0615,-3.018,-3.0036,-3.0036,-2.9994,-2.9994,-2.9994,-3.0036,-2.9781,-2.963,-2.9957,-2.9573,-2.9297,-2.9947,-2.9813,-2.9661,-2.9925,-3.006,-2.9634,-2.8213,-2.8002,-2.771,-2.6641,-2.6515,-2.6336,-2.585,-2.5816,-2.556,-2.4898,-2.4812,-2.4812,-2.4812,-2.4812,-2.4812,-2.4812,-2.4812,-2.4812,-2.4812,-2.4795,-2.4778,-2.4778,-2.4384,-2.4125,-2.4091,-2.3802,-2.3667,-2.3632,-2.3237,-2.3254,-2.2678,-2.4359,-2.6416,-2.8145,-2.9353,-3.08,-3.3498,-3.4848,-3.5608,-3.5974,-3.5908,-3.5453,0.0,0.0,-3.8016,0.0,0.0,0.0,0.0,0.0,0.0,0.0,0.0,0.0,0.0,0.0,0.0,0.0,0.0,0.0,0.0,0.0,0.0,0.0,0.0,0.0,0.0,-3.6048,-3.5795,-3.5795,-3.6117,-3.6332,-3.6277,-3.5268,-3.445,-3.3737,-3.2746,-3.2045,-3.1609,-3.1319,-3.1091,-3.0926,-3.0636,-3.0305,-3.0015,-3.0201,-3.0615,-3.1091,-3.0988,-3.1319,-3.1754,-3.1588,-3.134,-3.1091,-3.0905,-3.0657,-3.0261,-2.9424,-2.9386,-2.9654,-2.9919,-2.9836,-2.9743,-2.9865,-2.9677,-2.9563,-2.9808,-2.977,-2.9519,-2.9098,-2.9471,-2.9356,-2.7688,-2.7908,-2.7878,-2.6703,-2.6491,-2.6354,-2.5919,-2.5737,-2.548,-2.5189,-2.4949,-2.4812,-2.4812,-2.4812,-2.4812,-2.4812,-2.4812,-2.4812,-2.4812,-2.4812,-2.4812,-2.4812,-2.4675,-2.4415,-2.4176,-2.4093,-2.3888,-2.3718,-2.3511,-2.3528,-2.239,-2.3846,-2.5807,-2.7792,-3.0177,-3.2911,-3.6382,-3.7848,-3.8657,-3.9598,-3.8714,-3.7624,-3.7094,0.0,0.0,0.0,0.0,0.0,0.0,0.0,0.0,0.0,0.0,0.0,0.0,0.0,0.0,0.0,0.0,0.0,0.0,0.0,0.0,0.0,0.0,0.0,0.0,-3.5772,-3.5451,-3.529,-3.5634,-3.5818,-3.5818,-3.458,-3.3857,-3.3497,-3.2167,-3.1526,-3.134,-3.0884,-3.0677,-3.0636,-3.018,-2.9994,-3.0015,-3.016,-3.0615,-3.1133,-3.0967,-3.1402,-3.1967,-3.1878,-3.1712,-3.1471,-3.0963,-3.0547,-3.0038,-2.8647,-2.8574,-2.8957,-2.9273,-2.9242,-2.9085,-2.922,-2.8953,-2.8685,-2.8943,-2.8906,-2.8674,-2.8164,-2.86,-2.86,-2.7315,-2.7554,-2.7558,-2.6643,-2.6491,-2.6302,-2.5823,-2.5634,-2.5463,-2.5223,-2.4967,-2.4812,-2.4812,-2.4812,-2.4812,-2.4812,-2.4812,-2.4812,-2.4812,-2.4812,-2.4812,-2.4812,-2.4812,-2.4693,-2.4364,-2.4364,-2.4282,-2.4025,-2.3905,-2.3905,-2.2847,-2.3408,-2.456,-2.7544,-2.9985,-3.3029,-3.8366,-3.9625,-4.019,-4.2225,-3.9848,-3.7581,-3.7954,-3.7593,0.0,0.0,0.0,0.0,0.0,0.0,0.0,0.0,0.0,0.0,0.0,0.0,0.0,0.0,0.0,0.0,0.0,0.0,0.0,0.0,0.0,0.0,0.0,-3.5749,-3.5267,-3.4785,-3.4785,-3.4785,-3.4756,-3.3604,-3.3124,-3.2974,-3.1401,-3.0946,-3.1319,-3.0864,-3.0677,-3.0636,-3.018,-2.9994,-3.0056,-3.0512,-3.0677,-3.076,-3.1215,-3.1671,-3.1905,-3.1526,-3.1671,-3.1634,-2.9948,-2.9416,-2.91,-2.7787,-2.7706,-2.7992,-2.7992,-2.7566,-2.7301,-2.7678,-2.6842,-2.6148,-2.6919,-2.6765,-2.661,-2.7004,-2.7073,-2.7073,-2.7073,-2.6747,-2.6491,-2.6491,-2.6491,-2.6217,-2.5463,-2.5703,-2.5594,-2.4898,-2.4812,-2.4812,-2.4812,-2.4812,-2.4812,-2.4812,-2.4812,-2.4812,-2.4812,-2.4812,-2.4812,-2.4812,-2.4812,-2.4812,-2.4812,-2.4812,-2.4812,-2.4812,-2.4364,-2.4398,-2.2847,-2.4369,-2.6277,-2.8394,-3.1855,-3.5703,-3.9342,-4.0514,-4.1359,-4.3398,-4.1828,-4.0163,-4.0104,0.0,0.0,0.0,0.0,0.0,0.0,0.0,0.0,0.0,0.0,0.0,0.0,0.0,0.0,0.0,0.0,0.0,0.0,0.0,0.0,0.0,0.0,0.0,0.0,0.0,-3.4188,-3.3666,-3.3305,-3.3508,-3.4208,-3.3444,-3.2715,-3.1987,-3.1114,-3.0574,-3.0387,-3.0263,-3.0201,-3.018,-3.0056,-2.9994,-3.0015,-3.016,-3.0408,-3.0698,-3.0843,-3.1195,-3.1609,-3.1795,-3.1213,-3.0494,-3.029,-2.9514,-2.8536,-2.7234,-2.734,-2.7643,-2.6743,-2.6819,-2.7215,-2.7687,-2.7263,-2.6799,-2.7021,-2.6987,-2.6936,-2.7056,-2.7073,-2.7073,-2.7073,-2.6747,-2.6491,-2.6491,-2.6268,-2.5925,-2.5429,-2.5463,-2.536,-2.4864,-2.4812,-2.4812,-2.4812,-2.4812,-2.4812,-2.4812,-2.4812,-2.4812,-2.4812,-2.4812,-2.4812,-2.4812,-2.4812,-2.4812,-2.4812,-2.4812,-2.4812,-2.4812,-2.471,-2.471,-2.366,-2.5351,-2.7506,-2.9821,-3.3328,-3.717,-4.0647,-4.2265,-4.3149,-4.3607,-4.2438,-4.1441,-4.1651,0.0,0.0,0.0,0.0,0.0,0.0,0.0,0.0,0.0,0.0,0.0,0.0,0.0,0.0,0.0,0.0,0.0,0.0,0.0,0.0,0.0,0.0,0.0,0.0,0.0,0.0,-3.2891,-3.2374,-3.2325,-3.2691,-3.2323,-3.1964,-3.1508,-3.0945,-3.0429,-2.9994,-2.9994,-2.9994,-2.9994,-2.9994,-2.9994,-2.9994,-2.9994,-3.018,-3.0408,-3.0408,-3.0719,-3.1174,-3.1629,-3.0959,-2.9944,-2.99,-2.8993,-2.775,-2.6522,-2.6699,-2.7129,-2.6334,-2.661,-2.7203,-2.7421,-2.7322,-2.7073,-2.7073,-2.7073,-2.7073,-2.7073,-2.7073,-2.7073,-2.7073,-2.6747,-2.6439,-2.6285,-2.5823,-2.5463,-2.5434,-2.5241,-2.5069,-2.4847,-2.4812,-2.4812,-2.4812,-2.4812,-2.4812,-2.4812,-2.4812,-2.4812,-2.4812,-2.4812,-2.4812,-2.4812,-2.4812,-2.4812,-2.4812,-2.4812,-2.4812,-2.4812,-2.4812,-2.4812,-2.4953,-2.6377,-2.8312,-3.1549,-3.471,-3.8079,-4.1983,-4.4193,-4.4922,-4.3208,0.0,-4.1731,-4.2627,0.0,0.0,0.0,0.0,0.0,0.0,0.0,0.0,0.0,0.0,0.0,0.0,0.0,0.0,0.0,0.0,0.0,0.0,0.0,0.0,0.0,0.0,0.0,0.0,0.0,0.0,0.0,-3.1761,-3.1292,-3.0797,-3.0806,-3.1019,-3.1339,-3.0829,-3.0387,-2.9994,-2.9994,-2.9994,-2.9994,-2.9994,-2.9994,-2.9994,-2.9994,-2.9994,-2.9994,-2.9994,-3.0263,-3.0698,-3.1099,-3.064,-2.9734,-2.8915,-2.7974,-2.6914,-2.5748,-2.5891,-2.6439,-2.6439,-2.673,-2.7021,-2.7021,-2.7056,-2.7073,-2.7073,-2.7039,-2.7039,-2.7073,-2.7039,-2.7021,-2.7021,-2.673,-2.6354,-2.5943,-2.5275,-2.4932,-2.5275,-2.5018,-2.4812,-2.4812,-2.4812,-2.4812,-2.4812,-2.4812,-2.4812,-2.4812,-2.4812,-2.4812,-2.4812,-2.4812,-2.4812,-2.4812,-2.4812,-2.4812,-2.4812,-2.4812,-2.4812,-2.4812,-2.4812,-2.4812,-2.5422,-2.7163,-2.9329,-3.271,-3.7286,-4.1182,-4.2028,-4.3083,-4.3751,-4.3336,-4.2519,-4.2061,0.0,0.0,0.0,0.0,0.0,0.0,0.0,0.0,0.0,0.0,0.0,0.0,0.0,0.0,0.0,0.0,0.0,0.0,0.0,0.0,0.0,0.0,0.0,0.0,-3.3614,-3.2898,-3.2279,0.0,-3.1197,-3.0893,-3.0724,-3.0768,-3.0641,-3.0349,-3.0192,-3.0098,-2.9994,-2.9994,-2.9994,-2.9994,-2.9994,-2.9994,-2.9994,-2.9994,-2.9994,-2.9994,-2.9994,-3.0056,-3.0116,-2.9904,-2.9227,-2.8347,-2.7806,-2.6946,-2.6088,-2.5537,-2.5703,-2.6062,-2.6062,-2.6336,-2.661,-2.661,-2.685,-2.7073,-2.7073,-2.6833,-2.6696,-2.7021,-2.6833,-2.661,-2.661,-2.6542,-2.6268,-2.5583,-2.5104,-2.4847,-2.4932,-2.4864,-2.4812,-2.4812,-2.4812,-2.4812,-2.4812,-2.4812,-2.4812,-2.4812,-2.4812,-2.4812,-2.4812,-2.4812,-2.4812,-2.4812,-2.4812,-2.4812,-2.4812,-2.4812,-2.4812,-2.4812,-2.4812,-2.4812,-2.5818,-2.7693,-3.0314,-3.5012,-3.9033,-4.1776,-4.1886,-4.2267,-4.2452,-4.1874,-4.1525,0.0,0.0,0.0,0.0,0.0,0.0,0.0,0.0,0.0,0.0,0.0,0.0,0.0,0.0,0.0,0.0,0.0,0.0,0.0,0.0,0.0,0.0,0.0,0.0,0.0,-3.3292,-3.2443,-3.1863,-3.1578,-3.0806,-3.0433,-3.0367,-3.0872,-3.0903,-3.0657,-3.0657,-3.0532,-3.0325,-3.0325,-3.0201,-2.9994,-2.9994,-2.9994,-2.9994,-2.9994,-2.9994,-2.9994,-2.9994,-2.9732,-2.9371,-2.9365,-2.8334,-2.7087,-2.7044,-2.6395,-2.5617,-2.5429,-2.5652,-2.5885,-2.5885,-2.608,-2.6217,-2.6217,-2.6508,-2.6747,-2.6576,-2.6371,-2.6285,-2.6491,-2.6371,-2.6217,-2.6217,-2.608,-2.5823,-2.5486,-2.5052,-2.4812,-2.4812,-2.4812,-2.4812,-2.4812,-2.4812,-2.4812,-2.4812,-2.4812,-2.4812,-2.4812,-2.4812,-2.4812,-2.4812,-2.4812,-2.4812,-2.4812,-2.4812,-2.4812,-2.4812,-2.4812,-2.4812,-2.4812,-2.4812,-2.4812,-2.6156,-2.8528,-3.1746,-3.7182,-3.9886,-4.1253,-4.1537,-4.1603,-4.1214,-4.0002,0.0,0.0,0.0,0.0,0.0,0.0,0.0,0.0,0.0,0.0,0.0,0.0,0.0,0.0,0.0,0.0,0.0,0.0,0.0,0.0,0.0,0.0,0.0,0.0,0.0,-3.3119,-3.3119,-3.2037,-3.1432,-3.1345,-3.0338,-2.987,-2.9911,-3.076,-3.1133,-3.1133,-3.105,-3.0801,-3.045,-3.045,-3.0222,-2.9891,-2.9973,-2.9994,-2.9994,-2.9994,-2.9994,-2.9994,-2.9837,-2.929,-2.8694,-2.878,-2.7614,-2.6154,-2.6385,-2.5933,-2.5275,-2.5275,-2.5497,-2.5697,-2.5823,-2.584,-2.584,-2.584,-2.608,-2.6234,-2.5936,-2.5833,-2.5857,-2.5867,-2.5833,-2.5799,-2.5867,-2.5566,-2.5292,-2.5417,-2.5052,-2.4812,-2.4812,-2.4812,-2.4812,-2.4812,-2.4812,-2.4812,-2.4812,-2.4812,-2.4812,-2.4812,-2.4812,-2.4812,-2.4812,-2.4812,-2.4812,-2.4812,-2.4812,-2.4812,-2.4812,-2.4812,-2.4812,-2.4812,-2.4812,-2.4812,-2.6383,-3.0336,-3.446,-3.7325,-3.9285,-4.0579,-4.0873,0.0,-4.033,0.0,0.0,0.0,0.0,0.0,0.0,0.0,0.0,0.0,0.0,0.0,0.0,0.0,0.0,0.0,0.0,0.0,0.0,0.0,0.0,0.0,0.0,0.0,-3.3292,-3.3292,-3.2796,0.0,-3.2521,-3.1454,-3.0675,-3.0269,-2.968,-2.9394,-2.9415,-2.9932,-3.018,-3.016,-2.9766,-2.9539,-2.9497,-2.9497,-2.9456,-2.9435,-2.9829,-2.9994,-2.9994,-2.9994,-2.9994,-2.9889,-2.9132,-2.8794,-2.8475,-2.7008,-2.6354,-2.599,-2.5308,-2.5009,-2.4898,-2.4898,-2.4932,-2.5035,-2.536,-2.5446,-2.5446,-2.5446,-2.548,-2.56,-2.5874,-2.5686,-2.5549,-2.5816,-2.5669,-2.5549,-2.5816,-2.536,-2.5001,-2.5383,-2.5052,-2.4812,-2.4812,-2.4812,-2.4812,-2.4812,-2.4812,-2.4812,-2.4812,-2.4812,-2.4812,-2.4812,-2.4812,-2.4812,-2.4812,-2.4812,-2.4812,-2.4812,-2.4812,-2.4812,-2.4812,-2.4812,-2.4812,-2.4812,-2.4812,-2.4812,-2.6662,-3.0203,-3.3535,-3.5861,-3.7482,-3.8657,-3.9244,-3.9599,-3.9526,0.0,0.0,0.0,0.0,0.0,0.0,0.0,0.0,0.0,0.0,0.0,0.0,0.0,0.0,0.0,0.0,0.0,0.0,0.0,0.0,0.0,-3.3683,-3.343,-3.3292,-3.3292,-3.2695,0.0,-3.2067,-3.094,-3.0016,-2.9249,-2.9019,-2.8918,-2.8918,-2.9125,-2.9497,-2.9973,-2.9787,-2.9539,-2.9311,-2.9311,-2.9311,-2.9332,-2.9539,-2.9766,-2.9994,-2.9994,-2.9994,-2.9889,-2.9026,-2.8368,-2.7761,-2.6518,-2.5771,-2.5293,-2.4923,-2.4812,-2.4812,-2.4812,-2.4812,-2.4864,-2.5018,-2.5052,-2.5052,-2.5052,-2.5052,-2.5104,-2.5275,-2.5172,-2.5121,-2.5275,-2.5172,-2.5121,-2.5275,-2.4979,-2.4881,-2.5035,-2.4932,-2.4812,-2.4812,-2.4812,-2.4812,-2.4812,-2.4812,-2.4812,-2.4812,-2.4812,-2.4812,-2.4812,-2.4812,-2.4812,-2.4812,-2.4812,-2.4812,-2.4812,-2.4812,-2.4812,-2.4812,-2.4812,-2.4812,-2.4812,-2.4812,-2.4812,-2.5886,-2.8533,-3.1085,-3.3491,-3.4899,-3.6103,0.0,0.0,0.0,0.0,0.0,0.0,0.0,0.0,0.0,0.0,0.0,0.0,0.0,0.0,0.0,0.0,0.0,0.0,0.0,0.0,0.0,0.0,0.0,0.0,-3.3798,-3.3338,-3.3086,-3.3086,-3.2279,-3.1684,-3.1426,-3.0134,-2.9153,-2.8442,-2.8317,-2.8276,-2.8276,-2.8276,-2.8649,-2.9311,-2.9415,-2.927,-2.8959,-2.8959,-2.8959,-2.8959,-2.9083,-2.9415,-2.9829,-2.9829,-2.9786,-2.9554,-2.8688,-2.7814,-2.6952,-2.6045,-2.5348,-2.4812,-2.4812,-2.4812,-2.4812,-2.4812,-2.4812,-2.4812,-2.4812,-2.4812,-2.4812,-2.4812,-2.4812,-2.4812,-2.4812,-2.4812,-2.4812,-2.4812,-2.4812,-2.4812,-2.4812,-2.4812,-2.4812,-2.4812,-2.4812,-2.4812,-2.4812,-2.4812,-2.4812,-2.4812,-2.4812,-2.4812,-2.4812,-2.4812,-2.4812,-2.4812,-2.4812,-2.4812,-2.4812,-2.4812,-2.4812,-2.4812,-2.4812,-2.4812,-2.4812,-2.4812,-2.4812,-2.4812,-2.4812,-2.4812,-2.3245,-2.5062,-2.7475,-3.0085,-3.1523,-3.3089,0.0,0.0,0.0,0.0,0.0,0.0,0.0,0.0,0.0,0.0,0.0,0.0,0.0,0.0,0.0,0.0,0.0,0.0,0.0,0.0,0.0,0.0,0.0,0.0,-3.3315,-3.281,-3.2535,-3.2535,-3.1105,-3.0324,-3.0302,-2.8754,-2.7986,-2.7945,-2.7531,-2.7372,-2.7372,-2.7372,-2.7413,-2.7475,-2.7841,-2.8028,-2.7986,-2.7986,-2.7986,-2.8028,-2.8483,-2.8938,-2.9352,-2.9352,-2.9082,-2.8635,-2.7761,-2.6898,-2.6027,-2.5145,-2.4812,-2.4812,-2.4812,-2.4812,-2.4812,-2.4812,-2.4812,-2.4812,-2.4812,-2.4812,-2.4812,-2.4812,-2.4812,-2.4812,-2.4812,-2.4812,-2.4812,-2.4812,-2.4812,-2.4812,-2.4812,-2.4812,-2.4812,-2.4812,-2.4812,-2.4812,-2.4812,-2.4812,-2.4812,-2.4812,-2.4812,-2.4812,-2.4812,-2.4812,-2.4812,-2.4812,-2.4812,-2.4812,-2.4812,-2.4812,-2.4812,-2.4812,-2.4812,-2.4812,-2.4812,-2.4812,-2.4812,-2.4812,-2.4812,-2.4812,-2.2889,-2.4148,-2.5551,-2.7562,-2.9186,-3.0767,-3.26,-3.405,0.0,0.0,0.0,0.0,0.0,0.0,0.0,0.0,0.0,0.0,0.0,0.0,0.0,0.0,0.0,0.0,0.0,0.0,0.0,0.0,0.0,0.0,-3.3292,-3.2764,-3.2342,-3.2048,-3.0843,-2.9715,-2.8712,-2.791,-2.7489,-2.7489,-2.7392,-2.7309,-2.7309,-2.7309,-2.7309,-2.7309,-2.7427,-2.7489,-2.7489,-2.7489,-2.7655,-2.7945,-2.811,-2.8628,-2.926,-2.8674,-2.8573,-2.8475,-2.706,-2.6354,-2.599,-2.509,-2.4812,-2.4812,-2.4812,-2.4812,-2.4812,-2.4812,-2.4812,-2.4812,-2.4812,-2.4812,-2.4812,-2.4812,-2.4812,-2.4881,-2.5121,-2.4984,-2.4812,-2.4812,-2.4812,-2.4812,-2.4812,-2.4812,-2.4812,-2.4812,-2.4812,-2.4812,-2.4812,-2.4812,-2.4812,-2.4812,-2.4812,-2.4812,-2.4812,-2.4812,-2.4812,-2.4812,-2.4812,-2.4812,-2.4812,-2.4812,-2.4812,-2.4812,-2.4812,-2.4812,-2.4812,-2.4812,-2.4812,-2.4812,-2.4812,-2.4812,-2.1419,0.0,0.0,0.0,-2.6469,-2.7878,-3.0,0.0,0.0,0.0,0.0,0.0,0.0,0.0,0.0,0.0,0.0,0.0,0.0,0.0,0.0,0.0,0.0,0.0,0.0,0.0,0.0,0.0,0.0,0.0,-3.2764,-3.2137,-3.1385,-3.0577,-2.9833,-2.8882,-2.7696,-2.7455,-2.7309,-2.7309,-2.7309,-2.7309,-2.7309,-2.7309,-2.7309,-2.7309,-2.7309,-2.7309,-2.7309,-2.7309,-2.7475,-2.7696,-2.7696,-2.8025,-2.8401,-2.7961,-2.7728,-2.7481,-2.6481,-2.5935,-2.5551,-2.4979,-2.4812,-2.4812,-2.4812,-2.4812,-2.4812,-2.4812,-2.4915,-2.5001,-2.5001,-2.5001,-2.4984,-2.4847,-2.4915,-2.5069,-2.5309,-2.5086,-2.4864,-2.4984,-2.4898,-2.4812,-2.4812,-2.4812,-2.4812,-2.4812,-2.4812,-2.4812,-2.4812,-2.4812,-2.4812,-2.4812,-2.4812,-2.4812,-2.4812,-2.4812,-2.4812,-2.4812,-2.4812,-2.4881,-2.5001,-2.4881,-2.4881,-2.5001,-2.4881,-2.4812,-2.4812,-2.4812,-2.4812,-2.4812,-2.4812,-2.4701,0.0,0.0,0.0,0.0,0.0,0.0,-2.8664,0.0,0.0,0.0,0.0,0.0,0.0,0.0,0.0,0.0,0.0,0.0,0.0,0.0,0.0,0.0,0.0,0.0,0.0,0.0,0.0,0.0,0.0,-3.1754,-3.1661,-3.0801,-2.9601,-2.8045,-2.7998,-2.7762,-2.7289,-2.7289,-2.7289,-2.7289,-2.7289,-2.7309,-2.733,-2.733,-2.733,-2.733,-2.733,-2.7309,-2.7309,-2.7309,-2.7309,-2.7309,-2.7262,-2.7049,-2.6854,-2.71,-2.6484,-2.554,-2.5937,-2.5496,-2.4812,-2.4812,-2.4812,-2.4812,-2.4812,-2.4812,-2.4812,-2.4812,-2.5086,-2.536,-2.536,-2.536,-2.5258,-2.4898,-2.5104,-2.5378,-2.5378,-2.5086,-2.4932,-2.5292,-2.5069,-2.4812,-2.4812,-2.483,-2.483,-2.483,-2.4847,-2.4847,-2.4847,-2.483,-2.483,-2.4812,-2.4812,-2.4812,-2.4812,-2.4812,-2.4812,-2.4812,-2.4812,-2.4984,-2.536,-2.5018,-2.5001,-2.536,-2.5018,-2.483,-2.4812,-2.4812,-2.4812,-2.4812,-2.4757,-2.4423,-1.8504,0.0,0.0,0.0,0.0,0.0,0.0,0.0,0.0,0.0,0.0,0.0,0.0,0.0,0.0,0.0,0.0,0.0,0.0,0.0,0.0,0.0,0.0,0.0,0.0,0.0,0.0,0.0,0.0,-3.1616,-3.1226,-3.0267,-2.9201,-2.8066,-2.7668,-2.7285,-2.6812,-2.6812,-2.6812,-2.6812,-2.6812,-2.7096,-2.7738,-2.7738,-2.7738,-2.7738,-2.7738,-2.7552,-2.7309,-2.7309,-2.7309,-2.7262,-2.6668,-2.6563,-2.6665,-2.556,-2.5142,-2.5073,-2.4842,-2.4548,-2.4381,-2.4727,-2.4812,-2.4812,-2.4812,-2.4812,-2.4812,-2.4812,-2.4898,-2.4967,-2.4967,-2.4967,-2.4949,-2.4847,-2.5104,-2.5446,-2.572,-2.548,-2.5258,-2.54,-2.5069,-2.4812,-2.4812,-2.5035,-2.5223,-2.5223,-2.5446,-2.5532,-2.5258,-2.5223,-2.5121,-2.4847,-2.4812,-2.4812,-2.4812,-2.4812,-2.4812,-2.4812,-2.4812,-2.4984,-2.536,-2.5275,-2.5258,-2.5434,-2.5275,-2.5086,-2.4812,-2.4812,-2.4812,-2.4757,-2.4368,-2.3809,0.0,0.0,0.0,0.0,0.0,0.0,-2.3735,-2.5008,0.0,0.0,0.0,0.0,0.0,0.0,0.0,0.0,0.0,0.0,0.0,0.0,0.0,0.0,0.0,0.0,0.0,0.0,0.0,0.0,-3.0767,-3.0606,-3.0056,-2.9473,-2.8795,-2.7998,-2.7338,-2.6895,-2.6625,-2.6625,-2.6521,-2.6335,-2.6521,-2.6951,-2.7655,-2.7655,-2.7738,-2.7924,-2.7924,-2.7676,-2.7309,-2.7309,-2.7119,-2.6764,-2.6284,-2.5859,-2.54,-2.4597,-2.436,-2.4404,-2.4272,-2.4279,-2.4521,-2.4744,-2.4812,-2.4812,-2.4812,-2.4812,-2.4812,-2.4812,-2.4932,-2.5052,-2.5052,-2.5052,-2.5018,-2.4864,-2.5104,-2.5429,-2.5652,-2.5532,-2.5412,-2.5583,-2.5172,-2.4812,-2.4812,-2.5121,-2.5326,-2.5172,-2.5463,-2.5566,-2.5189,-2.5138,-2.5052,-2.4847,-2.4812,-2.4812,-2.4812,-2.4812,-2.4812,-2.4812,-2.4967,-2.5223,-2.5583,-2.56,-2.56,-2.56,-2.5446,-2.5189,-2.4812,-2.4812,-2.4646,-2.4423,-2.4089,-2.3472,0.0,0.0,0.0,0.0,0.0,0.0,-2.4279,-2.4918,-2.5519,0.0,0.0,0.0,0.0,0.0,0.0,0.0,0.0,0.0,0.0,0.0,0.0,0.0,0.0,0.0,0.0,0.0,-3.0101,-3.0055,-2.962,-2.9125,-2.8567,-2.8556,-2.8333,-2.7866,-2.7066,-2.6563,-2.648,-2.6521,-2.6314,-2.5813,-2.6314,-2.6812,-2.7309,-2.7309,-2.7483,-2.784,-2.7798,-2.7503,-2.7085,-2.7023,-2.6668,-2.6091,-2.5994,-2.505,-2.3723,-2.4014,-2.3876,-2.3631,-2.4025,-2.4367,-2.4658,-2.4778,-2.4795,-2.4761,-2.4812,-2.4812,-2.4812,-2.4812,-2.5052,-2.5309,-2.5309,-2.5309,-2.5223,-2.4898,-2.5104,-2.5434,-2.5434,-2.5434,-2.5463,-2.5806,-2.5309,-2.4812,-2.4812,-2.5121,-2.5258,-2.4932,-2.5189,-2.5292,-2.4932,-2.4881,-2.4864,-2.483,-2.4812,-2.4812,-2.4812,-2.4812,-2.4812,-2.4812,-2.5172,-2.5532,-2.5867,-2.5919,-2.5919,-2.5885,-2.5457,-2.5042,-2.4701,-2.4757,-2.4479,-2.3921,-2.3809,-2.3191,0.0,0.0,0.0,0.0,0.0,0.0,-2.2169,-2.2723,-2.3148,0.0,0.0,0.0,0.0,0.0,0.0,0.0,0.0,0.0,0.0,0.0,0.0,0.0,0.0,0.0,0.0,0.0,-2.9458,-2.9022,-2.8625,-2.8121,-2.7573,-2.7543,-2.7377,-2.6889,-2.6713,-2.6227,-2.5502,-2.5834,-2.5792,-2.5357,-2.5813,-2.6501,-2.7309,-2.7309,-2.7357,-2.7372,-2.7152,-2.6557,-2.5844,-2.5478,-2.5635,-2.6042,-2.5392,-2.4559,-2.3637,-2.3125,-2.2909,-2.2929,-2.3598,-2.3631,-2.3597,-2.4521,-2.4607,-2.4401,-2.4727,-2.4812,-2.4812,-2.4812,-2.4864,-2.4932,-2.4932,-2.4932,-2.4915,-2.483,-2.5104,-2.5434,-2.5434,-2.5434,-2.5395,-2.5463,-2.5121,-2.4812,-2.4812,-2.5121,-2.5343,-2.5275,-2.5583,-2.5686,-2.5309,-2.5258,-2.5155,-2.4847,-2.4812,-2.4812,-2.4812,-2.4812,-2.4812,-2.4812,-2.5172,-2.5532,-2.5867,-2.6217,-2.6234,-2.5885,-2.4765,-2.4155,-2.4089,-2.4535,-2.4479,-2.3865,-2.3416,-2.2796,0.0,0.0,0.0,-2.2201,0.0,0.0,0.0,-2.2554,-2.2928,-2.2836,0.0,0.0,0.0,0.0,0.0,0.0,0.0,0.0,0.0,0.0,0.0,0.0,0.0,0.0,0.0,0.0,-2.8637,-2.8355,-2.8203,-2.7877,-2.734,-2.707,-2.6843,-2.6617,-2.6156,-2.5689,-2.5189,-2.544,-2.5337,-2.4859,-2.5337,-2.6041,-2.6957,-2.6957,-2.6975,-2.7042,-2.6844,-2.6181,-2.5206,-2.4979,-2.4903,-2.4854,-2.4461,-2.3818,-2.3088,-2.2754,-2.2723,-2.2877,-2.3254,-2.3511,-2.3768,-2.435,-2.4521,-2.4556,-2.4761,-2.4812,-2.4812,-2.4812,-2.4812,-2.4812,-2.4812,-2.4812,-2.4812,-2.4812,-2.4967,-2.5086,-2.5086,-2.5086,-2.5086,-2.5086,-2.4949,-2.4812,-2.4812,-2.5121,-2.5309,-2.5121,-2.5412,-2.5515,-2.5138,-2.5086,-2.5018,-2.4847,-2.4812,-2.4812,-2.4812,-2.4812,-2.4812,-2.4812,-2.5172,-2.5532,-2.5867,-2.6285,-2.6202,-2.5477,-2.4113,-2.3472,-2.3472,-2.3753,-2.3585,-2.3022,-2.2683,-2.223,0.0,0.0,0.0,0.0,0.0,-2.2535,0.0,0.0,0.0,-2.3014,0.0,0.0,0.0,0.0,0.0,0.0,0.0,0.0,0.0,0.0,0.0,0.0,0.0,0.0,0.0,0.0,-2.7273,-2.7188,-2.741,-2.7348,-2.6909,-2.6619,-2.6483,-2.6483,-2.5618,-2.5148,-2.5065,-2.5148,-2.4962,-2.4507,-2.4962,-2.5606,-2.631,-2.6254,-2.6317,-2.6428,-2.628,-2.5561,-2.4573,-2.448,-2.4066,-2.3488,-2.3637,-2.3238,-2.2603,-2.2603,-2.2791,-2.3014,-2.3083,-2.346,-2.3939,-2.4108,-2.4504,-2.4812,-2.4812,-2.4812,-2.4812,-2.4812,-2.4812,-2.4812,-2.4812,-2.4812,-2.4812,-2.4812,-2.4812,-2.4812,-2.4812,-2.4812,-2.4812,-2.4812,-2.4812,-2.4812,-2.4812,-2.5069,-2.5172,-2.4864,-2.5069,-2.5155,-2.4864,-2.4812,-2.4847,-2.4915,-2.4864,-2.4847,-2.4915,-2.4864,-2.4812,-2.4812,-2.5172,-2.544,-2.5632,-2.5889,-2.5679,-2.4917,-2.3582,-2.2947,-2.2947,-2.2771,-2.2456,-2.2116,-2.2116,-2.1774,0.0,0.0,0.0,0.0,-2.3247,0.0,0.0,0.0,-2.2076,-2.0785,0.0,0.0,0.0,0.0,0.0,0.0,0.0,0.0,0.0,0.0,0.0,0.0,0.0,0.0,0.0,0.0,0.0,-2.4285,-2.5037,-2.5508,-2.5451,-2.5802,-2.5965,-2.5965,-2.5461,-2.5003,-2.4569,-2.4983,-2.4962,-2.4507,-2.4962,-2.523,-2.5354,-2.5048,-2.4941,-2.4979,-2.4337,-2.377,-2.3271,-2.2976,-2.2787,-2.2787,-2.3438,-2.3238,-2.2603,-2.2603,-2.262,-2.2705,-2.2997,-2.2946,-2.2946,-2.3905,-2.4504,-2.4812,-2.4812,-2.4812,-2.4812,-2.4812,-2.4812,-2.4812,-2.4812,-2.4812,-2.4812,-2.4812,-2.4812,-2.4812,-2.4812,-2.4812,-2.4812,-2.4812,-2.4812,-2.4812,-2.4812,-2.4864,-2.4864,-2.483,-2.4864,-2.4864,-2.483,-2.4812,-2.4949,-2.5275,-2.5018,-2.4949,-2.5275,-2.5018,-2.4812,-2.4812,-2.5172,-2.5167,-2.4687,-2.4438,-2.4348,-2.4559,-2.3306,-2.2617,-2.2617,-2.181,-2.166,-2.2116,-2.2116,-2.1774,0.0,0.0,0.0,0.0,0.0,0.0,0.0,0.0,-2.1502,0.0,0.0,0.0,0.0,0.0,0.0,0.0,0.0,0.0,0.0,0.0,0.0,0.0,0.0,0.0,0.0,0.0,0.0,0.0,0.0,-2.4914,-2.5192,-2.515,-2.5109,-2.5109,-2.4879,-2.4693,-2.4507,-2.4693,-2.4693,-2.4507,-2.4693,-2.4746,-2.4638,-2.4675,-2.4399,-2.3883,-2.3777,-2.3376,-2.2826,-2.2671,-2.2603,-2.2653,-2.2937,-2.2887,-2.2603,-2.2603,-2.2603,-2.262,-2.2774,-2.3014,-2.3392,-2.4264,-2.4675,-2.4812,-2.4812,-2.4812,-2.4812,-2.4812,-2.4812,-2.4812,-2.4812,-2.4812,-2.4812,-2.4812,-2.4812,-2.4812,-2.4812,-2.4812,-2.4812,-2.4812,-2.4812,-2.4812,-2.4812,-2.4812,-2.4812,-2.4812,-2.4812,-2.4812,-2.4812,-2.4812,-2.4881,-2.5035,-2.4915,-2.4881,-2.5035,-2.4915,-2.4646,-2.4312,-2.4308,-2.4302,-2.4224,-2.3724,-2.3663,-2.396,-2.2719,-2.2095,-2.2095,-2.148,-2.1318,-2.1603,-2.1603,-2.1432,-2.376,0.0,0.0,0.0,0.0,0.0,0.0,0.0,0.0,0.0,0.0,0.0,0.0,0.0,0.0,0.0,0.0,0.0,0.0,0.0,0.0,0.0,0.0,0.0,0.0,0.0,0.0,0.0,-2.4152,0.0,-2.4447,-2.459,-2.4693,-2.4693,-2.4693,-2.4693,-2.4693,-2.4569,-2.4507,-2.4507,-2.4315,-2.4132,-2.4014,-2.4069,-2.3683,-2.3045,-2.3256,-2.3088,-2.2603,-2.2603,-2.2603,-2.2603,-2.2603,-2.2603,-2.2603,-2.2603,-2.2603,-2.2603,-2.2723,-2.3238,-2.3905,-2.447,-2.4727,-2.4812,-2.4812,-2.4812,-2.4812,-2.4812,-2.4812,-2.4812,-2.4812,-2.4812,-2.4812,-2.4812,-2.4812,-2.4812,-2.4812,-2.4812,-2.4812,-2.4812,-2.4812,-2.4812,-2.4812,-2.4812,-2.4812,-2.4812,-2.4812,-2.4812,-2.4812,-2.4812,-2.4864,-2.4967,-2.4881,-2.4864,-2.4967,-2.4714,-2.4312,-2.3697,-2.3454,-2.3457,-2.3728,-2.3244,-2.3097,-2.349,-2.2467,-2.1906,-2.1832,-2.1496,-2.1306,-2.1203,-2.1203,-2.1203,0.0,0.0,0.0,-2.4076,0.0,0.0,0.0,0.0,-2.1528,0.0,0.0,0.0,0.0,0.0,0.0,0.0,0.0,0.0,0.0,0.0,0.0,0.0,0.0,0.0,0.0,0.0,0.0,0.0,-2.1911,0.0,-2.2584,-2.4218,-2.5168,-2.5168,-2.5168,-2.5168,-2.5168,-2.4735,-2.4507,-2.4487,-2.3841,-2.3513,-2.3509,-2.288,-2.2546,-2.2553,-2.2606,-2.2603,-2.2603,-2.2603,-2.2603,-2.2603,-2.2603,-2.2603,-2.2603,-2.2603,-2.2603,-2.2654,-2.2963,-2.358,-2.4159,-2.4193,-2.4449,-2.4812,-2.4812,-2.4812,-2.4812,-2.4812,-2.4812,-2.4812,-2.4812,-2.4812,-2.4812,-2.4812,-2.4812,-2.4812,-2.4812,-2.4812,-2.4812,-2.4812,-2.4812,-2.4812,-2.4812,-2.4812,-2.4812,-2.4812,-2.4812,-2.4812,-2.4812,-2.4812,-2.4949,-2.5309,-2.5035,-2.4967,-2.5383,-2.4513,-2.3697,-2.3078,-2.2782,-2.2772,-2.3108,-2.281,-2.2754,-2.3091,-2.2769,-2.2447,-2.2169,-2.1832,-2.1525,-2.1203,-2.1203,-2.1203,0.0,0.0,-2.6729,-2.4311,0.0,0.0,0.0,0.0,0.0,0.0,0.0,0.0,0.0,0.0,0.0,0.0,0.0,0.0,0.0,0.0,0.0,0.0,0.0,0.0,0.0,0.0,0.0,-2.1354,-2.2105,-2.2501,0.0,-2.3908,-2.459,-2.4343,-2.459,-2.4735,-2.4735,-2.4569,-2.4272,-2.3841,-2.3624,-2.3013,-2.2087,-2.2098,-2.1966,-2.1804,-2.2051,-2.2362,-2.2603,-2.2603,-2.2603,-2.2603,-2.2603,-2.2603,-2.2603,-2.2603,-2.2603,-2.2688,-2.3288,-2.3819,-2.4227,-2.4538,-2.471,-2.4812,-2.4812,-2.4812,-2.4812,-2.4812,-2.4812,-2.4812,-2.4812,-2.4812,-2.4812,-2.4812,-2.4812,-2.4812,-2.4812,-2.4812,-2.4812,-2.4812,-2.4812,-2.4812,-2.4812,-2.4812,-2.4812,-2.4812,-2.4812,-2.4812,-2.4812,-2.4812,-2.4864,-2.5001,-2.4508,-2.425,-2.4367,-2.3368,-2.2626,-2.24,-2.1937,-2.1904,-2.2453,-2.2392,-2.2579,-2.3091,-2.2784,-2.2579,-2.2476,-2.195,-2.1642,-2.1525,-2.1306,-2.1203,-2.7654,-2.7955,0.0,0.0,-2.5147,0.0,-2.1984,0.0,0.0,0.0,0.0,0.0,0.0,0.0,0.0,0.0,0.0,0.0,0.0,0.0,0.0,0.0,0.0,0.0,0.0,0.0,-1.9353,-2.0463,-2.1044,-2.1377,0.0,0.0,-2.4012,-2.3888,-2.4259,-2.4569,-2.4735,-2.4569,-2.4143,-2.3493,-2.3232,-2.2511,-2.1419,-2.1496,-2.1485,-2.1422,-2.1833,-2.221,-2.2603,-2.2603,-2.2603,-2.2603,-2.2603,-2.2603,-2.2603,-2.2603,-2.2774,-2.3083,-2.3665,-2.4127,-2.4487,-2.4744,-2.4812,-2.4812,-2.4812,-2.4812,-2.4812,-2.4812,-2.4812,-2.4812,-2.4812,-2.4812,-2.4812,-2.4812,-2.4812,-2.4812,-2.4812,-2.4812,-2.4812,-2.4812,-2.4812,-2.4812,-2.4812,-2.4812,-2.4812,-2.4812,-2.4812,-2.4701,-2.4479,-2.4479,-2.4423,-2.42,-2.3809,-2.3472,-2.3304,-2.257,-2.2048,-2.194,-2.161,-2.1628,-2.2169,-2.2286,-2.2579,-2.3091,-2.2901,-2.2798,-2.2798,-2.2169,-2.1818,-2.1686,-2.1018,-2.0687]},{"header":{"parameterUnit":"m.s-1","parameterCategory":1,"la1":30.6,"la2":29.2853,"lo1":-89.7004,"lo2":-87.6739,"dy":0.0162,"dx":0.0183,"nx":112,"ny":82,"refTime":"2023-03-14T18:00:00:Z","depth":0,"parameterNumber":3,"parameterNumberName":"V-component_of_WINDS"},"data":[0.0,0.0,0.0,0.0,0.0,0.0,0.0,0.0,0.0,0.0,0.0,0.0,0.0,0.0,0.0,0.0,0.0,0.0,0.0,0.0,0.0,0.0,0.0,0.0,0.0,0.0,0.0,0.0,0.0,0.0,0.0,0.0,0.0,0.0,0.0,0.0,0.0,0.0,0.0,0.0,0.0,0.0,0.0,0.0,0.0,0.0,0.0,0.0,0.0,0.0,0.0,0.0,0.0,0.0,0.0,0.0,0.0,0.0,0.0,0.0,0.0,0.0,0.0,0.0,0.0,0.0,0.0,0.0,0.0,0.0,0.0,0.0,0.0,0.0,0.0,0.0,0.0,0.0,0.0,0.0,0.0,0.0,0.0,0.0,0.0,0.0,0.0,0.0,0.0,0.0,0.0,2.2005,2.527,2.7006,2.635,2.6161,2.4486,2.0797,0.0,0.0,0.0,0.0,0.0,0.0,0.0,0.0,0.0,0.0,0.0,0.0,0.0,0.0,0.0,0.0,0.0,0.0,0.0,0.0,0.0,0.0,0.0,0.0,0.0,0.0,0.0,0.0,0.0,0.0,0.0,0.0,0.0,0.0,0.0,0.0,0.0,0.0,0.0,0.0,0.0,0.0,0.0,0.0,0.0,0.0,0.0,0.0,0.0,0.0,0.0,0.0,0.0,0.0,0.0,0.0,0.0,0.0,0.0,0.0,0.0,0.0,0.0,0.0,0.0,0.0,0.0,0.0,0.0,0.0,0.0,0.0,0.0,0.0,0.0,0.0,0.0,0.0,0.0,0.0,0.0,0.0,0.0,0.0,0.0,0.0,0.0,0.0,0.0,0.0,0.0,0.0,0.0,0.0,0.0,0.0,0.0,0.0,0.0,0.0,0.0,0.0,0.0,0.0,2.1337,2.4206,2.6193,2.7247,2.7109,2.4983,2.3484,2.3175,0.0,0.0,0.0,0.0,0.0,0.0,0.0,0.0,0.0,0.0,0.0,0.0,0.0,0.0,0.0,0.0,0.0,0.0,0.0,0.0,0.0,0.0,0.0,0.0,0.0,0.0,0.0,0.0,0.0,0.0,0.0,0.0,0.0,0.0,0.0,0.0,0.0,0.0,0.0,0.0,0.0,0.0,0.0,0.0,0.0,0.0,0.0,0.0,0.0,0.0,0.0,0.0,0.0,0.0,0.0,0.0,0.0,0.0,0.0,0.0,0.0,0.0,0.0,0.0,0.0,0.0,0.0,0.0,0.0,0.0,0.0,0.0,0.0,0.0,0.0,0.0,0.0,0.0,0.0,0.0,0.0,0.0,0.0,0.0,0.0,0.0,0.0,0.0,0.0,0.0,0.0,0.0,0.0,0.0,0.0,0.0,0.0,0.0,0.0,0.0,0.0,0.0,0.0,2.0672,2.2233,2.5281,2.6626,2.7297,2.7345,2.517,2.359,2.3117,2.0674,0.0,0.0,0.0,0.0,0.0,0.0,0.0,0.0,0.0,0.0,0.0,0.0,0.0,0.0,0.0,0.0,0.0,0.0,0.0,0.0,0.0,0.0,0.0,0.0,0.0,0.0,0.0,0.0,0.0,0.0,0.0,0.0,0.0,0.0,0.0,0.0,0.0,0.0,0.0,0.0,0.0,0.0,0.0,0.0,0.0,0.0,0.0,0.0,0.0,0.0,0.0,0.0,0.0,0.0,0.0,0.0,0.0,0.0,0.0,0.0,0.0,0.0,0.0,0.0,0.0,0.0,0.0,0.0,0.0,0.0,0.0,0.0,0.0,0.0,0.0,0.0,0.0,0.0,0.0,0.0,0.0,0.0,0.0,0.0,0.0,0.0,0.0,0.0,0.0,0.0,0.0,0.0,0.0,0.0,0.0,0.0,0.0,0.0,0.0,0.0,0.0,0.0,2.2284,2.3171,2.6044,2.6921,2.7244,2.7118,2.53,2.3719,2.264,1.9752,0.0,0.0,0.0,0.0,0.0,0.0,0.0,0.0,0.0,0.0,0.0,0.0,0.0,0.0,0.0,0.0,0.0,0.0,0.0,0.0,0.0,0.0,0.0,0.0,0.0,0.0,0.0,0.0,0.0,0.0,0.0,0.0,0.0,0.0,0.0,0.0,0.0,0.0,0.0,0.0,0.0,0.0,0.0,0.0,0.0,0.0,0.0,0.0,0.0,0.0,0.0,0.0,0.0,0.0,0.0,0.0,0.0,0.0,0.0,0.0,0.0,0.0,0.0,0.0,0.0,0.0,0.0,0.0,0.0,0.0,0.0,0.0,0.0,0.0,0.0,0.0,0.0,0.0,0.0,0.0,0.0,0.0,0.0,0.0,0.0,0.0,0.0,0.0,0.0,0.0,0.0,0.0,0.0,0.0,0.0,0.0,0.0,0.0,0.0,0.0,0.0,0.0,2.3233,2.4442,2.6792,2.72,2.7006,2.6247,2.4536,2.3188,2.2547,1.9277,0.0,0.0,0.0,0.0,0.0,0.0,0.0,0.0,0.0,0.0,0.0,0.0,0.0,0.0,0.0,0.0,0.0,0.0,0.0,0.0,0.0,0.0,0.0,0.0,0.0,0.0,0.0,0.0,0.0,0.0,0.0,0.0,0.0,0.0,0.0,0.0,0.0,0.0,0.0,0.0,0.0,0.0,0.0,0.0,0.0,0.0,0.0,0.0,0.0,0.0,0.0,0.0,0.0,0.0,0.0,0.0,0.0,0.0,0.0,0.0,0.0,0.0,0.0,0.0,0.0,0.0,0.0,0.0,0.0,0.0,0.0,0.0,0.0,0.0,0.0,0.0,0.0,0.0,0.0,0.0,0.0,0.0,0.0,0.0,0.0,0.0,0.0,0.0,0.0,0.0,0.0,0.0,0.0,0.0,0.0,0.0,0.0,0.0,0.0,0.0,0.0,0.0,2.2997,2.4339,0.0,2.6786,2.6435,2.6184,2.3803,2.2407,2.2608,0.0,0.0,0.0,0.0,0.0,0.0,0.0,0.0,0.0,0.0,0.0,0.0,0.0,0.0,0.0,0.0,0.0,0.0,0.0,0.0,0.0,0.0,0.0,0.0,0.0,0.0,0.0,0.0,0.0,0.0,0.0,0.0,0.0,0.0,0.0,0.0,0.0,0.0,0.0,0.0,0.0,0.0,0.0,0.0,0.0,0.0,0.0,0.0,0.0,0.0,0.0,0.0,0.0,0.0,0.0,0.0,0.0,0.0,0.0,0.0,0.0,0.0,0.0,0.0,0.0,0.0,0.0,0.0,0.0,0.0,0.0,0.0,0.0,0.0,0.0,0.0,0.0,0.0,0.0,0.0,0.0,0.0,0.0,0.0,0.0,0.0,0.0,0.0,0.0,0.0,0.0,0.0,0.0,0.0,0.0,0.0,0.0,0.0,0.0,0.0,0.0,0.0,2.2251,2.3089,2.4347,0.0,2.6402,2.6006,2.5819,2.3602,2.2242,2.2263,0.0,0.0,0.0,0.0,0.0,0.0,0.0,0.0,0.0,0.0,0.0,0.0,0.0,0.0,0.0,0.0,0.0,0.0,0.0,0.0,0.0,0.0,0.0,0.0,0.0,0.0,0.0,0.0,0.0,0.0,0.0,0.0,0.0,0.0,0.0,0.0,0.0,0.0,0.0,0.0,0.0,0.0,0.0,0.0,0.0,0.0,0.0,0.0,0.0,0.0,0.0,0.0,0.0,0.0,0.0,0.0,0.0,0.0,0.0,0.0,0.0,0.0,0.0,0.0,0.0,0.0,0.0,0.0,0.0,0.0,0.0,0.0,0.0,0.0,0.0,0.0,0.0,0.0,0.0,0.0,0.0,0.0,0.0,0.0,0.0,0.0,0.0,0.0,0.0,0.0,0.0,0.0,0.0,0.0,0.0,0.0,0.0,0.0,0.0,0.0,0.0,0.0,2.2916,2.3706,2.4662,2.6233,2.6145,2.5708,2.5025,2.402,2.2805,0.0,0.0,0.0,0.0,0.0,0.0,0.0,0.0,0.0,0.0,0.0,0.0,0.0,0.0,0.0,0.0,0.0,0.0,0.0,0.0,0.0,0.0,0.0,0.0,0.0,0.0,0.0,0.0,0.0,0.0,0.0,0.0,0.0,0.0,0.0,0.0,0.0,0.0,0.0,0.0,0.0,0.0,0.0,0.0,0.0,0.0,0.0,0.0,0.0,0.0,0.0,0.0,0.0,0.0,0.0,0.0,0.0,0.0,0.0,0.0,0.0,0.0,0.0,0.0,0.0,0.0,0.0,0.0,0.0,0.0,0.0,0.0,0.0,0.0,0.0,0.0,0.0,0.0,0.0,0.0,0.0,0.0,0.0,0.0,0.0,0.0,0.0,0.0,0.0,0.0,0.0,0.0,0.0,0.0,0.0,0.0,0.0,0.0,0.0,0.0,0.0,0.0,0.0,2.2579,2.3341,2.4216,2.548,2.5381,2.4918,2.4232,2.2958,2.1963,2.1406,0.0,0.0,0.0,0.0,0.0,0.0,0.0,0.0,0.0,0.0,0.0,0.0,0.0,0.0,0.0,0.0,0.0,0.0,0.0,0.0,0.0,0.0,0.0,0.0,0.0,0.0,0.0,0.0,0.0,0.0,0.0,0.0,0.0,0.0,0.0,0.0,0.0,0.0,0.0,0.0,0.0,0.0,0.0,0.0,0.0,0.0,0.0,0.0,0.0,0.0,0.0,0.0,0.0,0.0,0.0,0.0,0.0,0.0,0.0,0.0,0.0,0.0,0.0,0.0,0.0,0.0,0.0,0.0,0.0,0.0,0.0,0.0,0.0,0.0,0.0,0.0,0.0,0.0,0.0,0.0,0.0,0.0,0.0,0.0,0.0,0.0,0.0,0.0,0.0,0.0,0.0,0.0,0.0,0.0,0.0,0.0,0.0,0.0,0.0,0.0,0.0,0.0,2.2671,2.3291,2.3915,2.4876,2.4901,2.4516,2.3832,2.2846,2.2084,2.1662,0.0,0.0,0.0,0.0,0.0,0.0,0.0,0.0,0.0,0.0,0.0,0.0,0.0,0.0,0.0,0.0,0.0,0.0,0.0,0.0,0.0,0.0,0.0,0.0,0.0,0.0,0.0,0.0,0.0,0.0,0.0,0.0,0.0,0.0,0.0,0.0,0.0,0.0,0.0,0.0,0.0,0.0,0.0,0.0,0.0,0.0,0.0,0.0,0.0,0.0,0.0,0.0,0.0,0.0,0.0,0.0,0.0,0.0,0.0,0.0,0.0,0.0,0.0,0.0,0.0,0.0,0.0,0.0,0.0,0.0,0.0,0.0,0.0,0.0,0.0,0.0,0.0,0.0,0.0,0.0,0.0,0.0,0.0,0.0,0.0,0.0,0.0,0.0,0.0,0.0,0.0,0.0,0.0,0.0,0.0,0.0,0.0,0.0,0.0,0.0,0.0,0.0,2.3037,2.3463,2.3842,2.4427,2.4594,2.4413,2.3776,2.3315,2.2763,2.2033,0.0,0.0,0.0,0.0,0.0,0.0,0.0,0.0,0.0,0.0,0.0,0.0,0.0,0.0,0.0,0.0,0.0,0.0,0.0,0.0,0.0,0.0,0.0,0.0,0.0,0.0,0.0,0.0,0.0,0.0,0.0,0.0,0.0,0.0,0.0,0.0,0.0,0.0,0.0,0.0,0.0,0.0,0.0,0.0,0.0,0.0,0.0,0.0,0.0,0.0,0.0,0.0,0.0,0.0,0.0,0.0,0.0,0.0,0.0,0.0,2.2598,0.0,0.0,0.0,0.0,0.0,0.0,0.0,0.0,0.0,0.0,0.0,0.0,0.0,0.0,0.0,0.0,0.0,0.0,0.0,0.0,0.0,0.0,0.0,0.0,0.0,0.0,0.0,0.0,0.0,0.0,0.0,0.0,0.0,0.0,0.0,0.0,0.0,0.0,0.0,0.0,0.0,2.2887,2.3744,2.4327,2.4489,2.4562,2.4354,2.3762,2.3089,2.2503,2.2011,2.219,0.0,0.0,0.0,0.0,0.0,0.0,0.0,0.0,0.0,0.0,0.0,0.0,0.0,0.0,0.0,0.0,0.0,0.0,0.0,0.0,0.0,0.0,0.0,0.0,0.0,0.0,0.0,0.0,0.0,0.0,0.0,0.0,0.0,0.0,0.0,0.0,0.0,0.0,0.0,0.0,0.0,0.0,0.0,0.0,0.0,0.0,0.0,0.0,0.0,0.0,0.0,0.0,0.0,0.0,0.0,0.0,0.0,0.0,0.0,0.0,2.3534,0.0,0.0,0.0,0.0,0.0,0.0,0.0,0.0,0.0,0.0,0.0,0.0,0.0,0.0,0.0,0.0,0.0,0.0,0.0,0.0,0.0,0.0,0.0,0.0,0.0,0.0,0.0,0.0,0.0,0.0,0.0,0.0,0.0,0.0,0.0,0.0,0.0,0.0,0.0,0.0,2.3094,2.3944,2.4575,2.4717,2.4978,2.4853,2.4193,2.35,2.3158,2.3367,2.2758,0.0,0.0,0.0,0.0,0.0,0.0,0.0,0.0,0.0,0.0,0.0,0.0,0.0,0.0,0.0,0.0,0.0,0.0,0.0,0.0,0.0,0.0,0.0,0.0,0.0,0.0,0.0,0.0,0.0,0.0,0.0,0.0,0.0,0.0,0.0,0.0,0.0,0.0,0.0,0.0,0.0,0.0,0.0,0.0,0.0,0.0,0.0,0.0,0.0,0.0,0.0,0.0,0.0,0.0,3.2276,3.2547,3.4226,3.4492,3.333,2.8826,2.6691,2.6269,0.0,0.0,0.0,0.0,0.0,0.0,0.0,0.0,0.0,0.0,0.0,0.0,0.0,0.0,0.0,0.0,0.0,0.0,0.0,0.0,0.0,0.0,0.0,0.0,0.0,2.7349,2.7099,0.0,0.0,0.0,0.0,0.0,0.0,0.0,0.0,0.0,0.0,0.0,0.0,2.3357,2.4102,2.4699,2.5036,2.538,2.5354,2.4856,2.4183,2.4086,2.4824,2.3571,2.3095,0.0,0.0,0.0,0.0,0.0,0.0,0.0,0.0,0.0,0.0,0.0,0.0,0.0,0.0,0.0,0.0,0.0,0.0,0.0,0.0,0.0,0.0,0.0,0.0,0.0,0.0,0.0,0.0,0.0,0.0,0.0,0.0,2.3934,2.3063,0.0,0.0,0.0,0.0,0.0,0.0,0.0,0.0,0.0,0.0,0.0,0.0,0.0,0.0,2.9707,3.1351,3.2364,3.2784,3.5734,3.688,3.6489,3.7307,3.7593,3.7344,3.5756,0.0,3.0037,2.7824,0.0,0.0,0.0,0.0,0.0,0.0,0.0,0.0,0.0,0.0,0.0,0.0,0.0,0.0,0.0,0.0,0.0,0.0,0.0,0.0,0.0,0.0,2.753,2.9463,2.9329,2.8602,0.0,2.6636,2.5291,2.4662,0.0,0.0,0.0,0.0,0.0,0.0,0.0,0.0,2.3328,2.419,2.4932,2.5375,2.5251,2.523,2.5537,2.4905,2.4528,2.4705,2.4767,2.4744,2.4577,2.4734,0.0,0.0,0.0,0.0,0.0,0.0,0.0,0.0,0.0,0.0,0.0,0.0,0.0,0.0,0.0,0.0,0.0,0.0,0.0,0.0,0.0,0.0,0.0,0.0,0.0,0.0,0.0,0.0,0.0,2.6129,2.6805,2.4917,2.6911,2.7685,0.0,0.0,0.0,0.0,0.0,0.0,0.0,0.0,0.0,3.2035,3.2774,3.3541,3.4395,3.6237,3.7479,3.8041,3.9674,4.0396,4.0355,4.0659,4.0894,4.0991,3.9871,3.8557,3.682,3.2524,2.9907,2.8446,0.0,0.0,0.0,0.0,0.0,2.7165,2.7554,0.0,0.0,0.0,0.0,0.0,0.0,0.0,0.0,0.0,0.0,0.0,0.0,0.0,0.0,3.0477,3.0378,2.9958,2.9489,2.8468,2.7216,0.0,2.5322,2.4905,2.3996,0.0,0.0,0.0,0.0,0.0,2.3592,2.4511,2.5291,2.5742,2.5909,2.6017,2.625,2.5589,2.5368,2.5904,2.5404,2.5343,2.5874,2.5827,2.5504,0.0,0.0,0.0,0.0,0.0,0.0,0.0,0.0,0.0,0.0,0.0,0.0,0.0,0.0,0.0,0.0,0.0,0.0,0.0,0.0,0.0,0.0,0.0,0.0,0.0,0.0,0.0,0.0,2.847,2.9211,2.6606,2.9509,3.0595,0.0,0.0,0.0,0.0,0.0,0.0,3.3427,3.412,3.508,3.6413,3.7221,3.7958,3.8758,4.0219,4.133,4.2025,4.2493,4.2849,4.3102,4.3057,4.3097,4.3127,4.2194,4.1911,4.1655,3.6422,3.3628,3.2452,3.0683,2.9662,0.0,2.9867,3.0476,3.11,3.1859,3.2538,3.2861,3.1959,0.0,3.0978,2.8686,0.0,0.0,0.0,0.0,3.0252,3.0071,0.0,3.1379,3.1663,3.156,3.1187,3.0442,2.9755,2.8738,0.0,2.6261,2.5578,2.4379,0.0,0.0,0.0,0.0,2.3801,2.4422,2.5025,2.5606,2.6184,2.6396,2.6556,2.6691,2.6201,2.6149,2.6791,2.6009,2.5927,2.6901,2.6777,2.6527,2.6106,0.0,0.0,0.0,0.0,0.0,0.0,0.0,0.0,0.0,0.0,0.0,0.0,0.0,0.0,0.0,0.0,0.0,0.0,0.0,0.0,0.0,0.0,0.0,0.0,0.0,0.0,0.0,0.0,0.0,2.6952,3.1824,0.0,0.0,0.0,0.0,3.2169,3.5029,3.7182,3.8042,3.8838,3.9948,4.1468,4.0926,4.0979,4.1884,4.1971,4.232,4.2931,4.3525,4.3812,4.3842,4.3756,4.3472,4.291,4.2481,4.2258,4.2036,3.8795,3.7604,3.7665,3.6166,3.6,3.6572,3.6605,3.6663,3.6597,3.5967,3.5744,3.5901,3.6506,3.6265,3.5126,3.2136,3.1911,0.0,0.0,3.2248,3.2431,3.3517,3.3126,3.27,3.3803,3.3216,3.2221,3.147,3.0593,2.9668,0.0,2.7939,2.7407,2.7127,0.0,0.0,2.571,2.5109,2.504,2.62,2.5805,2.5759,2.6768,2.6367,2.6188,2.6555,2.6641,2.6657,2.6708,2.6774,2.6952,2.7265,2.7634,2.7704,2.7416,2.6921,0.0,0.0,0.0,0.0,0.0,0.0,0.0,0.0,0.0,0.0,0.0,0.0,0.0,0.0,0.0,0.0,0.0,0.0,0.0,0.0,0.0,0.0,0.0,0.0,0.0,0.0,0.0,0.0,3.3508,3.7015,0.0,3.4797,3.5941,3.6896,3.6998,3.8671,4.0354,4.1928,4.2643,4.3277,4.3812,4.3974,4.4006,4.3892,4.4327,4.4647,4.485,4.4675,4.4323,4.3943,4.3519,4.3167,4.291,4.2299,4.2417,4.2867,4.1302,4.0166,3.9237,3.7918,3.7303,3.7206,3.7655,3.7815,3.7847,3.804,3.8104,3.8008,3.7367,3.6346,3.5149,3.4094,3.3688,3.3593,3.363,3.3576,3.3655,3.421,3.4061,3.3877,3.4303,3.3729,3.2946,3.225,3.1498,3.0849,3.0416,2.9258,2.8034,2.7062,2.6831,2.6459,2.5472,2.5304,2.5431,2.5872,2.6249,2.644,2.6343,2.6705,2.6847,2.6553,2.6589,2.664,2.664,2.6725,2.6923,2.7288,2.7457,2.7678,2.7996,2.7828,2.7357,0.0,0.0,0.0,0.0,0.0,0.0,0.0,0.0,0.0,0.0,0.0,0.0,0.0,0.0,0.0,0.0,0.0,0.0,0.0,0.0,0.0,0.0,0.0,0.0,0.0,0.0,3.8581,3.8135,4.1087,4.2045,3.9341,4.0176,4.091,4.1065,4.2262,4.3602,4.4879,4.5547,4.5866,4.5866,4.6098,4.5982,4.5547,4.5779,4.5895,4.5866,4.543,4.4908,4.4269,4.3834,4.342,4.2983,4.246,4.2535,4.293,4.2274,4.1371,4.0419,3.9807,3.9157,3.8591,3.9094,3.9314,3.9377,3.9881,4.0039,3.9818,3.8435,3.7433,3.674,3.6283,3.5819,3.548,3.5584,3.5461,3.5273,3.5167,3.5192,3.5073,3.4623,3.4174,3.3634,3.2976,3.2497,3.2076,3.1754,3.0386,2.8948,2.7936,2.7953,2.7697,2.6472,2.6602,2.6801,2.6701,2.7306,2.7444,2.6605,2.7118,2.7183,2.6484,2.6572,2.664,2.6606,2.6725,2.6891,2.7083,2.7319,2.7616,2.8071,2.8308,2.7972,2.713,0.0,0.0,0.0,0.0,0.0,0.0,0.0,0.0,0.0,0.0,0.0,0.0,0.0,0.0,0.0,0.0,0.0,0.0,0.0,0.0,0.0,0.0,0.0,3.469,3.8463,4.1047,4.0408,4.3718,4.4792,4.1628,4.3573,4.4763,4.4182,4.5837,4.6865,4.6865,4.7491,4.784,4.7811,4.7201,4.6836,4.6807,4.6243,4.5924,4.5924,4.5895,4.5547,4.4879,4.4879,4.4211,4.3021,4.2992,4.2673,4.2063,4.1627,4.1416,4.1439,4.195,4.1721,4.1162,4.136,4.1426,4.1426,4.1426,4.1426,4.1201,3.991,3.9862,4.013,3.8824,3.8442,3.8411,3.8411,3.7913,3.7255,3.6656,3.6477,3.6148,3.4863,3.4533,3.4354,3.3664,3.3514,3.3335,3.2647,3.1362,3.0279,2.996,2.9932,2.9688,2.8928,2.9058,0.0,2.892,2.8998,2.8713,2.7715,2.7523,2.7178,2.6412,2.664,2.6759,2.6606,2.6859,2.6892,2.6691,2.7303,2.7686,2.7686,2.8264,2.8203,2.7408,0.0,0.0,0.0,0.0,0.0,0.0,0.0,0.0,0.0,0.0,0.0,0.0,0.0,0.0,0.0,0.0,0.0,0.0,0.0,0.0,0.0,0.0,3.9857,3.8696,4.2411,4.5343,4.5634,4.784,4.8624,4.6795,4.7259,4.7608,4.7433,4.7898,4.8391,4.8856,4.9059,4.8943,4.8478,4.8304,4.7985,4.7521,4.6882,4.6563,4.6563,4.6098,4.5547,4.4879,4.4879,4.4472,4.3689,4.3195,4.2905,4.2702,4.2133,4.1622,4.112,4.065,4.0357,4.0154,3.9853,3.9849,3.9985,3.9985,3.9985,3.992,3.9526,3.9536,3.9611,3.9219,3.8792,3.837,3.837,3.7901,3.7255,3.6656,3.6477,3.6267,3.5429,3.522,3.504,3.4352,3.4234,3.3873,3.2736,3.2195,3.1556,3.0516,3.0361,3.0118,2.9485,0.0,0.0,2.9249,2.988,2.9865,2.8521,2.89,2.8628,2.7138,2.7379,2.7248,0.0,2.6572,2.6708,2.6623,2.6841,2.7101,2.7338,2.7826,2.8,0.0,0.0,0.0,0.0,0.0,0.0,0.0,0.0,0.0,0.0,0.0,0.0,0.0,0.0,0.0,0.0,0.0,0.0,0.0,0.0,0.0,0.0,4.1047,4.3776,4.4095,4.6388,4.8391,4.9291,5.0394,5.0772,5.0017,4.9881,4.9814,4.9553,4.9553,4.9582,4.9669,4.9717,4.9494,4.9117,4.8856,4.8537,4.8188,4.755,4.7085,4.6778,4.6446,4.5924,4.5314,4.5314,4.4966,0.0,4.395,4.3485,4.2963,4.2615,4.2092,0.0,0.0,0.0,0.0,0.0,3.9192,3.9301,3.9373,3.9373,3.9373,3.9373,3.9373,3.9373,3.9373,3.914,3.8811,3.8811,3.8542,3.8093,3.7464,3.7285,3.7135,3.6477,3.6118,3.5818,3.54,3.51,3.4686,3.388,0.0,0.0,3.2701,3.1863,3.1064,3.0347,3.0788,3.0948,0.0,3.0559,3.0491,2.9297,2.9481,2.9168,2.7864,2.7778,0.0,0.0,0.0,2.6809,2.7182,2.7284,0.0,0.0,0.0,2.8649,0.0,0.0,0.0,0.0,2.9084,2.9111,0.0,0.0,0.0,0.0,0.0,0.0,0.0,0.0,0.0,0.0,0.0,0.0,0.0,0.0,0.0,0.0,4.4792,4.7346,4.9727,5.0162,5.0598,5.1497,5.1672,5.1701,5.1643,5.1614,5.1352,5.0714,5.0734,5.0394,4.9746,0.0,0.0,0.0,0.0,4.8827,4.8827,4.8217,4.7608,4.6981,4.6865,4.6534,4.5982,4.5924,4.5576,4.4995,4.4908,4.424,4.3195,4.305,4.2644,4.2075,4.1569,4.0597,3.9484,3.9232,3.9142,0.0,0.0,0.0,0.0,3.9373,3.9373,3.9373,3.9373,3.9373,3.9373,3.9373,3.9373,3.926,3.8571,3.8392,3.8212,3.7554,3.6993,3.661,3.661,3.6102,3.5666,3.5552,3.5518,3.548,3.5426,3.3869,3.2345,3.1597,3.2098,0.0,3.1319,3.1279,3.0983,3.0107,0.0,0.0,2.8575,2.8174,2.808,2.8458,2.7494,2.725,2.8049,2.8186,2.8493,2.9052,2.9661,2.985,2.9468,3.0075,3.0842,3.1797,3.0271,2.986,0.0,0.0,0.0,0.0,0.0,0.0,0.0,0.0,0.0,0.0,0.0,0.0,0.0,0.0,0.0,4.4589,4.8159,5.0859,5.1875,5.292,5.3094,5.1788,5.2078,5.2194,5.1672,5.1614,5.1352,5.0714,5.0734,5.0394,4.9746,4.9717,0.0,4.9717,4.9553,4.9494,4.9494,4.8856,4.8478,4.8286,0.0,0.0,4.6621,4.6127,4.5808,4.5663,4.5111,4.4734,4.4443,4.3398,4.2644,4.2034,4.1407,4.0479,3.9504,3.9434,3.9306,3.909,3.9156,3.9265,3.9373,3.9373,3.9373,3.9373,3.9373,3.9373,0.0,3.9373,3.9373,3.926,3.8571,3.8392,3.8212,3.7554,3.7298,3.7237,3.7237,3.7126,3.6867,3.6324,3.6195,3.6004,3.551,3.4577,3.3869,3.3716,3.3709,3.3501,3.2707,3.2997,3.2745,3.1418,3.1462,3.0931,2.9337,2.9379,2.9168,2.8448,2.8244,2.8256,2.8449,2.852,2.8587,2.8684,2.9974,3.06,3.0502,3.2198,3.3083,3.3171,3.1785,3.1556,0.0,0.0,0.0,0.0,0.0,0.0,0.0,0.0,0.0,0.0,0.0,3.7463,0.0,0.0,4.5285,4.7869,5.0423,5.231,5.2949,5.3617,5.3646,5.2688,5.2862,5.292,5.2601,5.2572,5.2165,5.1207,5.1149,5.0714,4.9727,4.9717,4.9717,4.9717,4.9717,4.9717,4.9717,4.9349,4.903,4.8663,4.8025,4.7387,4.6778,4.6505,4.6185,4.5866,4.5547,4.5024,4.4327,4.3079,4.2353,4.2063,4.1715,4.0906,3.9905,3.9727,3.9424,3.909,3.9228,3.9301,3.9373,3.9373,3.9373,3.9373,3.9373,3.9373,3.9373,3.9373,3.9373,3.9313,3.899,3.8901,3.8917,3.894,3.8702,3.8544,3.8869,3.8685,3.8453,3.8459,3.8136,3.7898,3.7913,3.6999,3.5814,3.4514,3.4477,3.436,3.3647,3.3445,3.3214,3.2751,3.2186,3.1474,3.0576,3.0322,2.9696,2.8495,2.8727,2.9131,2.9536,2.9629,2.9962,3.0654,3.1491,3.188,3.185,3.2892,3.346,3.3591,3.2932,3.2721,0.0,0.0,0.0,0.0,0.0,0.0,0.0,0.0,3.6687,3.76,3.9712,4.2092,4.4327,4.6795,4.9117,5.0946,5.2397,5.3413,5.3675,5.382,5.3733,5.3384,5.3442,5.35,5.35,5.3384,5.2862,5.1701,5.1497,5.0917,4.9727,4.9717,4.9717,4.9717,4.9717,4.9717,4.9717,4.9717,4.9407,4.8914,4.8653,4.8014,4.6998,4.6766,4.6359,4.5895,4.5895,4.5227,4.4066,4.2934,4.2382,4.2266,4.2192,4.1569,4.0588,4.0097,3.9638,3.9261,3.9324,3.9373,3.9373,3.9373,3.9373,3.9373,3.9373,3.9373,3.9409,3.9589,3.9625,3.9661,3.9773,3.9809,3.995,4.0547,4.0293,4.0028,4.0579,4.0259,4.0055,4.0567,4.0199,3.9981,4.0525,3.9487,3.7807,3.5433,3.5195,3.5096,3.4543,3.3828,3.3475,3.3743,3.2729,3.1979,3.1813,3.125,3.0444,2.9304,2.9748,3.0311,3.0886,3.1024,3.161,3.2685,3.3006,3.3117,3.3095,3.3306,3.3559,3.3859,3.388,3.3659,3.0685,2.9784,3.0742,3.4176,3.5083,3.6335,0.0,0.0,4.2279,4.2963,4.4705,4.633,4.7201,4.9465,5.1643,5.2978,5.4778,5.562,5.4546,5.4865,5.4575,5.2862,5.3181,5.35,5.35,5.3007,5.2368,5.1672,5.1091,5.0452,4.9727,4.9717,4.9717,4.9717,4.9717,4.9717,4.9717,4.9717,4.964,4.9553,4.842,4.7811,4.7637,4.6505,4.5953,4.5895,4.5895,4.5459,4.4734,4.4066,4.3427,4.2889,4.2502,4.2034,4.146,4.0627,4.0088,3.9697,3.9261,3.9265,3.9373,3.9373,3.9373,3.9373,3.9373,3.9373,3.9553,4.0165,4.0374,4.0512,4.1093,4.126,4.1294,4.136,4.1342,4.13,4.1362,4.1262,4.121,4.1295,4.1229,4.1191,4.1281,4.0647,3.9626,3.8005,3.6711,3.5877,3.5803,3.5117,3.4471,3.3856,3.3657,3.3292,3.263,3.252,3.2387,3.2221,3.2287,3.2387,3.2453,3.2453,3.2553,3.2718,3.3371,3.3703,3.3713,3.4459,3.4815,3.4768,3.4885,3.4573,3.3499,3.3238,3.4167,3.6925,3.8734,4.0554,4.3427,4.4676,4.5518,4.6534,4.7985,4.9378,5.0394,5.2078,5.3471,0.0,5.5068,5.5533,5.4633,5.44,5.3733,5.2194,5.2252,5.2397,5.2397,5.2514,5.2216,5.1149,5.1178,5.0772,4.9727,4.9717,4.9717,4.9717,4.9717,4.9717,4.9717,4.9717,4.9717,4.9717,4.9146,4.8682,4.8304,4.7404,4.6592,4.5866,4.5488,4.514,4.4821,4.3805,4.3253,4.2934,4.2449,4.2205,4.2016,4.1499,4.1083,4.071,4.0487,4.0233,4.0051,4.0425,4.0325,4.0126,4.0512,4.0619,4.0718,4.0992,4.106,4.116,4.1426,4.1492,4.1624,4.2045,4.2171,4.2255,4.2654,4.2693,4.2671,4.2671,4.2307,4.2042,4.2042,4.1475,4.0779,4.0183,3.8467,3.7135,3.6704,3.6373,3.5744,3.4551,3.4419,3.3955,3.2818,3.2718,3.2718,3.2718,3.2718,3.2884,3.3326,3.3326,3.3524,3.3955,3.4286,3.4419,3.4419,3.4797,3.493,3.4883,3.4987,3.4946,3.5363,3.6083,3.7476,4.0118,4.2557,4.4705,4.6156,4.7491,4.8624,4.9378,5.0423,5.1439,5.2165,5.3355,5.4284,5.4487,5.501,5.5184,5.4604,5.3936,5.2833,5.1033,5.083,5.0743,5.0569,5.1468,5.1722,5.0793,5.0917,5.0656,4.9727,4.9717,4.9717,4.9717,4.9717,4.9717,4.9717,4.9717,4.9717,4.9717,4.9494,4.9088,4.8449,4.7637,4.6766,4.5866,4.5372,4.5169,4.5082,4.3979,4.3427,4.3195,4.2627,4.2403,4.2374,4.2317,4.196,4.1547,4.1444,4.1055,4.0785,4.124,4.1124,4.0832,4.1357,4.1492,4.1558,4.1754,4.1787,4.1852,4.2013,4.2078,4.2205,4.2741,4.2865,4.3021,4.3509,4.3598,4.3598,4.3598,4.3168,4.2804,4.2804,4.2175,4.1678,4.1678,4.0189,3.8758,3.7831,3.7367,3.6704,3.5611,3.5313,3.4783,3.369,3.3425,3.3292,3.3292,3.3292,3.3524,3.4087,3.4087,3.4352,3.4883,3.4883,3.4883,3.4883,3.4883,3.4883,3.4883,3.4883,3.5024,0.0,0.0,3.9189,4.3602,4.6185,4.813,5.0124,5.1497,5.2223,5.1643,5.2049,5.2339,5.1759,5.2688,5.3762,5.44,5.501,5.5184,5.4604,5.3936,5.2339,4.9127,4.8779,4.8566,0.0,4.9611,5.0714,5.0734,5.0075,4.9727,4.9717,4.9717,4.9717,4.9717,4.9717,4.9717,4.9717,4.9717,4.9717,4.9717,4.9059,4.842,4.7753,4.6505,4.5924,4.5895,4.5866,4.5866,4.5808,4.5111,4.4472,4.3935,4.3465,4.2906,4.2474,4.282,4.2535,4.195,4.1556,4.1422,4.1385,4.1393,4.1366,4.1383,4.1482,4.1492,4.1656,4.2365,4.2554,4.271,4.3355,4.3539,4.3539,4.3568,4.3568,4.3598,4.3598,4.3598,4.3598,4.3598,4.3565,4.3565,4.3565,4.2936,4.2473,4.2473,4.1778,4.0812,3.9415,3.7963,3.7102,3.7036,3.6406,3.5943,3.5909,3.5247,3.4816,3.4816,3.4816,3.4849,3.4849,3.4849,3.4883,3.4883,3.4883,3.4883,3.4883,3.4883,3.4883,3.4883,3.4883,3.4883,0.0,0.0,4.2353,4.6417,4.8566,5.0191,5.2107,5.2572,5.2565,5.2281,5.1062,5.0075,5.0278,5.0685,5.1323,5.2426,5.4168,5.5184,5.4604,5.4313,5.2978,4.9785,4.933,0.0,0.0,0.0,0.0,4.9988,5.0598,5.0598,4.9776,5.0104,5.0182,4.9746,4.9717,4.9717,4.9717,4.9717,4.9717,4.9717,4.9465,4.8798,4.7782,4.7346,4.6679,4.5895,4.5895,4.5895,4.5837,4.5169,4.4763,4.4531,4.3978,4.3423,4.3065,4.3808,4.3482,4.2743,4.3281,4.3182,4.2941,4.3955,4.3669,4.3004,4.3457,4.3255,4.2927,4.3204,4.3265,4.3457,4.4131,4.4324,4.4456,4.4953,4.5052,4.5052,4.5052,4.4688,4.4324,4.4324,4.3959,4.3598,4.3598,4.34,4.3069,4.2572,4.1844,4.1243,4.0746,3.9852,3.909,3.8593,3.7897,3.7268,3.6771,3.6506,3.6373,3.6373,3.6373,3.6373,3.6373,3.5876,3.5644,3.5644,3.5148,3.4883,3.4883,3.5379,3.5644,3.5644,3.5644,3.5644,0.0,4.2963,4.5895,4.9524,5.1062,5.1962,5.2949,5.2688,5.2049,5.1323,4.9349,4.7695,4.7666,4.7462,4.7869,4.9611,5.1265,5.2601,5.3384,5.3094,5.1962,4.964,4.933,4.8798,0.0,0.0,0.0,4.9291,5.054,5.0917,5.0124,5.0502,5.0531,5.0095,4.9785,4.9717,4.9717,4.9717,4.9717,4.9717,4.9436,4.8798,4.7782,4.755,4.6882,4.5895,4.5895,4.5895,4.5866,4.543,4.5111,4.4894,4.4748,4.4363,4.4044,4.5053,4.484,4.4074,4.4649,4.4418,4.4062,4.5312,4.5144,4.4497,4.4966,4.4754,4.439,4.439,4.439,4.4522,4.4953,4.5086,4.5185,4.5682,4.5781,4.5715,4.545,4.5019,4.4622,4.4357,4.3896,4.3598,4.3598,4.3598,4.3433,4.2969,4.2473,4.1976,4.1475,4.1011,4.0481,3.9779,3.9023,3.8295,3.7566,3.7268,3.7102,3.7102,3.7102,3.7102,3.7102,3.6638,3.6406,3.6406,3.5678,3.528,3.528,3.5512,3.5611,3.5611,3.5611,3.5684,4.4705,4.7462,4.9669,5.2833,5.353,5.3297,5.2717,5.1962,5.0888,4.8972,4.6969,4.5198,0.0,0.0,4.3747,4.6314,4.6894,4.8112,5.1236,5.0685,4.9698,0.0,0.0,0.0,0.0,0.0,0.0,4.8779,0.0,5.0714,5.0714,5.0714,5.0714,5.0734,5.0066,4.9717,4.9717,4.9717,4.9717,4.9717,4.9059,4.8449,4.7811,4.7201,4.6563,4.5924,4.5924,4.5924,4.5895,4.5895,4.5562,4.5069,4.5693,4.5607,4.5263,4.6524,4.6501,4.5804,4.5712,4.521,4.4763,4.5573,4.5793,4.5763,4.5857,4.5814,4.5781,4.5781,4.5781,4.5814,4.5847,4.5847,4.5847,4.5881,4.5914,4.5715,4.5019,4.4821,4.4589,4.3863,4.3631,4.3598,4.3598,4.3598,4.3598,4.3598,4.3598,4.3069,4.1678,4.1508,4.121,4.0514,3.9812,3.9083,3.8328,3.7632,3.7235,3.7235,3.7235,3.7235,3.7235,3.7201,3.7168,3.7168,3.6439,3.6075,3.6042,3.5379,3.5048,3.5015,3.5015,3.5171,4.784,5.0133,5.2136,5.4371,5.3849,5.2775,5.2652,5.0598,4.8362,4.6911,4.3573,4.1105,0.0,0.0,0.0,4.5634,4.8537,0.0,5.2136,5.2891,0.0,5.173,0.0,5.0627,4.9988,5.0075,0.0,0.0,5.0917,5.1381,5.1381,5.1381,5.1149,5.0685,5.0066,4.9717,4.9717,4.9717,4.9717,4.9717,4.9524,4.9088,4.8478,4.8257,4.759,4.6592,4.6592,4.633,4.5895,4.5895,4.6092,4.6402,4.6577,4.6591,4.6637,4.7947,4.73,4.5988,4.7501,4.7225,4.6346,4.7142,4.7045,4.6616,4.6612,4.6245,4.5781,4.5781,4.5781,4.5914,4.6477,4.6609,4.6742,4.7305,4.7438,4.7404,4.7206,4.6709,4.6113,4.5384,4.4357,4.3598,4.3598,4.3598,4.3598,4.3598,4.3598,4.3466,4.3069,4.2539,4.191,4.121,4.0514,3.9812,3.9083,3.8851,3.8752,3.8752,3.8752,3.8752,3.8752,3.8195,3.793,3.793,3.7201,3.6837,3.6837,3.7201,3.7069,3.6539,3.6539,3.629,5.1033,5.2601,5.3675,5.4749,5.3559,5.1788,5.0365,4.8014,4.5518,4.3398,4.006,0.0,3.8501,3.8812,0.0,0.0,0.0,0.0,5.1439,5.2601,5.3181,0.0,5.2659,0.0,5.1606,5.1497,5.1497,0.0,5.1846,5.2049,5.2049,5.1759,5.1439,5.1091,5.0162,4.9717,4.9717,4.9717,4.9717,4.9717,4.9717,4.9349,4.8663,4.8663,4.7996,4.6778,0.0,4.6475,4.5895,4.5895,4.6269,4.6975,4.7435,4.7798,4.8264,4.9671,4.9006,4.7659,4.9014,4.8513,4.7404,4.7869,4.7736,4.7371,4.7371,4.7073,4.6775,4.6775,4.6775,4.6874,4.7272,4.7371,4.7504,4.7901,4.8001,4.7901,4.7603,4.7206,4.6576,4.5516,4.4655,4.3992,4.3664,4.3598,4.3598,4.3598,4.3598,4.3598,4.3598,4.3234,4.2704,4.1943,4.1541,4.1011,4.0282,4.0216,4.0083,3.9812,3.9779,3.9647,3.9315,3.8891,3.8659,3.8659,3.7963,3.7599,3.7599,3.7665,3.75,3.7102,3.7303,3.7209,5.3936,5.4691,5.4604,5.4546,5.292,5.054,4.7358,4.4966,4.2469,3.9334,0.0,3.4927,3.5131,3.5764,3.7418,4.0786,0.0,4.6475,5.0278,5.141,5.231,5.35,5.3704,5.3559,5.3007,5.2862,5.2833,5.2833,5.2798,5.2688,5.2688,5.2078,5.1672,5.1497,5.0307,4.9717,4.9717,4.9717,4.9717,4.9717,4.9717,4.9378,4.8856,4.8856,4.8235,4.7194,0.0,0.0,4.6326,4.6104,4.6491,4.7249,4.8221,4.9044,4.9805,5.1247,5.091,4.9801,5.0083,4.9326,4.8133,4.8034,4.8067,4.8166,4.8166,4.8166,4.8166,4.8166,4.8067,4.8001,4.8001,4.8001,4.8001,4.8001,4.8001,4.7835,4.7173,4.6974,4.651,4.5218,4.4887,4.4622,4.3995,4.3896,4.3863,4.3764,4.3731,4.3698,4.3598,4.3598,4.33,4.2572,4.2506,4.2175,4.1446,4.1409,4.1143,4.0575,4.0442,4.0111,3.9481,3.9348,3.9315,3.9315,3.8659,3.8361,3.8361,3.7698,3.7334,3.7268,3.7684,3.7946,5.5474,5.5678,5.5126,5.4633,5.2252,4.9349,4.665,4.2934,0.0,0.0,3.3964,3.2513,3.362,3.5183,3.7709,4.1976,4.4821,4.7666,5.0975,5.2455,5.3471,0.0,5.4778,5.5039,0.0,0.0,0.0,0.0,0.0,0.0,5.3355,5.2746,5.1933,5.0888,5.0075,4.9717,4.9717,4.9717,4.9717,4.9717,4.9717,4.9611,4.9524,4.9524,4.9424,4.9195,0.0,0.0,4.8364,4.7183,4.7465,4.8584,4.9125,4.9757,5.0454,5.1429,5.1237,5.049,5.0281,4.9657,4.8829,4.8199,4.8398,4.8928,4.8928,4.8928,4.8928,4.8928,4.8465,4.8001,4.8001,4.8001,4.8001,4.8001,4.8001,4.7968,4.7835,4.7338,4.6808,4.6576,4.6013,4.5549,4.545,4.5417,4.5218,4.4589,4.4489,4.4291,4.3664,4.3598,4.33,4.2572,4.2506,4.2175,4.1446,4.1409,4.1347,4.1243,4.0713,4.0343,4.021,3.9613,3.9315,3.9315,3.9183,3.9116,3.9116,3.8984,3.8593,3.803,3.843,3.8308,5.5968,5.591,5.5184,5.4226,5.1323,4.7695,4.3776,0.0,0.0,0.0,3.138,3.0829,3.1818,3.379,3.6344,3.9509,4.2179,4.5082,4.8624,5.0511,5.2136,5.3791,5.4836,5.53,0.0,0.0,0.0,0.0,0.0,0.0,5.35,5.292,5.1868,5.022,5.0191,5.0017,4.9717,4.9717,4.9717,4.9717,4.9717,4.9717,4.9717,5.0105,5.0106,4.9753,0.0,0.0,4.8905,4.7865,4.7988,4.8913,4.9327,5.0033,5.0908,5.154,5.1218,5.0408,5.0251,4.9723,4.9061,4.8696,4.8829,4.9094,4.9094,4.9094,4.9094,4.9094,4.8862,4.8564,4.8564,4.8564,4.8564,4.8564,4.8299,4.8001,4.8001,4.7736,4.7371,4.6974,4.6609,4.6245,4.5847,4.5781,4.5682,4.5317,4.4953,4.4556,4.4224,4.383,4.3466,4.3102,4.3069,4.2936,4.2572,4.2539,4.2373,4.1976,4.1674,4.1309,4.0945,4.058,4.0382,4.0382,4.0044,3.9879,3.9879,3.9481,3.9116,3.8785,3.9337,3.9433,5.562,5.562,5.4923,5.3646,5.0423,4.6272,4.125,3.7455,0.0,3.019,2.9291,2.9436,3.0219,3.2251,3.4574,3.6925,3.9218,4.2121,4.6198,4.8478,5.0598,0.0,5.4546,0.0,0.0,0.0,0.0,0.0,0.0,0.0,5.35,5.292,5.1817,5.0133,5.0481,5.0415,4.9746,4.9863,4.996,4.996,5.0105,5.0172,5.0172,5.0745,5.0823,5.0469,0.0,0.0,0.0,4.8534,4.8532,4.9147,4.9559,5.0267,5.1172,5.1614,5.1325,5.0651,5.0485,5.0055,4.9558,4.9392,4.9458,4.9558,4.9558,4.9558,4.9558,4.9558,4.9458,4.9359,4.9359,4.9226,4.9061,4.8895,4.8564,4.8199,4.8034,4.8001,4.7835,4.7239,4.7139,4.6941,4.6378,4.6278,4.6212,4.6046,4.5516,4.5052,4.4721,4.4191,4.3764,4.3598,4.3598,4.3598,4.3598,4.3598,4.3333,4.2771,4.2572,4.2241,4.1645,4.1508,4.1409,4.1409,4.0878,4.0569,4.0519,4.0113,3.9867,3.9807,4.0628,4.1018,5.4168,5.4633,5.4284,5.2978,4.9756,4.5721,4.1134,0.0,3.2748,2.9464,2.8303,2.8246,2.9465,3.0828,3.2974,3.6722,3.8463,4.1134,4.6082,4.846,5.0452,5.2426,0.0,0.0,0.0,0.0,0.0,0.0,0.0,0.0,0.0,5.292,5.2223,5.1468,5.0946,5.0415,4.9746,5.0364,5.0728,5.0728,5.1403,5.1697,5.1697,5.1743,5.2124,5.2617,0.0,0.0,0.0,4.9595,4.9188,4.9821,5.0253,5.0685,5.1172,5.1614,5.1951,5.2075,5.1448,5.1149,5.1017,5.032,5.0551,5.1116,5.1116,5.1116,5.1116,5.1116,5.0618,5.0121,5.0121,4.9624,4.8928,4.8266,4.8564,4.8829,4.8133,4.8001,4.7968,4.7901,4.7901,4.7868,4.7802,4.7802,4.757,4.6908,4.6742,4.6212,4.4854,4.4622,4.4324,4.3664,4.3598,4.3598,4.3598,4.3598,4.3565,4.3499,4.287,4.2473,4.2406,4.1744,4.1409,4.1409,4.1342,4.1145,4.0855,4.1513,4.1685,4.1401,4.2536,4.3019,5.2514,5.3355,5.321,5.2739,4.9088,4.4472,3.9973,0.0,3.1874,2.8274,2.7636,2.8101,2.9378,3.0016,3.138,3.4486,3.5096,3.6838,4.157,4.3921,4.6417,4.9843,5.2281,0.0,0.0,0.0,0.0,0.0,0.0,0.0,0.0,5.3268,5.2659,5.1643,5.1804,5.1582,5.0934,5.1285,5.1496,5.1496,5.1743,5.188,5.1926,5.2366,5.2726,5.2931,0.0,0.0,0.0,5.0187,4.9661,4.9971,5.0331,5.0755,5.1172,5.1614,5.1753,5.1713,5.1415,5.0982,5.0651,5.0817,5.1048,5.1315,5.1315,5.0982,5.0717,5.1183,5.075,5.032,5.075,5.0618,5.022,4.9491,4.9558,4.969,4.9392,4.9326,4.9193,4.8763,4.8663,4.8531,4.8067,4.8001,4.7901,4.7603,4.7173,4.6676,4.6079,4.5616,4.5251,4.4953,4.4128,4.3598,4.3598,4.3598,4.3598,4.3598,4.33,4.3168,4.3168,4.287,4.2704,4.2704,4.2274,4.2137,4.2274,4.1668,4.1441,4.1604,4.1826,4.1925,4.9872,5.1439,5.2013,5.181,4.8079,4.3394,0.0,0.0,3.1066,2.7625,2.7341,2.8014,2.9116,2.9639,3.0568,3.2571,3.3151,3.4695,3.8527,4.0887,4.3669,0.0,0.0,0.0,0.0,0.0,0.0,0.0,0.0,0.0,0.0,5.3535,5.304,5.1933,5.2426,5.2407,5.1784,5.206,5.223,5.223,5.2426,5.2516,5.2592,5.3113,5.3334,0.0,0.0,0.0,0.0,5.05,4.9939,5.0097,5.0409,5.0832,5.1359,5.1688,5.172,5.1614,5.1382,5.0949,5.0585,5.0883,5.0949,5.0949,5.0949,5.075,5.0684,5.1448,5.1247,5.0916,5.1249,5.1481,5.138,5.0452,5.0386,5.0485,5.0253,5.022,5.0055,4.9525,4.9425,4.9193,4.8465,4.8332,4.8266,4.8034,4.757,4.7139,4.6941,4.6444,4.6046,4.5814,4.4887,4.4161,4.3959,4.3731,4.3598,4.3598,4.3598,4.3598,4.3598,4.3598,4.3598,4.3598,4.3069,4.2936,4.3182,4.2213,4.1894,4.2087,4.1936,4.1882,4.5966,4.874,5.0589,4.9921,4.6632,4.2485,0.0,3.4247,3.0277,2.7712,2.7474,2.7898,2.8565,2.9755,3.0801,3.1438,3.3674,3.6172,3.8495,4.0998,4.3466,0.0,0.0,0.0,0.0,0.0,0.0,0.0,0.0,0.0,0.0,5.3641,5.336,5.2594,5.2662,5.2407,5.1784,5.2597,5.298,5.3024,5.3726,5.4103,5.4103,5.4103,0.0,0.0,0.0,0.0,0.0,5.05,5.0136,5.0486,5.0525,5.1022,5.1794,5.1794,5.205,5.2274,5.1547,5.1315,5.1183,5.0452,5.022,5.022,5.022,5.0717,5.1448,5.221,5.2409,5.221,5.1514,5.1846,5.2009,5.0551,5.075,5.1116,5.0386,5.022,5.022,5.0187,5.0187,4.9955,4.9226,4.9094,4.8862,4.81,4.8001,4.7736,4.6974,4.6874,4.6609,4.5881,4.5781,4.5483,4.4721,4.4026,4.3598,4.3598,4.3598,4.3598,4.3598,4.3598,4.3598,4.3598,4.3598,4.3435,4.3093,4.3559,4.3606,4.3286,4.3698,4.3886,4.0205,4.1983,4.3052,4.2848,4.0626,3.7849,3.5278,3.2431,2.9718,2.765,2.715,2.7403,2.8505,2.9348,3.0713,3.309,3.4922,3.6662,0.0,0.0,0.0,0.0,0.0,0.0,0.0,0.0,0.0,0.0,0.0,0.0,0.0,0.0,5.3562,5.336,5.3537,5.3498,5.3315,5.3588,5.3726,5.3726,5.4017,5.4103,5.4103,5.4103,0.0,0.0,0.0,0.0,0.0,5.0779,5.0409,5.0563,5.1167,5.154,5.1831,5.2122,5.2302,5.2376,5.2144,5.138,5.0585,5.085,5.0253,4.9558,5.0055,5.0021,4.9856,5.0088,5.085,5.1614,5.1382,5.1879,5.2274,5.181,5.1877,5.2011,5.1744,5.1678,5.1545,5.1048,5.0949,5.0717,4.9988,4.9425,4.9028,4.8796,4.8332,4.7934,4.7669,4.7636,4.757,4.7338,4.6841,4.6245,4.5516,4.4787,4.4507,4.4804,4.4365,4.4207,4.4485,4.4485,4.4485,4.4485,4.4485,4.4572,4.4825,4.4415,4.3796,4.2964,4.308,4.2868,3.5873,3.793,3.9207,3.9084,3.7297,0.0,0.0,3.1303,2.922,2.7786,2.7491,2.7695,2.8488,2.9517,3.0866,3.2656,3.4723,0.0,0.0,0.0,0.0,0.0,0.0,0.0,0.0,0.0,0.0,0.0,0.0,0.0,0.0,0.0,5.4092,5.3851,5.3898,5.3971,5.3971,5.4072,5.4103,5.4103,5.385,5.3724,5.3724,0.0,0.0,0.0,0.0,0.0,0.0,5.0809,5.0602,5.0794,5.1503,5.1904,5.205,5.2302,5.2243,5.1978,5.1645,5.0783,4.9823,4.9988,4.9425,4.8763,4.9226,4.9458,4.9458,4.9193,5.0154,5.1315,5.1315,5.1879,5.2409,5.2409,5.2409,5.2409,5.2409,5.2409,5.2277,5.1812,5.1713,5.138,5.0386,4.9823,4.9326,4.8763,4.8299,4.8066,4.8227,4.826,4.826,4.826,4.786,4.733,4.6707,4.5682,4.5299,4.5778,4.5134,4.4897,4.5337,4.5063,4.4892,4.4892,4.4892,4.5028,4.5328,4.4699,4.4004,4.3219,4.3219,4.2938,0.0,3.5777,3.7817,3.7445,3.5821,3.394,3.2762,3.0637,0.0,2.8141,2.8222,2.8491,2.8581,3.0078,3.1213,3.0823,0.0,0.0,0.0,4.0275,0.0,0.0,0.0,0.0,0.0,0.0,0.0,0.0,0.0,0.0,0.0,0.0,0.0,5.4092,5.403,5.3999,5.3999,5.4009,5.404,5.4008,5.3344,5.3028,5.3028,0.0,0.0,0.0,0.0,0.0,0.0,5.0657,5.0794,5.121,5.1651,5.2086,5.2373,5.2343,5.1912,5.1216,5.0452,4.9723,4.8995,4.8233,4.8001,4.8001,4.8001,4.8961,4.9922,4.9226,5.0088,5.1249,5.1249,5.1812,5.2409,5.2409,5.2409,5.2409,5.2409,5.2409,5.2409,5.2409,5.2409,5.1943,5.0585,5.0286,4.9756,4.8398,4.8132,4.8195,4.8671,4.8733,4.8733,4.8733,4.8733,4.8545,4.8099,4.6707,4.6096,4.6608,4.5934,4.5732,4.624,4.5514,4.5076,4.5076,4.5008,4.4974,4.4974,4.4656,4.4341,4.3992,4.3992,4.3957,2.8824,0.0,3.1024,3.0506,3.0141,2.9802,0.0,2.8814,2.8202,2.805,2.7886,2.8124,2.9142,3.0073,3.1331,3.3154,0.0,0.0,3.8549,0.0,0.0,0.0,0.0,0.0,0.0,0.0,0.0,0.0,0.0,0.0,0.0,0.0,0.0,5.4807,5.4348,5.4065,5.4065,5.3575,5.3344,5.3344,5.2618,5.227,5.227,0.0,0.0,0.0,0.0,0.0,0.0,5.1121,5.121,5.1688,5.2122,5.2302,5.2307,5.1779,5.1448,5.1216,5.0452,4.9723,4.8995,4.8233,4.8001,4.8001,4.8001,4.8233,4.8498,4.8332,4.9326,5.0452,5.0452,5.1413,5.2409,5.2409,5.2409,5.2409,5.2409,5.2409,5.2409,5.2409,5.2409,5.231,5.1943,5.0949,5.0224,5.0225,4.9251,4.8702,4.9161,4.9222,4.9222,4.9222,4.9222,4.9073,4.8576,4.7363,4.6987,4.7831,4.718,4.714,4.7901,4.7221,4.6802,4.6802,4.6219,4.5905,4.5905,4.583,4.5474,4.4834,4.4834,4.4483,2.7902,2.8589,2.9264,2.8753,2.875,2.8873,2.8873,2.8504,2.8192,2.8192,2.8307,2.8632,2.936,3.027,3.1548,0.0,3.5955,0.0,0.0,0.0,0.0,0.0,0.0,0.0,0.0,0.0,0.0,0.0,0.0,0.0,0.0,0.0,0.0,0.0,5.4292,5.3945,5.3629,5.3281,5.2934,5.2586,5.1891,5.1543,5.1543,0.0,0.0,0.0,0.0,0.0,5.1108,5.1334,5.1577,5.1835,5.1867,5.1912,5.1812,5.1048,5.0585,5.022,4.9823,4.9226,4.8531,4.8133,4.8001,4.8001,4.8001,4.8001,4.8001,4.8001,4.8829,4.979,5.0121,5.1048,5.1978,5.2343,5.2409,5.2409,5.2409,5.2409,5.2409,5.2409,5.2409,5.221,5.1512,5.119,5.076,5.0018,5.0002,5.0005,4.9772,5.0037,5.014,4.9762,4.9727,4.9521,4.904,4.8425,4.825,4.8792,4.8306,4.8315,4.9021,4.8345,4.7783,4.7397,4.66,4.6214,4.6214,4.6214,4.6003,4.5582,4.5582,4.5372,2.8658,2.9444,3.005,2.9388,2.9402,2.9525,2.9402,2.9058,2.8719,2.8719,2.9156,2.9617,2.9827,3.0874,0.0,0.0,0.0,0.0,0.0,0.0,0.0,0.0,0.0,0.0,0.0,0.0,0.0,0.0,0.0,0.0,0.0,0.0,0.0,0.0,5.4008,5.3629,5.2934,5.2934,5.2586,5.1828,5.1132,5.0816,5.0816,5.0816,0.0,0.0,0.0,0.0,5.0755,5.1503,5.1765,5.1711,5.1407,5.1249,5.1015,5.032,4.9657,4.9094,4.8995,4.8531,4.8001,4.8001,4.8001,4.8001,4.8001,4.8001,4.8001,4.8001,4.8531,4.926,4.9889,5.0651,5.1481,5.2111,5.2343,5.2409,5.2409,5.2409,5.2409,5.2409,5.2409,5.1978,5.0688,5.1229,5.1258,4.9528,5.0611,5.1344,5.0477,5.1014,5.1118,5.032,5.0222,5.0017,4.9551,4.958,4.958,4.9521,4.9286,4.9326,4.9679,4.9082,4.838,4.7573,4.68,4.6389,4.6389,4.6249,4.6214,4.6214,4.6214,4.6214,2.9771,3.0823,3.1116,2.9051,2.9402,3.0109,2.9525,2.974,3.0079,3.0079,3.0171,3.0571,3.1736,3.2567,3.3621,0.0,0.0,0.0,0.0,0.0,0.0,0.0,0.0,0.0,0.0,0.0,0.0,0.0,0.0,0.0,0.0,0.0,0.0,0.0,0.0,5.2902,5.2175,5.2175,5.1828,5.1132,5.0437,5.0089,5.0089,5.0089,5.0224,0.0,0.0,0.0,5.1614,5.1725,5.1619,5.1343,5.1313,5.0916,5.0286,4.9558,4.9193,4.9028,4.8398,4.81,4.8001,4.8001,4.8001,4.8001,4.8001,4.8001,4.8001,4.8001,4.8531,4.9127,4.926,5.0286,5.1348,5.1448,5.1978,5.2409,5.2409,5.2409,5.2409,5.2409,5.2409,5.2285,5.1799,5.1363,5.1217,5.1752,5.1548,5.1442,5.1689,5.1815,5.1605,5.0862,5.0792,5.0564,5.0017,5.0425,5.0481,5.0017,4.9941,4.9848,4.9714,4.96,4.9153,4.8345,4.7608,4.7222,4.7222,4.653,4.6214,4.6214,4.6214,4.6214,2.915,3.019,3.0853,2.9942,3.1119,3.2368,3.1704,3.1764,3.2063,3.2405,3.2765,3.3251,3.4039,0.0,3.7309,4.007,0.0,0.0,0.0,0.0,0.0,0.0,0.0,0.0,0.0,0.0,0.0,0.0,0.0,0.0,0.0,0.0,0.0,0.0,0.0,5.2586,5.1448,5.1448,5.1101,5.0405,5.0089,4.9892,4.9931,5.0136,5.0331,0.0,0.0,5.1429,5.1798,5.1622,5.1437,5.1216,5.0419,4.9889,4.9525,4.8796,4.8763,4.8995,4.8266,4.8266,4.8597,4.8597,4.8597,4.8597,4.8597,4.8597,4.8531,4.81,4.8233,4.8597,4.8995,4.9889,5.0817,5.1216,5.1879,5.2409,5.2409,5.2409,5.248,5.2729,5.2553,5.2391,5.2434,5.2498,5.235,5.1889,5.2422,5.2542,5.1548,5.1751,5.1716,5.0978,5.0873,5.0792,5.0564,5.0764,5.0792,5.0564,5.0537,5.0507,5.0346,4.9925,4.9504,4.9153,4.838,4.7819,4.7397,4.7046,4.66,4.6214,4.6214,4.6214,2.8781,2.9782,3.088,3.1492,3.2826,3.3992,3.4049,3.4135,3.4502,3.5429,3.6011,3.635,0.0,3.8124,0.0,4.4713,0.0,0.0,0.0,0.0,0.0,0.0,0.0,0.0,0.0,0.0,0.0,0.0,0.0,0.0,0.0,0.0,0.0,0.0,0.0,0.0,5.1015,5.0816,5.0469,4.9892,4.9892,4.9892,4.9931,5.0331,5.0467,5.0422,5.1206,5.1605,5.1681,5.1407,5.1216,5.0916,4.979,4.916,4.8796,4.8398,4.863,4.9061,4.8663,4.8895,4.9326,4.916,4.9094,4.9094,4.8895,4.8862,4.873,4.8166,4.8001,4.8133,4.8696,4.9459,5.0291,5.1057,5.1726,5.2329,5.2662,5.2596,5.2668,5.318,5.3008,5.2807,5.2919,5.3455,5.3407,5.2166,5.3311,5.3612,5.1681,5.1926,5.1926,5.0978,5.0873,5.0873,5.0873,5.0873,5.0873,5.0873,5.0873,5.0873,5.0873,5.0338,4.9987,4.9987,4.9188,4.8521,4.7924,4.7748,4.7362,4.674,4.6565,4.6565,2.9925,3.1033,3.2186,3.3755,3.3577,3.3547,3.5541,3.6484,3.7464,3.9386,3.976,3.9497,0.0,3.992,4.2598,4.7331,0.0,0.0,0.0,0.0,0.0,0.0,0.0,0.0,0.0,0.0,0.0,0.0,0.0,0.0,0.0,0.0,0.0,0.0,0.0,0.0,5.1015,5.0311,4.9963,4.9892,4.9892,4.9892,4.9931,5.0331,5.0364,5.0126,5.0598,5.0994,5.1347,5.128,5.0883,5.0286,5.0187,4.9293,4.8166,4.8796,4.9061,4.9193,4.9823,5.0088,5.0021,4.9326,4.9094,4.8995,4.8299,4.8067,4.8067,4.8001,4.8001,4.8001,4.8067,4.8958,5.0051,5.0856,5.1351,5.2047,5.3474,5.3236,5.2963,5.371,5.3814,5.3738,5.3483,5.3506,5.3658,5.4022,5.4215,5.3998,5.3148,5.3078,5.2551,5.1049,5.0873,5.0873,5.0873,5.0873,5.0873,5.0873,5.0873,5.0873,5.0873,5.0838,5.0803,5.0803,4.9995,4.96,4.953,4.8802,4.839,4.8319,4.7643,4.7678,2.9027,3.0487,3.2189,3.3393,3.452,3.5904,3.8113,3.9475,4.0783,4.2682,4.3754,4.4173,0.0,0.0,4.6015,0.0,0.0,0.0,0.0,0.0,0.0,0.0,0.0,0.0,0.0,0.0,0.0,0.0,0.0,0.0,0.0,0.0,0.0,0.0,0.0,0.0,0.0,4.9615,4.9268,4.9268,4.971,4.9892,4.9931,5.0602,5.0596,5.0135,5.0788,5.0911,5.0585,5.0121,4.9756,4.9491,4.9028,4.8498,4.8034,4.8332,4.8995,4.9756,4.9591,5.0121,5.0817,5.0551,5.0154,4.9756,4.9458,4.9061,4.8663,4.8489,4.8786,4.8989,4.8231,4.929,5.0619,5.0955,5.2056,5.3196,5.3775,5.3707,5.3667,5.4296,5.4139,5.4068,5.4635,5.4478,5.4274,5.4297,5.4314,5.4033,5.3289,5.2769,5.2242,5.1645,5.1154,5.0873,5.0873,5.0873,5.0873,5.0873,5.0873,5.0873,5.0873,5.0873,5.0873,5.0873,5.0592,5.0198,4.9706,4.9398,4.8977,4.8495,4.8205,4.824,2.8658,3.0046,3.1728,3.2975,3.51,3.7693,4.0673,4.2034,4.3407,4.5855,4.6756,4.7088,4.7159,0.0,0.0,0.0,0.0,0.0,0.0,0.0,0.0,0.0,0.0,0.0,0.0,0.0,0.0,0.0,0.0,0.0,0.0,0.0,0.0,0.0,0.0,0.0,0.0,4.9236,4.8794,4.8573,4.9047,4.9299,4.9299,5.008,5.0196,4.9779,5.0371,5.0452,5.0154,4.9425,4.9094,4.9028,4.8299,4.8001,4.8034,4.8266,4.8995,4.9823,4.9558,5.0253,5.1282,5.1015,5.075,5.0486,5.0158,4.9726,4.9259,4.8998,4.9492,4.9902,4.9082,5.0143,5.1539,5.1777,5.2775,5.3808,5.429,5.4221,5.4212,5.483,5.4648,5.4648,5.5389,5.4964,5.4525,5.4326,5.4314,5.3928,5.2944,5.2558,5.2207,5.1716,5.1189,5.0873,5.0873,5.0873,5.0873,5.0873,5.0873,5.0873,5.0873,5.0873,5.0873,5.0873,5.0873,5.0627,5.0092,5.0092,4.9785,4.9258,4.9012,4.9012,2.9243,2.9894,3.0876,3.2826,3.5264,3.8417,4.2986,4.4008,4.5128,4.9005,4.8555,4.7671,4.847,4.8009,0.0,0.0,0.0,0.0,0.0,0.0,0.0,0.0,0.0,0.0,0.0,0.0,0.0,0.0,0.0,0.0,0.0,0.0,0.0,0.0,0.0,0.0,0.0,4.9205,4.8541,4.7877,4.7877,4.7877,4.7947,4.8666,4.8994,4.9001,4.9052,4.9525,5.0121,4.9392,4.9094,4.9028,4.8299,4.8001,4.81,4.8829,4.9094,4.9226,4.9955,5.0684,5.1183,5.0452,5.0684,5.1121,5.0089,4.9814,4.9774,4.9491,4.9983,5.0629,5.0629,5.1572,5.2726,5.3454,5.3399,5.3612,5.5191,5.4875,5.4559,5.5367,5.5507,5.5507,5.5507,5.484,5.4314,5.4314,5.4314,5.3752,5.2207,5.2699,5.2621,5.1049,5.0873,5.0873,5.0873,5.0873,5.0873,5.0873,5.0873,5.0873,5.0873,5.0873,5.0873,5.0873,5.0873,5.0873,5.0873,5.0873,5.0873,5.0873,5.0092,5.0162,2.9243,3.0228,3.1595,3.354,3.6645,4.0178,4.379,4.4995,4.644,5.0366,5.0516,4.9708,4.9304,0.0,0.0,0.0,0.0,0.0,0.0,0.0,0.0,0.0,0.0,0.0,0.0,0.0,0.0,0.0,0.0,0.0,0.0,0.0,0.0,0.0,0.0,0.0,0.0,0.0,4.749,4.7526,4.7016,4.7303,4.8291,4.8776,4.8846,4.8672,4.8957,4.8928,4.863,4.8431,4.8332,4.8299,4.81,4.8001,4.8034,4.8266,4.8663,4.9127,4.9359,4.9922,5.0585,5.0883,5.1059,5.1128,5.1294,5.1249,5.1086,5.0818,5.1691,5.268,5.2486,5.3498,5.4435,5.3758,5.4236,5.4946,5.5402,5.5332,5.5227,5.5472,5.5507,5.5507,5.5507,5.484,5.4314,5.4314,5.3857,5.3155,5.2137,5.2207,5.1997,5.0978,5.0873,5.0873,5.0873,5.0873,5.0873,5.0873,5.0873,5.0873,5.0873,5.0873,5.0873,5.0873,5.0873,5.0873,5.0873,5.0873,5.0873,5.0873,5.0662,5.0662,2.9745,3.089,3.2348,3.4685,3.8003,4.1645,4.5243,4.694,4.8664,5.1625,5.1482,5.0834,5.0865,0.0,0.0,0.0,0.0,0.0,0.0,0.0,0.0,0.0,0.0,0.0,0.0,0.0,0.0,0.0,0.0,0.0,0.0,0.0,0.0,0.0,0.0,0.0,0.0,0.0,0.0,4.6973,4.6667,4.7033,4.8013,4.8261,4.8407,4.8518,4.8926,4.8696,4.8001,4.8001,4.8001,4.8001,4.8001,4.8001,4.8001,4.8001,4.8299,4.8663,4.8663,4.916,4.9889,5.0618,5.0894,5.109,5.1658,5.1904,5.1916,5.1634,5.2683,5.3823,5.3695,5.4559,5.5313,5.455,5.4949,5.5507,5.5507,5.5507,5.5507,5.5507,5.5507,5.5507,5.5507,5.484,5.4208,5.3892,5.2944,5.2207,5.2004,5.1751,5.14,5.0943,5.0873,5.0873,5.0873,5.0873,5.0873,5.0873,5.0873,5.0873,5.0873,5.0873,5.0873,5.0873,5.0873,5.0873,5.0873,5.0873,5.0873,5.0873,5.0873,5.0873,3.061,3.1715,3.3149,3.6134,3.9492,4.3136,4.7245,4.9514,5.1111,5.2416,0.0,5.1304,5.2639,0.0,0.0,0.0,0.0,0.0,0.0,0.0,0.0,0.0,0.0,0.0,0.0,0.0,0.0,0.0,0.0,0.0,0.0,0.0,0.0,0.0,0.0,0.0,0.0,0.0,0.0,0.0,4.6756,4.7165,4.7536,4.7437,4.7765,4.8488,4.886,4.863,4.8001,4.8001,4.8001,4.8001,4.8001,4.8001,4.8001,4.8001,4.8001,4.8001,4.8001,4.8431,4.9127,4.989,5.0493,5.0986,5.15,5.2062,5.2398,5.2068,5.3085,5.4208,5.4208,5.4805,5.5402,5.5402,5.5472,5.5507,5.5507,5.5437,5.5437,5.5507,5.5437,5.5402,5.5402,5.4805,5.4033,5.319,5.1821,5.1119,5.1821,5.1294,5.0873,5.0873,5.0873,5.0873,5.0873,5.0873,5.0873,5.0873,5.0873,5.0873,5.0873,5.0873,5.0873,5.0873,5.0873,5.0873,5.0873,5.0873,5.0873,5.0873,5.0873,5.0873,3.1185,3.2228,3.3665,3.7298,4.196,4.665,5.0198,5.0892,5.0887,5.119,5.1466,5.1941,0.0,0.0,0.0,0.0,0.0,0.0,0.0,0.0,0.0,0.0,0.0,0.0,0.0,0.0,0.0,0.0,0.0,0.0,0.0,0.0,0.0,0.0,0.0,0.0,4.6266,4.6442,4.6638,0.0,4.7134,4.78,4.8695,4.7834,4.7637,4.8101,4.82,4.8166,4.8001,4.8001,4.8001,4.8001,4.8001,4.8001,4.8001,4.8001,4.8001,4.8001,4.8001,4.81,4.8431,4.9523,5.0242,5.0878,5.1886,5.2601,5.2901,5.2214,5.2699,5.3436,5.3436,5.3998,5.4559,5.4559,5.5051,5.5507,5.5507,5.5016,5.4735,5.5402,5.5016,5.4559,5.4559,5.4419,5.3857,5.2453,5.147,5.0943,5.1119,5.0978,5.0873,5.0873,5.0873,5.0873,5.0873,5.0873,5.0873,5.0873,5.0873,5.0873,5.0873,5.0873,5.0873,5.0873,5.0873,5.0873,5.0873,5.0873,5.0873,5.0873,5.0873,5.0873,3.1112,3.2496,3.4567,3.9487,4.3542,4.7115,4.9807,5.015,5.0147,5.1137,5.1971,0.0,0.0,0.0,0.0,0.0,0.0,0.0,0.0,0.0,0.0,0.0,0.0,0.0,0.0,0.0,0.0,0.0,0.0,0.0,0.0,0.0,0.0,0.0,0.0,0.0,4.5823,4.6333,4.6687,4.6927,4.7437,4.8001,4.8597,4.8694,4.886,4.9061,4.9061,4.8862,4.8531,4.8531,4.8332,4.8001,4.8001,4.8001,4.8001,4.8001,4.8001,4.8001,4.8001,4.8164,4.8521,4.9481,5.0079,5.0543,5.1538,5.2224,5.2523,5.2137,5.2593,5.3218,5.3218,5.3471,5.3752,5.3752,5.4349,5.484,5.4489,5.4068,5.3892,5.4314,5.4068,5.3752,5.3752,5.3471,5.2944,5.2109,5.1365,5.0873,5.0873,5.0873,5.0873,5.0873,5.0873,5.0873,5.0873,5.0873,5.0873,5.0873,5.0873,5.0873,5.0873,5.0873,5.0873,5.0873,5.0873,5.0873,5.0873,5.0873,5.0873,5.0873,5.0873,5.0873,3.0829,3.2963,3.5961,4.1477,4.4298,4.622,4.8206,4.8818,4.9554,5.1431,0.0,0.0,0.0,0.0,0.0,0.0,0.0,0.0,0.0,0.0,0.0,0.0,0.0,0.0,0.0,0.0,0.0,0.0,0.0,0.0,0.0,0.0,0.0,0.0,0.0,4.59,4.59,4.6615,4.6931,4.6801,4.7506,4.7802,4.7868,4.9226,4.9823,4.9823,4.969,4.9293,4.873,4.873,4.8365,4.7835,4.7968,4.8001,4.8001,4.8001,4.8001,4.8001,4.8099,4.8388,4.8834,4.9598,4.9945,5.0241,5.0957,5.1451,5.1821,5.1821,5.2277,5.2832,5.2944,5.298,5.298,5.298,5.3471,5.3787,5.3324,5.3113,5.3015,5.3183,5.3113,5.3043,5.3183,5.2418,5.1856,5.1969,5.1365,5.0873,5.0873,5.0873,5.0873,5.0873,5.0873,5.0873,5.0873,5.0873,5.0873,5.0873,5.0873,5.0873,5.0873,5.0873,5.0873,5.0873,5.0873,5.0873,5.0873,5.0873,5.0873,5.0873,5.0873,5.0873,3.0686,3.4288,3.8356,4.1453,4.3631,4.5565,4.754,0.0,5.0026,0.0,0.0,0.0,0.0,0.0,0.0,0.0,0.0,0.0,0.0,0.0,0.0,0.0,0.0,0.0,0.0,0.0,0.0,0.0,0.0,0.0,0.0,0.0,4.5823,4.5823,4.6084,0.0,4.623,4.6963,4.701,4.6388,4.6814,4.704,4.7073,4.7901,4.8299,4.8266,4.7636,4.7272,4.7206,4.7206,4.7139,4.7106,4.7736,4.8001,4.8001,4.8001,4.8001,4.8066,4.8483,4.8639,4.8827,4.9742,5.0092,5.0194,5.0759,5.0994,5.1049,5.1049,5.1119,5.1329,5.1997,5.2172,5.2172,5.2172,5.2242,5.2488,5.305,5.2664,5.2383,5.3078,5.2628,5.2383,5.3078,5.1997,5.1259,5.1899,5.1365,5.0873,5.0873,5.0873,5.0873,5.0873,5.0873,5.0873,5.0873,5.0873,5.0873,5.0873,5.0873,5.0873,5.0873,5.0873,5.0873,5.0873,5.0873,5.0873,5.0873,5.0873,5.0873,5.0873,5.0873,5.0873,3.0807,3.3988,3.7244,3.9828,4.1628,4.3407,4.5747,4.6983,4.8162,0.0,0.0,0.0,0.0,0.0,0.0,0.0,0.0,0.0,0.0,0.0,0.0,0.0,0.0,0.0,0.0,0.0,0.0,0.0,0.0,0.0,4.636,4.6013,4.5823,4.5823,4.6156,0.0,4.569,4.6414,4.6553,4.6023,4.6215,4.6278,4.6278,4.6609,4.7206,4.7968,4.7669,4.7272,4.6908,4.6908,4.6908,4.6941,4.7272,4.7636,4.8001,4.8001,4.8001,4.8066,4.8547,4.8889,4.9192,4.9873,5.0307,5.0592,5.0819,5.0873,5.0873,5.0873,5.0873,5.0978,5.1294,5.1365,5.1365,5.1365,5.1365,5.147,5.1821,5.161,5.1505,5.1821,5.161,5.1505,5.1821,5.1357,5.1013,5.1329,5.1119,5.0873,5.0873,5.0873,5.0873,5.0873,5.0873,5.0873,5.0873,5.0873,5.0873,5.0873,5.0873,5.0873,5.0873,5.0873,5.0873,5.0873,5.0873,5.0873,5.0873,5.0873,5.0873,5.0873,5.0873,5.0873,3.0443,3.2752,3.4981,3.7441,3.9273,4.1077,0.0,0.0,0.0,0.0,0.0,0.0,0.0,0.0,0.0,0.0,0.0,0.0,0.0,0.0,0.0,0.0,0.0,0.0,0.0,0.0,0.0,0.0,0.0,0.0,4.6518,4.5886,4.5539,4.5539,4.578,4.5672,4.509,4.5636,4.576,4.5516,4.5317,4.5251,4.5251,4.5251,4.5847,4.6908,4.7073,4.6841,4.6344,4.6344,4.6344,4.6344,4.6543,4.7073,4.7736,4.7736,4.79,4.8227,4.8702,4.9161,4.9639,5.0165,5.0564,5.0873,5.0873,5.0873,5.0873,5.0873,5.0873,5.0873,5.0873,5.0873,5.0873,5.0873,5.0873,5.0873,5.0873,5.0873,5.0873,5.0873,5.0873,5.0873,5.0873,5.0873,5.0873,5.0873,5.0873,5.0873,5.0873,5.0873,5.0873,5.0873,5.0873,5.0873,5.0873,5.0873,5.0873,5.0873,5.0873,5.0873,5.0873,5.0873,5.0873,5.0873,5.0873,5.0873,5.0873,5.0873,5.0873,5.0873,5.0873,5.0873,2.9027,3.047,3.2169,3.4456,3.6827,3.9086,0.0,0.0,0.0,0.0,0.0,0.0,0.0,0.0,0.0,0.0,0.0,0.0,0.0,0.0,0.0,0.0,0.0,0.0,0.0,0.0,0.0,0.0,0.0,0.0,4.5855,4.5159,4.478,4.478,4.4837,4.4851,4.4819,4.481,4.4787,4.4721,4.4059,4.3698,4.3698,4.3698,4.3764,4.3863,4.4556,4.4854,4.4787,4.4787,4.4787,4.4854,4.5582,4.6311,4.6974,4.6974,4.7691,4.8733,4.9192,4.9669,5.0131,5.071,5.0873,5.0873,5.0873,5.0873,5.0873,5.0873,5.0873,5.0873,5.0873,5.0873,5.0873,5.0873,5.0873,5.0873,5.0873,5.0873,5.0873,5.0873,5.0873,5.0873,5.0873,5.0873,5.0873,5.0873,5.0873,5.0873,5.0873,5.0873,5.0873,5.0873,5.0873,5.0873,5.0873,5.0873,5.0873,5.0873,5.0873,5.0873,5.0873,5.0873,5.0873,5.0873,5.0873,5.0873,5.0873,5.0873,5.0873,5.0873,5.0873,5.0873,2.8711,2.9754,3.0927,3.3066,3.517,3.7158,3.868,4.1032,0.0,0.0,0.0,0.0,0.0,0.0,0.0,0.0,0.0,0.0,0.0,0.0,0.0,0.0,0.0,0.0,0.0,0.0,0.0,0.0,0.0,0.0,4.5823,4.5096,4.4823,4.5034,4.4876,4.4789,4.4744,4.4235,4.3992,4.3992,4.3731,4.3598,4.3598,4.3598,4.3598,4.3598,4.3893,4.3992,4.3992,4.3992,4.4257,4.4721,4.4986,4.5814,4.6939,4.7254,4.7908,4.8827,4.958,4.9959,5.0194,5.0737,5.0873,5.0873,5.0873,5.0873,5.0873,5.0873,5.0873,5.0873,5.0873,5.0873,5.0873,5.0873,5.0873,5.1013,5.1505,5.1224,5.0873,5.0873,5.0873,5.0873,5.0873,5.0873,5.0873,5.0873,5.0873,5.0873,5.0873,5.0873,5.0873,5.0873,5.0873,5.0873,5.0873,5.0873,5.0873,5.0873,5.0873,5.0873,5.0873,5.0873,5.0873,5.0873,5.0873,5.0873,5.0873,5.0873,5.0873,5.0873,5.0873,5.0873,2.7977,0.0,0.0,0.0,3.3351,3.5125,3.7129,0.0,0.0,0.0,0.0,0.0,0.0,0.0,0.0,0.0,0.0,0.0,0.0,0.0,0.0,0.0,0.0,0.0,0.0,0.0,0.0,0.0,0.0,0.0,4.5096,4.4538,4.4307,4.449,4.4334,4.4262,4.4324,4.383,4.3598,4.3598,4.3598,4.3598,4.3598,4.3598,4.3598,4.3598,4.3598,4.3598,4.3598,4.3598,4.3863,4.4324,4.4324,4.5178,4.646,4.6999,4.7906,4.8946,4.9804,5.0222,5.0418,5.0792,5.0873,5.0873,5.0873,5.0873,5.0873,5.0873,5.1084,5.1259,5.1259,5.1259,5.1224,5.0943,5.1084,5.14,5.1891,5.1435,5.0978,5.1224,5.1049,5.0873,5.0873,5.0873,5.0873,5.0873,5.0873,5.0873,5.0873,5.0873,5.0873,5.0873,5.0873,5.0873,5.0873,5.0873,5.0873,5.0873,5.0873,5.1013,5.1259,5.1013,5.1013,5.1259,5.1013,5.0873,5.0873,5.0873,5.0873,5.0873,5.0873,5.0927,0.0,0.0,0.0,0.0,0.0,0.0,3.6197,0.0,0.0,0.0,0.0,0.0,0.0,0.0,0.0,0.0,0.0,0.0,0.0,0.0,0.0,0.0,0.0,0.0,0.0,0.0,0.0,0.0,0.0,4.3706,4.3677,4.3381,4.317,4.3082,4.3113,4.3265,4.3565,4.3565,4.3565,4.3565,4.3565,4.3598,4.3631,4.3631,4.3631,4.3631,4.3631,4.3598,4.3598,4.3598,4.3598,4.3598,4.3628,4.4356,4.5475,4.6237,4.7534,4.9063,4.9825,5.0446,5.0873,5.0873,5.0873,5.0873,5.0873,5.0873,5.0873,5.0873,5.1435,5.1997,5.1997,5.1997,5.1786,5.1049,5.147,5.2032,5.2032,5.1435,5.1119,5.1856,5.14,5.0873,5.0873,5.0908,5.0908,5.0908,5.0943,5.0943,5.0943,5.0908,5.0908,5.0873,5.0873,5.0873,5.0873,5.0873,5.0873,5.0873,5.0873,5.1224,5.1997,5.1294,5.1259,5.1997,5.1294,5.0908,5.0873,5.0873,5.0873,5.0873,5.09,5.1061,2.686,0.0,0.0,0.0,0.0,0.0,0.0,0.0,0.0,0.0,0.0,0.0,0.0,0.0,0.0,0.0,0.0,0.0,0.0,0.0,0.0,0.0,0.0,0.0,0.0,0.0,0.0,0.0,0.0,4.3516,4.2979,4.3326,4.3394,4.3115,4.3325,4.3244,4.2804,4.2804,4.2804,4.2804,4.2804,4.3363,4.439,4.439,4.439,4.439,4.439,4.4092,4.3598,4.3598,4.3598,4.3628,4.3948,4.4649,4.5496,4.6349,4.7286,4.8293,4.942,4.9915,5.0127,5.0697,5.0873,5.0873,5.0873,5.0873,5.0873,5.0873,5.1049,5.1189,5.1189,5.1189,5.1154,5.0943,5.147,5.2172,5.2734,5.2242,5.1786,5.1934,5.14,5.0873,5.0873,5.1329,5.1716,5.1716,5.2172,5.2348,5.1786,5.1716,5.1505,5.0943,5.0873,5.0873,5.0873,5.0873,5.0873,5.0873,5.0873,5.1224,5.1997,5.1821,5.1786,5.2004,5.1821,5.1435,5.0873,5.0873,5.0873,5.09,5.1088,5.135,0.0,0.0,0.0,0.0,0.0,0.0,3.4214,3.5468,0.0,0.0,0.0,0.0,0.0,0.0,0.0,0.0,0.0,0.0,0.0,0.0,0.0,0.0,0.0,0.0,0.0,0.0,0.0,0.0,4.2347,4.2319,4.204,4.2784,4.3196,4.3113,4.3119,4.2936,4.2506,4.2506,4.234,4.2042,4.234,4.3131,4.4257,4.4257,4.439,4.4688,4.4688,4.4291,4.3598,4.3598,4.3717,4.3889,4.4179,4.479,4.5589,4.6382,4.7298,4.8285,4.9354,4.9916,5.0276,5.0733,5.0873,5.0873,5.0873,5.0873,5.0873,5.0873,5.1119,5.1365,5.1365,5.1365,5.1294,5.0978,5.147,5.2137,5.2593,5.2348,5.2102,5.2453,5.161,5.0873,5.0873,5.1505,5.1926,5.161,5.2207,5.2418,5.1645,5.154,5.1365,5.0943,5.0873,5.0873,5.0873,5.0873,5.0873,5.0873,5.1189,5.1716,5.2453,5.2488,5.2488,5.2488,5.2172,5.1645,5.0873,5.0873,5.0954,5.1061,5.122,5.1505,0.0,0.0,0.0,0.0,0.0,0.0,3.4835,3.534,3.5776,0.0,0.0,0.0,0.0,0.0,0.0,0.0,0.0,0.0,0.0,0.0,0.0,0.0,0.0,0.0,0.0,0.0,4.143,4.1367,4.0862,4.0738,4.1179,4.2039,4.2706,4.3012,4.269,4.2406,4.2274,4.234,4.2009,4.1309,4.2009,4.2804,4.3598,4.3598,4.4089,4.4879,4.4812,4.4444,4.3876,4.3776,4.3948,4.4293,4.435,4.4845,4.5693,4.6378,4.737,4.8451,4.9258,4.996,5.0557,5.0803,5.0838,5.0768,5.0873,5.0873,5.0873,5.0873,5.1365,5.1891,5.1891,5.1891,5.1716,5.1049,5.147,5.2004,5.2004,5.2004,5.2207,5.2909,5.1891,5.0873,5.0873,5.1505,5.1786,5.1119,5.1645,5.1856,5.1119,5.1013,5.0978,5.0908,5.0873,5.0873,5.0873,5.0873,5.0873,5.0873,5.161,5.2348,5.3183,5.3289,5.3289,5.3218,5.234,5.163,5.0927,5.09,5.1034,5.1298,5.135,5.1632,0.0,0.0,0.0,0.0,0.0,0.0,3.2636,3.3062,3.329,0.0,0.0,0.0,0.0,0.0,0.0,0.0,0.0,0.0,0.0,0.0,0.0,0.0,0.0,0.0,0.0,0.0,4.0546,3.9945,4.0038,4.0632,4.1757,4.201,4.2258,4.2617,4.2543,4.1972,4.0812,4.1342,4.1276,4.058,4.1309,4.2307,4.3598,4.3598,4.4534,4.6122,4.5526,4.5424,4.5563,4.4918,4.4513,4.4321,4.4652,4.5115,4.5649,4.613,4.6455,4.6881,4.8249,4.8451,4.838,5.0276,5.0452,5.003,5.0697,5.0873,5.0873,5.0873,5.0978,5.1119,5.1119,5.1119,5.1084,5.0908,5.147,5.2004,5.2004,5.2004,5.2067,5.2207,5.1505,5.0873,5.0873,5.1505,5.1961,5.1821,5.2453,5.2664,5.1891,5.1786,5.1575,5.0943,5.0873,5.0873,5.0873,5.0873,5.0873,5.0873,5.161,5.2348,5.3183,5.3752,5.3787,5.3218,5.2067,5.1361,5.122,5.1008,5.1034,5.1324,5.1531,5.1808,0.0,0.0,0.0,3.3226,0.0,0.0,0.0,3.2893,3.3205,3.2841,0.0,0.0,0.0,0.0,0.0,0.0,0.0,0.0,0.0,0.0,0.0,0.0,0.0,0.0,0.0,0.0,3.9597,3.9752,3.9907,4.0373,4.1208,4.1386,4.1533,4.1679,4.1555,4.111,4.0409,4.0713,4.0547,3.9879,4.0547,4.1674,4.3035,4.3035,4.4127,4.5909,4.5572,4.5461,4.5473,4.5063,4.4927,4.4954,4.5169,4.5511,4.593,4.614,4.646,4.6906,4.7678,4.8205,4.8731,4.9925,5.0276,5.0346,5.0768,5.0873,5.0873,5.0873,5.0873,5.0873,5.0873,5.0873,5.0873,5.0873,5.1189,5.1435,5.1435,5.1435,5.1435,5.1435,5.1154,5.0873,5.0873,5.1505,5.1891,5.1505,5.2102,5.2312,5.154,5.1435,5.1294,5.0943,5.0873,5.0873,5.0873,5.0873,5.0873,5.0873,5.161,5.2348,5.3183,5.3892,5.402,5.3415,5.2156,5.1505,5.1505,5.1376,5.1454,5.1708,5.1858,5.2054,0.0,0.0,0.0,0.0,0.0,3.3331,0.0,0.0,0.0,3.3097,0.0,0.0,0.0,0.0,0.0,0.0,0.0,0.0,0.0,0.0,0.0,0.0,0.0,0.0,0.0,0.0,3.8412,3.9282,3.9604,3.9978,4.0463,4.0794,4.0976,4.0976,4.0601,4.0343,4.021,4.0343,4.0044,3.9315,4.0044,4.0978,4.2104,4.2323,4.3476,4.5318,4.5404,4.5409,4.5375,4.5203,4.5381,4.5727,4.5649,4.5854,4.6214,4.6214,4.66,4.7187,4.7327,4.8099,4.9082,4.9565,5.0241,5.0873,5.0873,5.0873,5.0873,5.0873,5.0873,5.0873,5.0873,5.0873,5.0873,5.0873,5.0873,5.0873,5.0873,5.0873,5.0873,5.0873,5.0873,5.0873,5.0873,5.14,5.161,5.0978,5.14,5.1575,5.0978,5.0873,5.0943,5.1084,5.0978,5.0943,5.1084,5.0978,5.0873,5.0873,5.161,5.2305,5.2994,5.3824,5.4141,5.3894,5.2656,5.1997,5.1997,5.1904,5.1956,5.2102,5.2102,5.2246,0.0,0.0,0.0,0.0,3.4547,0.0,0.0,0.0,3.2652,3.0742,0.0,0.0,0.0,0.0,0.0,0.0,0.0,0.0,0.0,0.0,0.0,0.0,0.0,0.0,0.0,0.0,0.0,3.6953,3.8188,3.9373,4.0337,4.0993,4.1352,4.1352,4.0746,4.0111,3.9415,4.0078,4.0044,3.9315,4.0044,4.0475,4.0674,4.1686,4.32,4.5063,4.5413,4.6152,4.706,4.6335,4.608,4.608,4.5752,4.5854,4.6214,4.6214,4.6249,4.6425,4.7151,4.7046,4.6916,4.9012,5.0241,5.0873,5.0873,5.0873,5.0873,5.0873,5.0873,5.0873,5.0873,5.0873,5.0873,5.0873,5.0873,5.0873,5.0873,5.0873,5.0873,5.0873,5.0873,5.0873,5.0873,5.0978,5.0978,5.0908,5.0978,5.0978,5.0908,5.0873,5.1154,5.1821,5.1294,5.1154,5.1821,5.1294,5.0873,5.0873,5.161,5.2177,5.2492,5.3469,5.4367,5.5,5.3759,5.312,5.312,5.2654,5.2293,5.2102,5.2102,5.2246,0.0,0.0,0.0,0.0,0.0,0.0,0.0,0.0,3.3032,0.0,0.0,0.0,0.0,0.0,0.0,0.0,0.0,0.0,0.0,0.0,0.0,0.0,0.0,0.0,0.0,0.0,0.0,0.0,0.0,3.8827,4.0315,4.0249,4.0183,4.0183,3.9912,3.9613,3.9315,3.9613,3.9613,3.9315,3.9613,4.0086,4.0702,4.1681,4.3015,4.4682,4.5312,4.6003,4.667,4.6354,4.6214,4.6189,4.6005,4.603,4.6214,4.6214,4.6214,4.6249,4.6565,4.7056,4.7828,4.975,5.0592,5.0873,5.0873,5.0873,5.0873,5.0873,5.0873,5.0873,5.0873,5.0873,5.0873,5.0873,5.0873,5.0873,5.0873,5.0873,5.0873,5.0873,5.0873,5.0873,5.0873,5.0873,5.0873,5.0873,5.0873,5.0873,5.0873,5.0873,5.1013,5.1329,5.1084,5.1013,5.1329,5.1084,5.0954,5.1114,5.198,5.2715,5.3309,5.3917,5.4584,5.5434,5.4179,5.3508,5.3508,5.2832,5.2434,5.2317,5.2317,5.2387,3.5143,0.0,0.0,0.0,0.0,0.0,0.0,0.0,0.0,0.0,0.0,0.0,0.0,0.0,0.0,0.0,0.0,0.0,0.0,0.0,0.0,0.0,0.0,0.0,0.0,0.0,0.0,0.0,3.7459,0.0,3.9123,3.9448,3.9613,3.9613,3.9613,3.9613,3.9613,3.9415,3.9315,3.9315,3.9388,3.9866,4.0666,4.1899,4.3057,4.4152,4.5275,4.593,4.6214,4.6214,4.6214,4.6214,4.6214,4.6214,4.6214,4.6214,4.6214,4.6214,4.646,4.7512,4.9012,5.0171,5.0697,5.0873,5.0873,5.0873,5.0873,5.0873,5.0873,5.0873,5.0873,5.0873,5.0873,5.0873,5.0873,5.0873,5.0873,5.0873,5.0873,5.0873,5.0873,5.0873,5.0873,5.0873,5.0873,5.0873,5.0873,5.0873,5.0873,5.0873,5.0978,5.1189,5.1013,5.0978,5.1189,5.1095,5.1114,5.1402,5.2371,5.331,5.4086,5.4594,5.5249,5.6016,5.4918,5.4218,5.4037,5.3204,5.2733,5.248,5.248,5.248,0.0,0.0,0.0,3.681,0.0,0.0,0.0,0.0,3.5917,0.0,0.0,0.0,0.0,0.0,0.0,0.0,0.0,0.0,0.0,0.0,0.0,0.0,0.0,0.0,0.0,0.0,0.0,0.0,3.4811,0.0,3.6141,3.8851,4.0376,4.0376,4.0376,4.0376,4.0376,3.968,3.9315,3.9282,3.9677,3.9918,4.0011,4.2249,4.3311,4.344,4.5341,4.6214,4.6214,4.6214,4.6214,4.6214,4.6214,4.6214,4.6214,4.6214,4.6214,4.6319,4.7081,4.8345,4.9671,4.9741,5.0268,5.0873,5.0873,5.0873,5.0873,5.0873,5.0873,5.0873,5.0873,5.0873,5.0873,5.0873,5.0873,5.0873,5.0873,5.0873,5.0873,5.0873,5.0873,5.0873,5.0873,5.0873,5.0873,5.0873,5.0873,5.0873,5.0873,5.0873,5.1154,5.1891,5.1329,5.1189,5.1899,5.1537,5.1402,5.1683,5.2709,5.3648,5.4439,5.541,5.6319,5.7152,5.6355,5.5558,5.487,5.4037,5.3277,5.248,5.248,5.248,0.0,0.0,3.8982,3.7169,0.0,0.0,0.0,0.0,0.0,0.0,0.0,0.0,0.0,0.0,0.0,0.0,0.0,0.0,0.0,0.0,0.0,0.0,0.0,0.0,0.0,0.0,0.0,3.4008,3.5289,3.6009,0.0,3.8354,3.9448,3.8957,3.9448,3.968,3.968,3.9415,3.9415,3.9677,3.9807,4.0163,4.068,4.2002,4.2995,4.3733,4.4962,4.5723,4.6214,4.6214,4.6214,4.6214,4.6214,4.6214,4.6214,4.6214,4.6214,4.6389,4.7748,4.8837,4.9811,5.0311,5.0662,5.0873,5.0873,5.0873,5.0873,5.0873,5.0873,5.0873,5.0873,5.0873,5.0873,5.0873,5.0873,5.0873,5.0873,5.0873,5.0873,5.0873,5.0873,5.0873,5.0873,5.0873,5.0873,5.0873,5.0873,5.0873,5.0873,5.0873,5.0978,5.1259,5.1237,5.1273,5.152,5.1724,5.1882,5.198,5.2474,5.3375,5.4712,5.5075,5.5884,5.7152,5.6391,5.5884,5.5631,5.4327,5.3566,5.3277,5.2733,5.248,3.886,3.9556,0.0,0.0,3.863,0.0,3.7509,0.0,0.0,0.0,0.0,0.0,0.0,0.0,0.0,0.0,0.0,0.0,0.0,0.0,0.0,0.0,0.0,0.0,0.0,0.0,3.1892,3.2907,3.3925,3.4545,0.0,0.0,3.8427,3.8228,3.8917,3.9415,3.968,3.9415,3.9494,3.9884,4.0037,4.0402,4.1035,4.1963,4.2975,4.3921,4.4764,4.5536,4.6214,4.6214,4.6214,4.6214,4.6214,4.6214,4.6214,4.6214,4.6565,4.7197,4.8521,4.9469,5.0206,5.0733,5.0873,5.0873,5.0873,5.0873,5.0873,5.0873,5.0873,5.0873,5.0873,5.0873,5.0873,5.0873,5.0873,5.0873,5.0873,5.0873,5.0873,5.0873,5.0873,5.0873,5.0873,5.0873,5.0873,5.0873,5.0873,5.0927,5.1034,5.1034,5.1061,5.1167,5.135,5.1505,5.1582,5.1907,5.2258,5.2642,5.2821,5.353,5.487,5.516,5.5884,5.7152,5.6681,5.6428,5.6428,5.487,5.4001,5.3675,5.3017,5.2686]}]]